[[{"header":{"parameterUnit":"m.s-1","parameterCategory":1,"la1":30.6,"la2":29.2853,"lo1":-89.7004,"lo2":-87.6739,"dy":0.0162,"dx":0.0183,"nx":112,"ny":82,"refTime":"2023-11-10T06:00:00:Z","depth":0,"parameterNumber":2,"parameterNumberName":"U-component_of_WINDS"},"data":[0.0,0.0,0.0,0.0,0.0,0.0,0.0,0.0,0.0,0.0,0.0,0.0,0.0,0.0,0.0,0.0,0.0,0.0,0.0,0.0,0.0,0.0,0.0,0.0,0.0,0.0,0.0,0.0,0.0,0.0,0.0,0.0,0.0,0.0,0.0,0.0,0.0,0.0,0.0,0.0,0.0,0.0,0.0,0.0,0.0,0.0,0.0,0.0,0.0,0.0,0.0,0.0,0.0,0.0,0.0,0.0,0.0,0.0,0.0,0.0,0.0,0.0,0.0,0.0,0.0,0.0,0.0,0.0,0.0,0.0,0.0,0.0,0.0,0.0,0.0,0.0,0.0,0.0,0.0,0.0,0.0,0.0,0.0,0.0,0.0,0.0,0.0,0.0,0.0,0.0,2.6265,2.7405,2.6615,2.656,2.7901,2.6823,2.6277,2.6745,0.0,0.0,0.0,0.0,0.0,0.0,0.0,0.0,0.0,0.0,0.0,0.0,0.0,0.0,0.0,0.0,0.0,0.0,0.0,0.0,0.0,0.0,0.0,0.0,0.0,0.0,0.0,0.0,0.0,0.0,0.0,0.0,0.0,0.0,0.0,0.0,0.0,0.0,0.0,0.0,0.0,0.0,0.0,0.0,0.0,0.0,0.0,0.0,0.0,0.0,0.0,0.0,0.0,0.0,0.0,0.0,0.0,0.0,0.0,0.0,0.0,0.0,0.0,0.0,0.0,0.0,0.0,0.0,0.0,0.0,0.0,0.0,0.0,0.0,0.0,0.0,0.0,0.0,0.0,0.0,0.0,0.0,0.0,0.0,0.0,0.0,0.0,0.0,0.0,0.0,0.0,0.0,0.0,0.0,0.0,0.0,0.0,0.0,0.0,0.0,0.0,0.0,0.0,0.0,2.6737,2.6318,2.6103,2.6106,2.6349,2.6341,2.6031,2.5282,0.0,0.0,0.0,0.0,0.0,0.0,0.0,0.0,0.0,0.0,0.0,0.0,0.0,0.0,0.0,0.0,0.0,0.0,0.0,0.0,0.0,0.0,0.0,0.0,0.0,0.0,0.0,0.0,0.0,0.0,0.0,0.0,0.0,0.0,0.0,0.0,0.0,0.0,0.0,0.0,0.0,0.0,0.0,0.0,0.0,0.0,0.0,0.0,0.0,0.0,0.0,0.0,0.0,0.0,0.0,0.0,0.0,0.0,0.0,0.0,0.0,0.0,0.0,0.0,0.0,0.0,0.0,0.0,0.0,0.0,0.0,0.0,0.0,0.0,0.0,0.0,0.0,0.0,0.0,0.0,0.0,0.0,0.0,0.0,0.0,0.0,0.0,0.0,0.0,0.0,0.0,0.0,0.0,0.0,0.0,0.0,0.0,0.0,0.0,0.0,0.0,0.0,0.0,2.5127,2.6071,2.5219,2.4367,2.4177,2.5046,2.444,2.4026,2.4021,2.2668,0.0,0.0,0.0,0.0,0.0,0.0,0.0,0.0,0.0,0.0,0.0,0.0,0.0,0.0,0.0,0.0,0.0,0.0,0.0,0.0,0.0,0.0,0.0,0.0,0.0,0.0,0.0,0.0,0.0,0.0,0.0,0.0,0.0,0.0,0.0,0.0,0.0,0.0,0.0,0.0,0.0,0.0,0.0,0.0,0.0,0.0,0.0,0.0,0.0,0.0,0.0,0.0,0.0,0.0,0.0,0.0,0.0,0.0,0.0,0.0,0.0,0.0,0.0,0.0,0.0,0.0,0.0,0.0,0.0,0.0,0.0,0.0,0.0,0.0,0.0,0.0,0.0,0.0,0.0,0.0,0.0,0.0,0.0,0.0,0.0,0.0,0.0,0.0,0.0,0.0,0.0,0.0,0.0,0.0,0.0,0.0,0.0,0.0,0.0,0.0,0.0,0.0,2.3405,2.4624,2.3904,2.2719,2.2504,2.3735,2.2719,2.2211,2.2745,2.1727,0.0,0.0,0.0,0.0,0.0,0.0,0.0,0.0,0.0,0.0,0.0,0.0,0.0,0.0,0.0,0.0,0.0,0.0,0.0,0.0,0.0,0.0,0.0,0.0,0.0,0.0,0.0,0.0,0.0,0.0,0.0,0.0,0.0,0.0,0.0,0.0,0.0,0.0,0.0,0.0,0.0,0.0,0.0,0.0,0.0,0.0,0.0,0.0,0.0,0.0,0.0,0.0,0.0,0.0,0.0,0.0,0.0,0.0,0.0,0.0,0.0,0.0,0.0,0.0,0.0,0.0,0.0,0.0,0.0,0.0,0.0,0.0,0.0,0.0,0.0,0.0,0.0,0.0,0.0,0.0,0.0,0.0,0.0,0.0,0.0,0.0,0.0,0.0,0.0,0.0,0.0,0.0,0.0,0.0,0.0,0.0,0.0,0.0,0.0,0.0,0.0,0.0,2.2612,2.2219,2.2175,2.209,2.2057,2.2142,2.2043,2.1802,2.1294,2.1172,0.0,0.0,0.0,0.0,0.0,0.0,0.0,0.0,0.0,0.0,0.0,0.0,0.0,0.0,0.0,0.0,0.0,0.0,0.0,0.0,0.0,0.0,0.0,0.0,0.0,0.0,0.0,0.0,0.0,0.0,0.0,0.0,0.0,0.0,0.0,0.0,0.0,0.0,0.0,0.0,0.0,0.0,0.0,0.0,0.0,0.0,0.0,0.0,0.0,0.0,0.0,0.0,0.0,0.0,0.0,0.0,0.0,0.0,0.0,0.0,0.0,0.0,0.0,0.0,0.0,0.0,0.0,0.0,0.0,0.0,0.0,0.0,0.0,0.0,0.0,0.0,0.0,0.0,0.0,0.0,0.0,0.0,0.0,0.0,0.0,0.0,0.0,0.0,0.0,0.0,0.0,0.0,0.0,0.0,0.0,0.0,0.0,0.0,0.0,0.0,0.0,0.0,2.2909,2.3154,2.262,2.2572,2.2572,2.2572,2.2572,2.2318,2.1697,0.0,0.0,0.0,0.0,0.0,0.0,0.0,0.0,0.0,0.0,0.0,0.0,0.0,0.0,0.0,0.0,0.0,0.0,0.0,0.0,0.0,0.0,0.0,0.0,0.0,0.0,0.0,0.0,0.0,0.0,0.0,0.0,0.0,0.0,0.0,0.0,0.0,0.0,0.0,0.0,0.0,0.0,0.0,0.0,0.0,0.0,0.0,0.0,0.0,0.0,0.0,0.0,0.0,0.0,0.0,0.0,0.0,0.0,0.0,0.0,0.0,0.0,0.0,0.0,0.0,0.0,0.0,0.0,0.0,0.0,0.0,0.0,0.0,0.0,0.0,0.0,0.0,0.0,0.0,0.0,0.0,0.0,0.0,0.0,0.0,0.0,0.0,0.0,0.0,0.0,0.0,0.0,0.0,0.0,0.0,0.0,0.0,0.0,0.0,0.0,0.0,0.0,2.1908,2.2925,2.3562,2.2956,2.2893,2.2893,2.2893,2.2813,2.2546,2.2017,0.0,0.0,0.0,0.0,0.0,0.0,0.0,0.0,0.0,0.0,0.0,0.0,0.0,0.0,0.0,0.0,0.0,0.0,0.0,0.0,0.0,0.0,0.0,0.0,0.0,0.0,0.0,0.0,0.0,0.0,0.0,0.0,0.0,0.0,0.0,0.0,0.0,0.0,0.0,0.0,0.0,0.0,0.0,0.0,0.0,0.0,0.0,0.0,0.0,0.0,0.0,0.0,0.0,0.0,0.0,0.0,0.0,0.0,0.0,0.0,0.0,0.0,0.0,0.0,0.0,0.0,0.0,0.0,0.0,0.0,0.0,0.0,0.0,0.0,0.0,0.0,0.0,0.0,0.0,0.0,0.0,0.0,0.0,0.0,0.0,0.0,0.0,0.0,0.0,0.0,0.0,0.0,0.0,0.0,0.0,0.0,0.0,0.0,0.0,0.0,0.0,0.0,2.1984,2.2532,2.2907,2.2907,2.2907,2.2907,2.2907,2.2605,2.2311,0.0,0.0,0.0,0.0,0.0,0.0,0.0,0.0,0.0,0.0,0.0,0.0,0.0,0.0,0.0,0.0,0.0,0.0,0.0,0.0,0.0,0.0,0.0,0.0,0.0,0.0,0.0,0.0,0.0,0.0,0.0,0.0,0.0,0.0,0.0,0.0,0.0,0.0,0.0,0.0,0.0,0.0,0.0,0.0,0.0,0.0,0.0,0.0,0.0,0.0,0.0,0.0,0.0,0.0,0.0,0.0,0.0,0.0,0.0,0.0,0.0,0.0,0.0,0.0,0.0,0.0,0.0,0.0,0.0,0.0,0.0,0.0,0.0,0.0,0.0,0.0,0.0,0.0,0.0,0.0,0.0,0.0,0.0,0.0,0.0,0.0,0.0,0.0,0.0,0.0,0.0,0.0,0.0,0.0,0.0,0.0,0.0,0.0,0.0,0.0,0.0,0.0,0.0,2.2258,2.2819,2.3273,2.3509,2.3536,2.3536,2.3536,2.342,2.3188,2.2666,0.0,0.0,0.0,0.0,0.0,0.0,0.0,0.0,0.0,0.0,0.0,0.0,0.0,0.0,0.0,0.0,0.0,0.0,0.0,0.0,0.0,0.0,0.0,0.0,0.0,0.0,0.0,0.0,0.0,0.0,0.0,0.0,0.0,0.0,0.0,0.0,0.0,0.0,0.0,0.0,0.0,0.0,0.0,0.0,0.0,0.0,0.0,0.0,0.0,0.0,0.0,0.0,0.0,0.0,0.0,0.0,0.0,0.0,0.0,0.0,0.0,0.0,0.0,0.0,0.0,0.0,0.0,0.0,0.0,0.0,0.0,0.0,0.0,0.0,0.0,0.0,0.0,0.0,0.0,0.0,0.0,0.0,0.0,0.0,0.0,0.0,0.0,0.0,0.0,0.0,0.0,0.0,0.0,0.0,0.0,0.0,0.0,0.0,0.0,0.0,0.0,0.0,2.2579,2.3126,2.3567,2.379,2.3803,2.3803,2.3803,2.3803,2.3603,2.3073,0.0,0.0,0.0,0.0,0.0,0.0,0.0,0.0,0.0,0.0,0.0,0.0,0.0,0.0,0.0,0.0,0.0,0.0,0.0,0.0,0.0,0.0,0.0,0.0,0.0,0.0,0.0,0.0,0.0,0.0,0.0,0.0,0.0,0.0,0.0,0.0,0.0,0.0,0.0,0.0,0.0,0.0,0.0,0.0,0.0,0.0,0.0,0.0,0.0,0.0,0.0,0.0,0.0,0.0,0.0,0.0,0.0,0.0,0.0,0.0,0.0,0.0,0.0,0.0,0.0,0.0,0.0,0.0,0.0,0.0,0.0,0.0,0.0,0.0,0.0,0.0,0.0,0.0,0.0,0.0,0.0,0.0,0.0,0.0,0.0,0.0,0.0,0.0,0.0,0.0,0.0,0.0,0.0,0.0,0.0,0.0,0.0,0.0,0.0,0.0,0.0,0.0,2.2934,2.3469,2.3857,2.3884,2.3884,2.3884,2.3884,2.3884,2.3728,2.3385,0.0,0.0,0.0,0.0,0.0,0.0,0.0,0.0,0.0,0.0,0.0,0.0,0.0,0.0,0.0,0.0,0.0,0.0,0.0,0.0,0.0,0.0,0.0,0.0,0.0,0.0,0.0,0.0,0.0,0.0,0.0,0.0,0.0,0.0,0.0,0.0,0.0,0.0,0.0,0.0,0.0,0.0,0.0,0.0,0.0,0.0,0.0,0.0,0.0,0.0,0.0,0.0,0.0,0.0,0.0,0.0,0.0,0.0,0.0,0.0,2.3445,2.2972,0.0,0.0,0.0,0.0,0.0,0.0,0.0,0.0,0.0,0.0,0.0,0.0,0.0,0.0,0.0,0.0,0.0,0.0,0.0,0.0,0.0,0.0,0.0,0.0,0.0,0.0,0.0,0.0,0.0,0.0,0.0,0.0,0.0,0.0,0.0,0.0,0.0,0.0,0.0,0.0,2.3193,2.3741,2.4195,2.4422,2.4412,2.4412,2.4412,2.4412,2.4329,2.4035,2.3777,0.0,0.0,0.0,0.0,0.0,0.0,0.0,0.0,0.0,0.0,0.0,0.0,0.0,0.0,0.0,0.0,0.0,0.0,0.0,0.0,0.0,0.0,0.0,0.0,0.0,0.0,0.0,0.0,0.0,0.0,0.0,0.0,0.0,0.0,0.0,0.0,0.0,0.0,0.0,0.0,0.0,0.0,0.0,0.0,0.0,0.0,0.0,0.0,0.0,0.0,0.0,0.0,0.0,0.0,0.0,0.0,0.0,0.0,0.0,2.3153,2.2712,0.0,0.0,0.0,0.0,0.0,0.0,0.0,0.0,0.0,0.0,0.0,0.0,0.0,0.0,0.0,0.0,0.0,0.0,0.0,0.0,0.0,0.0,0.0,0.0,0.0,0.0,0.0,0.0,0.0,0.0,0.0,0.0,0.0,0.0,0.0,0.0,0.0,0.0,0.0,0.0,2.3714,2.4142,2.4439,2.4586,2.4599,2.4599,2.4599,2.4599,2.4532,2.4386,2.4142,0.0,0.0,0.0,0.0,0.0,0.0,0.0,0.0,0.0,0.0,0.0,0.0,0.0,0.0,0.0,0.0,0.0,0.0,0.0,0.0,0.0,0.0,0.0,0.0,0.0,0.0,0.0,0.0,0.0,0.0,0.0,0.0,0.0,0.0,0.0,0.0,0.0,0.0,0.0,0.0,0.0,0.0,0.0,0.0,0.0,0.0,0.0,0.0,0.0,0.0,0.0,0.0,0.0,2.4746,2.4746,2.4746,2.4746,2.4746,2.4693,2.3701,2.3394,2.3594,2.3086,0.0,0.0,0.0,0.0,0.0,0.0,0.0,0.0,0.0,0.0,0.0,0.0,0.0,0.0,0.0,0.0,0.0,0.0,0.0,0.0,0.0,0.0,2.3679,2.3679,2.3888,2.3977,2.3469,0.0,0.0,0.0,0.0,0.0,0.0,0.0,0.0,0.0,0.0,0.0,2.4329,2.4572,2.4746,2.4746,2.4746,2.4746,2.4746,2.4746,2.4746,2.4746,2.4569,2.4436,0.0,0.0,0.0,0.0,0.0,0.0,0.0,0.0,0.0,0.0,0.0,0.0,0.0,0.0,0.0,0.0,0.0,0.0,0.0,0.0,0.0,0.0,0.0,0.0,0.0,0.0,0.0,0.0,0.0,0.0,0.0,0.0,2.4075,2.4332,0.0,0.0,0.0,0.0,0.0,0.0,0.0,0.0,0.0,0.0,0.0,0.0,0.0,2.4703,2.4957,2.4997,2.5144,2.5398,2.5398,2.5398,2.5398,2.5398,2.5398,2.5371,2.497,0.0,2.4836,2.477,0.0,0.0,0.0,0.0,0.0,0.0,0.0,0.0,0.0,0.0,0.0,0.0,0.0,0.0,0.0,0.0,0.0,0.0,0.0,0.0,0.0,0.0,2.5224,2.5224,2.5251,2.5264,2.5184,2.4369,2.375,2.3928,2.4132,2.4212,0.0,0.0,0.0,0.0,0.0,0.0,2.4994,2.5224,2.5398,2.5398,2.5398,2.5398,2.5398,2.5398,2.5398,2.5398,2.5358,2.5344,2.5344,2.5104,0.0,0.0,0.0,0.0,0.0,0.0,0.0,0.0,0.0,0.0,0.0,0.0,0.0,0.0,0.0,0.0,0.0,0.0,0.0,0.0,0.0,0.0,0.0,0.0,0.0,0.0,0.0,0.0,0.0,2.4262,2.4556,2.485,2.4706,2.4546,0.0,0.0,0.0,0.0,0.0,0.0,0.0,0.0,0.0,2.5813,2.5826,2.6012,2.6346,2.6346,2.6412,2.6493,2.6493,2.6493,2.6493,2.6493,2.6493,2.6493,2.6399,2.6346,2.6279,2.5462,2.5115,2.505,0.0,0.0,0.0,0.0,2.4412,2.4426,2.4559,2.4836,2.5101,2.493,0.0,0.0,0.0,0.0,0.0,0.0,0.0,2.4639,2.4836,2.5077,2.5304,2.5478,2.5518,2.5558,2.5732,2.5396,2.4981,2.4743,2.4796,2.4796,2.4502,2.4519,0.0,0.0,0.0,2.5144,2.5304,2.5438,2.5518,2.5518,2.5518,2.5518,2.5518,2.5518,2.5518,2.5518,2.5518,2.5518,2.5518,2.5384,2.5184,0.0,0.0,0.0,0.0,0.0,0.0,0.0,0.0,0.0,0.0,0.0,0.0,0.0,0.0,0.0,0.0,0.0,0.0,0.0,0.0,0.0,0.0,0.0,0.0,0.0,0.0,0.0,0.0,2.485,2.5197,2.5491,2.5398,2.5277,0.0,0.0,0.0,0.0,0.0,0.0,2.6185,2.6212,2.6413,2.6921,2.6934,2.7041,2.7309,2.7309,2.7309,2.7309,2.7309,2.7309,2.7309,2.7309,2.7309,2.7309,2.7309,2.7309,2.7229,2.6131,2.5677,2.5663,2.5558,2.5384,2.5159,2.5159,2.5159,2.5173,2.5239,2.5451,2.5677,2.5677,2.5677,2.5663,2.5545,0.0,0.0,0.0,0.0,2.5213,2.5464,2.5585,2.5692,2.5905,2.5959,2.6026,2.6279,2.6332,2.6158,2.5569,2.5411,2.5317,2.5024,2.5037,0.0,2.5315,2.5409,2.5491,2.5705,2.5732,2.5732,2.5732,2.5732,2.5732,2.5732,2.5732,2.5732,2.5732,2.5732,2.5732,2.5732,2.5732,2.5598,2.5342,0.0,0.0,0.0,0.0,0.0,0.0,0.0,0.0,0.0,0.0,0.0,0.0,0.0,0.0,0.0,0.0,0.0,0.0,0.0,0.0,0.0,0.0,0.0,0.0,0.0,0.0,0.0,0.0,0.0,2.6694,2.6974,0.0,0.0,0.0,0.0,2.6319,2.6319,2.6453,2.672,2.6774,2.6921,2.7269,2.7282,2.7296,2.7309,2.7309,2.7309,2.7309,2.7309,2.7309,2.7309,2.7309,2.7309,2.7309,2.7309,2.7309,2.7296,2.7229,2.7202,2.7162,2.6841,2.668,2.6667,2.6667,2.6667,2.6707,2.7028,2.7188,2.7202,2.7202,2.7202,2.7148,2.6814,2.668,0.0,0.0,2.6493,2.668,2.6694,2.6947,2.7202,2.7215,2.7215,2.7229,2.7242,2.7242,2.7068,2.644,2.6319,2.6265,2.5984,0.0,2.6213,2.5998,2.6185,2.6333,2.6346,2.6346,2.6346,2.6346,2.6346,2.6346,2.6346,2.6346,2.6346,2.6346,2.6346,2.6346,2.6346,2.6346,2.6252,2.5957,2.5638,0.0,0.0,0.0,0.0,0.0,0.0,0.0,0.0,0.0,0.0,0.0,0.0,0.0,0.0,0.0,0.0,0.0,0.0,0.0,0.0,0.0,0.0,0.0,0.0,0.0,0.0,0.0,0.0,2.6787,2.6921,0.0,2.6787,2.6787,2.6774,2.668,2.6841,2.7081,2.7375,2.7388,2.7522,2.7857,2.7871,2.7871,2.7871,2.7871,2.7871,2.7871,2.7871,2.7871,2.7871,2.7871,2.7871,2.7871,2.7871,2.7871,2.7871,2.7871,2.7643,2.7296,2.7188,2.7108,2.7108,2.7108,2.7108,2.7121,2.7269,2.7309,2.7309,2.7309,2.7309,2.7282,2.7134,2.7108,2.7081,2.7028,2.7068,2.7108,2.7108,2.7229,2.7309,2.7309,2.7309,2.7309,2.7309,2.7309,2.7242,2.7041,2.6988,2.6961,2.6854,2.6921,2.6961,2.6854,2.6921,2.6988,2.6988,2.6988,2.6988,2.6988,2.6988,2.6988,2.6988,2.6988,2.6988,2.6988,2.6988,2.6988,2.6988,2.6988,2.6814,2.652,2.6413,2.6026,0.0,0.0,0.0,0.0,0.0,0.0,0.0,0.0,0.0,0.0,0.0,0.0,0.0,0.0,0.0,0.0,0.0,0.0,0.0,0.0,0.0,0.0,0.0,0.0,0.0,2.6587,2.6907,2.7094,2.7201,2.7268,2.7268,2.7268,2.7268,2.7268,2.7496,2.7684,2.7843,2.7884,2.7978,2.8179,2.8179,2.8179,2.8179,2.8179,2.8179,2.8179,2.8179,2.8179,2.8179,2.8179,2.8179,2.8179,2.8179,2.8179,2.8179,2.8179,2.7951,2.7603,2.7603,2.7603,2.7603,2.7603,2.7603,2.7603,2.7603,2.7603,2.7603,2.7603,2.7603,2.7603,2.7603,2.7603,2.7603,2.7603,2.7603,2.7603,2.7603,2.7603,2.7603,2.7603,2.7603,2.7603,2.7603,2.7603,2.7603,2.7603,2.7443,2.7269,2.7134,2.7121,2.7081,2.7028,2.7015,2.7015,2.7015,2.7095,2.7121,2.7121,2.7242,2.7309,2.7309,2.7215,2.7202,2.7296,2.7175,2.7161,2.7309,2.7215,2.7028,2.6787,2.672,2.644,2.5959,0.0,0.0,0.0,0.0,0.0,0.0,0.0,0.0,0.0,0.0,0.0,0.0,0.0,0.0,0.0,0.0,0.0,0.0,0.0,0.0,0.0,0.0,0.0,2.6854,2.7335,2.7696,2.7709,2.8005,2.8179,2.8179,2.8179,2.8179,2.8179,2.8179,2.8179,2.8179,2.8179,2.8192,2.8205,2.8205,2.8205,2.8219,2.8219,2.8219,2.8219,2.8219,2.8219,2.8219,2.8219,2.8219,2.8219,2.8219,2.8219,2.8219,2.8219,2.8205,2.8205,2.8192,2.8179,2.8179,2.8179,2.8179,2.8179,2.8179,2.8179,2.8179,2.8179,2.8179,2.8179,2.8179,2.8179,2.8179,2.8179,2.8179,2.8179,2.8179,2.8179,2.8179,2.8179,2.8179,2.8179,2.8179,2.8179,2.8179,2.8179,2.7724,2.7201,2.6907,2.6827,2.6774,2.6493,2.644,0.0,2.644,2.6694,2.6854,2.6814,2.7108,2.7322,2.7322,2.7028,2.6987,2.7322,2.7028,2.6987,2.7322,2.7014,2.6854,2.6814,2.656,2.6547,2.6787,0.0,0.0,0.0,0.0,0.0,0.0,0.0,0.0,0.0,0.0,0.0,0.0,0.0,0.0,0.0,0.0,0.0,0.0,0.0,0.0,0.0,2.7321,2.7455,2.7455,2.7602,2.7776,2.8031,2.8138,2.8179,2.8179,2.8179,2.8179,2.8179,2.8179,2.8179,2.8179,2.8179,2.8286,2.847,2.8484,2.8577,2.8791,2.8791,2.8791,2.8791,2.8791,2.8791,2.8791,2.8791,2.8791,2.8791,2.8791,2.8791,2.8791,2.8791,2.8671,2.8457,2.8272,2.8179,2.8179,2.8179,2.8179,2.8179,2.8179,2.8179,2.8179,2.8179,2.8179,2.8179,2.8179,2.8179,2.8179,2.8179,2.8179,2.8179,2.8179,2.8179,2.8179,2.8179,2.8179,2.8179,2.8179,2.8179,2.8179,2.8179,2.8058,2.7911,2.7831,2.7817,2.7791,2.771,2.7697,2.7697,2.7697,2.7777,2.7737,2.7482,2.7764,2.7857,2.7602,2.7737,2.7857,2.7938,2.7871,2.7857,2.7938,2.7871,2.7724,2.7455,2.6961,2.6747,0.0,0.0,0.0,0.0,0.0,0.0,0.0,0.0,0.0,0.0,0.0,0.0,0.0,0.0,0.0,0.0,0.0,0.0,0.0,0.0,0.0,0.0,2.7509,2.7749,2.7911,2.7924,2.7991,2.8165,2.8179,2.8179,2.8179,2.8179,2.8179,2.8179,2.8312,2.8379,2.8379,2.8457,2.8604,2.8735,2.8911,2.9058,2.9219,2.9308,2.9362,2.9362,2.9362,2.9362,2.9362,2.9362,2.9362,2.9362,2.9285,2.9219,2.9219,2.9041,2.8895,2.8764,0.0,0.0,0.0,0.0,2.8179,2.8179,2.8179,2.8179,2.8179,2.8179,2.8179,2.8179,2.8179,2.8179,2.8219,2.8339,2.8379,2.8406,2.8526,2.8524,2.8524,2.8524,2.8524,2.8524,2.8524,2.8524,2.8524,2.8524,2.8524,0.0,2.8524,2.8245,2.7951,2.7831,2.7817,2.7817,2.7817,2.7924,2.7938,2.7722,2.8005,2.8112,2.7938,2.7965,0.0,0.0,0.0,2.8005,2.8005,2.8005,0.0,0.0,0.0,2.7068,2.7188,2.7028,0.0,0.0,2.6573,2.6266,0.0,0.0,0.0,0.0,0.0,0.0,0.0,0.0,0.0,0.0,0.0,0.0,0.0,0.0,0.0,0.0,2.7589,2.7896,2.8205,2.8259,2.8259,2.8192,2.8179,2.8205,2.8232,2.8232,2.8245,2.8286,2.8497,2.8671,2.8711,2.8951,0.0,0.0,0.0,2.9637,2.9633,2.9887,3.002,3.002,3.002,3.002,3.002,3.002,3.002,3.0007,2.974,2.9633,2.9606,2.9352,2.9175,2.9108,2.8791,2.8484,2.8286,2.8286,2.8286,2.8286,2.8286,0.0,0.0,2.8286,2.8286,2.8286,2.8286,2.8286,2.8339,2.8577,2.8657,2.8711,2.8921,2.9001,2.9001,2.9001,2.9001,2.9001,2.9001,2.9001,2.9001,2.9001,2.9001,2.9001,2.9001,2.8377,2.7762,2.755,2.751,2.751,2.751,2.7696,2.7843,2.7802,2.8112,0.0,2.8232,2.7989,2.7949,2.8219,2.7951,2.7749,2.7749,2.7749,2.7629,2.7416,2.7403,2.7536,2.7749,2.7749,2.7924,2.8165,2.7108,2.672,0.0,0.0,0.0,0.0,0.0,0.0,0.0,0.0,0.0,0.0,0.0,0.0,0.0,0.0,0.0,2.7602,2.807,2.8457,2.8511,2.8724,2.8684,2.8245,2.8179,2.8286,2.8497,2.8524,2.8617,2.8845,2.8881,2.9058,2.9299,2.9366,2.9619,3.0087,3.0199,3.0346,3.0541,3.0595,3.0621,3.0621,3.0621,0.0,3.0621,3.0621,3.0621,3.0621,3.0568,3.0541,3.0528,3.0474,3.0314,3.0065,2.9259,2.8868,2.8871,2.8871,2.8871,2.8871,2.8871,2.8871,2.8871,2.8871,2.8871,2.8871,2.8871,2.8871,0.0,2.8895,2.8908,2.8921,2.8988,2.9001,2.9001,2.9001,2.9001,2.9001,2.9001,2.9001,2.9001,2.9001,2.9001,2.9001,2.9001,2.8855,2.8721,2.8668,2.8655,2.8655,2.8655,2.8708,2.8655,2.8457,2.8698,2.8764,2.8537,2.8684,2.8655,2.8524,2.8272,2.8098,2.8098,2.8098,2.8072,2.8018,2.8018,2.8045,2.8098,2.8098,2.8125,2.8179,2.7951,2.7871,0.0,0.0,0.0,0.0,0.0,0.0,0.0,0.0,0.0,0.0,0.0,2.7563,2.7724,0.0,2.815,2.815,2.8524,2.8775,2.8775,2.8908,2.8881,2.8631,2.8591,2.8657,2.8804,2.8951,2.9112,2.9245,2.9539,2.9766,2.9958,3.006,3.0274,3.0568,3.0715,3.0862,3.1009,3.1303,3.145,3.145,3.1597,3.1711,3.1711,3.1711,3.1583,3.1436,3.1289,3.1142,3.0996,3.0849,3.0702,3.0528,3.0087,2.974,2.9428,2.9428,2.9428,2.9428,2.9428,2.9428,2.9428,2.9428,2.9428,2.9428,2.9428,2.9428,2.9513,2.9659,2.97,2.9726,2.9887,2.9913,2.9913,2.9913,2.9913,2.9913,2.9913,2.9913,2.9913,2.9913,2.9913,2.9913,2.9913,2.9913,2.9713,2.9081,2.9001,2.9001,2.9001,2.9001,2.8948,2.8788,2.8908,2.8935,2.8788,2.8908,2.8935,2.8788,2.8671,2.8591,2.8591,2.8591,2.8591,2.8591,2.8591,2.8591,2.8591,2.8591,2.8591,2.8591,2.8591,2.8511,0.0,0.0,0.0,0.0,0.0,0.0,0.0,2.7563,2.7615,2.7896,2.7963,2.803,2.8312,2.8524,2.8684,2.8684,2.8895,2.9081,2.9081,2.9175,2.9255,2.9255,2.9148,2.9108,2.9161,2.9472,2.9717,2.974,3.0226,3.052,3.0574,3.0808,3.0996,3.1049,3.133,3.1476,3.1476,3.1957,3.2185,3.2185,3.2474,3.2594,3.2594,3.2594,3.246,3.2171,3.1992,3.1704,3.1463,3.1236,3.1129,3.1129,3.1129,3.0849,3.0394,3.0167,3.0087,3.0087,3.0087,3.0087,3.0087,3.0087,3.0087,3.0087,3.0087,3.0087,3.014,3.0426,3.0493,3.0547,3.0728,3.0795,3.0795,3.0795,3.0795,3.0795,3.0795,3.0795,3.0795,3.0795,3.0795,3.0795,3.0795,3.0795,3.0474,2.9482,2.9335,2.9335,2.9335,2.9335,2.9335,2.9335,2.9335,2.9335,2.9335,2.9282,2.9255,2.9255,2.9202,2.9161,2.9161,2.9161,2.9161,2.9161,2.9161,2.9161,2.9161,2.9161,2.9161,2.9161,2.9228,2.9112,2.7269,2.7282,2.7362,2.7589,2.7629,2.7749,0.0,2.8457,2.8537,2.8788,2.8841,2.8855,2.8895,2.8921,2.8948,2.8948,2.9245,2.9432,2.9432,2.9931,3.0253,3.0253,2.9753,2.9539,2.9793,3.0087,3.0413,3.0621,3.0702,3.0862,3.1116,3.141,3.169,3.1944,3.2286,3.2447,3.2447,3.2514,3.2541,3.2541,3.2581,3.2594,3.2594,3.2594,3.2581,3.2541,3.2514,3.2474,3.2447,3.2407,3.2393,3.2393,3.2393,3.2353,3.2179,3.1076,3.0688,3.0688,3.0688,3.0688,3.0688,3.0688,3.0688,3.0688,3.0688,3.0688,3.0702,3.0728,3.0742,3.0755,3.0782,3.0795,3.0795,3.0795,3.0795,3.0795,3.0795,3.0795,3.0795,3.0795,3.0795,3.0795,3.0795,3.0795,3.0755,3.0621,3.0595,3.0595,3.0595,3.0595,3.0595,3.0595,3.0595,3.0595,3.0595,3.0368,3.0253,3.0253,2.9967,2.982,2.982,2.982,2.982,2.982,2.982,2.982,2.982,2.982,2.982,2.982,3.0087,2.9958,2.8003,2.7951,2.7924,2.8364,2.835,2.8337,2.8721,2.8815,2.8895,2.9232,2.9299,2.9352,2.9513,2.9508,2.9606,2.978,2.9913,3.0092,3.0221,3.0461,3.0608,3.0608,3.0541,3.0474,3.0434,3.0688,3.0982,3.1276,3.1463,3.169,3.1984,3.2152,3.2286,3.2407,3.2527,3.2594,3.2594,3.2755,3.2848,3.2848,3.2973,3.3053,3.3053,3.3053,3.2959,3.2835,3.2661,3.2594,3.2594,3.2594,3.2594,3.2594,3.2594,3.2594,3.2541,3.2045,3.1858,3.1831,3.161,3.1557,3.153,3.1356,3.1303,3.133,3.1503,3.1557,3.1597,3.1805,3.1858,3.1858,3.1858,3.1858,3.1858,3.1858,3.1858,3.1858,3.1858,3.1858,3.1858,3.1858,3.1858,3.1858,3.1858,3.1858,3.1858,3.1858,3.1236,3.0795,3.0795,3.0795,3.0795,3.0795,3.0795,3.0795,3.0795,3.0675,3.0608,3.0608,3.0488,3.0421,3.0421,3.0421,3.0421,3.0421,3.0421,3.0421,3.0421,3.0421,3.0421,3.0434,3.0728,3.0822,2.8524,2.8444,2.846,2.9018,2.9005,2.8925,2.9175,2.9242,2.9322,2.9659,2.9771,2.982,3.01,3.0154,3.0234,3.0493,3.052,3.06,3.0768,3.0862,3.0915,3.0915,3.1236,3.1383,3.1169,3.1343,3.1557,3.177,3.2064,3.2318,3.2581,3.2674,3.2714,3.2714,3.2795,3.2835,3.2835,3.2986,3.3093,3.3106,3.3307,3.3414,3.3414,3.3414,3.3293,3.3093,3.2929,3.2835,3.2835,3.2835,3.2835,3.2835,3.2835,3.2835,3.2835,3.2835,3.2728,3.2567,3.2291,3.2225,3.2185,3.2032,3.1965,3.1992,3.2158,3.2225,3.2265,3.2541,3.2594,3.2594,3.2594,3.2594,3.2594,3.2594,3.2594,3.2594,3.2594,3.2594,3.2594,3.2594,3.2594,3.2594,3.2594,3.2594,3.2594,3.2594,3.1872,3.1323,3.1323,3.1323,3.1323,3.1323,3.1323,3.1323,3.1323,3.1323,3.1323,3.1323,3.1323,3.1323,3.1323,3.1323,3.1323,3.1323,3.1323,3.1323,3.1323,3.1323,3.1323,3.1276,3.149,3.1704,2.8524,2.8604,2.8738,2.9325,2.9459,2.9539,2.982,2.9887,2.998,3.0319,3.0386,3.0467,3.0715,3.0768,3.0768,3.0782,3.0782,3.0782,3.0795,3.1036,3.1209,3.1209,3.1717,3.2078,3.2064,3.2064,3.2078,3.2091,3.242,3.2581,3.2594,3.2862,3.3009,3.3009,3.324,3.3387,3.3387,3.3387,3.34,3.34,3.3414,3.3414,3.3414,3.3414,3.3414,3.34,3.3387,3.3387,3.3387,3.3387,3.3387,3.3387,3.3387,3.3387,3.3387,3.3387,3.3026,3.2594,3.2581,3.2581,3.2581,3.2567,3.2567,3.2567,3.2581,3.2581,3.2581,3.2594,3.2594,3.2594,3.2594,3.2594,3.2594,3.2594,3.2594,3.2594,3.2594,3.2594,3.2594,3.2594,3.2594,3.2594,3.2594,3.2594,3.2594,3.2594,3.2567,3.2541,3.2541,3.2541,3.2541,3.2541,3.2541,3.2541,3.2541,3.2541,3.2541,3.2541,3.2541,3.2541,3.2541,3.2541,3.2541,3.2541,3.2541,3.2541,3.2541,3.2541,3.2541,3.2541,3.2554,3.2554,2.9112,2.9192,2.9285,2.9673,2.9913,3.0132,3.0226,3.0354,3.0528,3.0621,3.0533,3.044,3.0533,3.0341,3.0341,3.0728,3.0795,3.0929,3.1316,3.1623,3.181,3.181,3.2158,3.2447,3.2447,3.2447,3.2527,3.2666,3.2822,3.2919,3.3106,3.3213,3.3267,3.3267,3.336,3.3414,3.3414,3.3414,3.3414,3.3414,3.3414,3.3414,3.3414,3.3414,3.3414,3.3414,3.3414,3.3414,3.3414,3.3414,3.3414,3.3414,3.3414,3.3414,3.3414,3.3414,3.3293,3.3093,3.2955,3.2888,3.2848,3.2661,3.2594,3.2634,3.2822,3.2888,3.2929,3.3066,3.312,3.312,3.312,3.312,3.312,3.312,3.312,3.312,3.312,3.312,3.312,3.312,3.312,3.312,3.312,3.312,3.312,3.312,3.2835,3.2594,3.2594,3.2594,3.2594,3.2594,3.2594,3.2594,3.2594,3.2594,3.2594,3.2594,3.2594,3.2594,3.2594,3.2594,3.2594,3.2594,3.2594,3.2594,3.2594,3.2594,3.2594,3.2594,3.2795,3.2888,2.9526,2.9633,2.974,3.0127,3.0368,3.056,3.056,3.0662,3.0795,3.0795,3.0648,3.056,3.056,3.0354,3.0381,3.0862,3.0942,3.1156,3.1744,3.1984,3.2144,3.2251,3.2567,3.2755,3.2755,3.2848,3.2942,3.2973,3.308,3.3213,3.34,3.3414,3.3414,3.3414,3.3414,3.3414,3.3414,3.3414,3.3414,3.3414,3.3414,3.3414,3.3414,3.3414,3.3414,3.3414,3.3414,3.3414,3.3414,3.3414,3.3414,3.3414,3.3414,3.3414,3.3414,3.3414,3.3414,3.3387,3.32,3.3133,3.3106,3.2919,3.2902,3.2942,3.308,3.3133,3.3173,3.336,3.3414,3.3414,3.3414,3.3414,3.3414,3.3414,3.3414,3.3414,3.3414,3.3414,3.3414,3.3414,3.3414,3.3414,3.3414,3.3414,3.3414,3.3414,3.3093,3.2902,3.2902,3.2902,3.2902,3.2902,3.2902,3.2902,3.2902,3.2902,3.2902,3.2902,3.2902,3.2902,3.2902,3.2902,3.2902,3.2902,3.2902,3.2902,3.2902,3.2902,3.2902,3.2915,3.3053,3.3133,2.9762,2.9967,3.01,3.0648,3.0808,3.0808,3.0808,3.0808,3.0808,3.0808,3.0795,3.0768,3.0768,3.0768,3.0862,3.1156,3.1162,3.1436,3.2024,3.2118,3.2238,3.2581,3.2875,3.3,3.3,3.3253,3.3293,3.3026,3.3253,3.3414,3.3414,3.3414,3.3414,3.3414,3.3414,3.3414,3.3414,3.3414,3.3414,3.3414,3.3414,3.3414,3.3414,3.3414,3.3414,3.3414,3.3414,3.3414,3.3414,3.3414,3.3414,3.3414,3.3414,3.3414,3.3414,3.3414,3.3414,3.3414,3.3414,3.3414,3.3414,3.3414,3.3414,3.3414,3.3414,3.3414,3.3414,3.3414,3.3414,3.3414,3.3414,3.3414,3.3414,3.3414,3.3414,3.3414,3.3414,3.3414,3.3414,3.3414,3.3414,3.3364,3.32,3.3314,3.3314,3.3,3.31,3.3263,3.3364,3.3263,3.32,3.32,3.305,3.3,3.3,3.3,3.305,3.32,3.32,3.325,3.3414,3.3414,3.3414,3.3414,3.3414,3.3414,3.3414,3.3414,3.3414,3.3414,3.3414,3.3414,3.0408,3.0568,3.0608,3.0755,3.0955,3.1116,3.1116,3.1116,3.1116,3.1116,3.0768,3.052,3.052,3.052,3.0614,3.0862,3.1089,3.1436,3.2024,3.234,3.2594,3.2888,3.312,3.3293,3.3293,3.3374,3.3374,3.3307,3.3374,3.3414,3.3414,3.3414,3.3414,3.3414,3.3414,3.3414,3.3414,3.3414,3.3414,3.3414,3.3414,3.3414,3.3414,3.3414,3.3414,3.3414,3.3414,3.3414,3.3414,3.3414,3.3414,3.3414,3.3414,3.3414,3.3414,3.3414,3.3414,3.3414,3.3414,3.3414,3.3414,3.3414,3.3414,3.3414,3.3414,3.3414,3.3414,3.3414,3.3414,3.3414,3.3414,3.3414,3.3414,3.3414,3.3414,3.3414,3.3414,3.3414,3.3414,3.3414,3.3414,3.2749,3.0697,3.2033,3.202,2.7924,2.9003,3.1113,3.315,3.1617,3.0343,3.0343,2.8495,2.7312,2.7312,2.7312,2.8178,3.0242,3.0343,3.1265,3.3314,3.3414,3.3414,3.3414,3.3414,3.3414,3.3414,3.3414,3.3414,3.3414,3.3414,3.3414,3.0862,3.0982,3.1009,3.1142,3.1303,3.1383,3.1203,3.1176,3.1156,3.0902,3.0688,3.06,3.06,3.06,3.0688,3.1116,3.1316,3.1623,3.2211,3.2594,3.2888,3.3133,3.332,3.3414,3.3414,3.3414,3.3414,3.3414,3.3414,3.3414,3.3414,3.3414,3.3414,3.3414,3.3414,3.3414,3.3414,3.3414,3.3414,3.3414,3.3414,3.3414,3.3364,3.2133,3.1617,3.1517,3.0331,2.9814,2.9814,2.9814,2.9814,2.9814,2.9814,2.9814,2.9814,2.9814,2.9814,2.9814,2.9814,2.9814,3.018,3.2635,3.3414,3.3414,3.3414,3.3414,3.3414,3.3414,3.3414,3.3414,3.3414,3.3414,3.31,3.1869,3.2535,3.2749,3.0331,3.0748,3.1252,3.0028,2.9814,2.9307,2.7771,2.88,2.8783,2.5748,2.6593,2.8177,2.9778,2.8518,2.7516,2.7516,2.6137,2.5215,2.5215,2.5215,2.5881,2.7425,2.7516,2.819,2.9712,2.9814,2.9814,2.9814,2.9814,3.0382,3.1617,3.1617,3.2234,3.3414,3.3414,3.3414,3.1209,3.1289,3.1343,3.161,3.1711,3.1597,3.1289,3.1176,3.1076,3.0574,3.0667,3.0808,3.0849,3.0849,3.1049,3.1684,3.173,3.1979,3.2567,3.2875,3.3093,3.3374,3.3414,3.3414,3.3414,3.3414,3.3414,3.3414,3.3414,3.3414,3.3414,3.3414,3.3427,3.3467,3.3467,3.3494,3.3534,3.3118,3.2954,3.2954,3.2512,3.2336,3.2285,2.9849,2.876,2.8596,2.624,2.5215,2.5215,2.5215,2.5215,2.5215,2.5215,2.5215,2.5215,2.5215,2.5235,2.5255,2.5255,2.5224,2.6005,3.076,3.2334,3.2334,3.2334,3.2334,3.2334,3.2334,3.2334,3.2334,3.2334,3.2334,3.1731,2.9354,3.0595,3.1062,2.6272,2.7155,2.8087,2.5717,2.5244,2.5141,2.478,2.4986,2.5056,2.4454,2.463,2.4803,2.4524,2.4653,2.4739,2.4739,2.4377,2.4161,2.4161,2.4142,2.4277,2.4638,2.4669,2.4804,2.5163,2.5215,2.5215,2.5215,2.5215,2.6393,2.876,2.876,2.9977,3.2334,3.2725,3.2701,3.1517,3.1597,3.161,3.1711,3.1711,3.1597,3.1289,3.1176,3.1129,3.0795,3.0755,3.0862,3.1102,3.1156,3.1343,3.1931,3.2024,3.2225,3.2875,3.2946,3.3093,3.3374,3.3414,3.3414,3.3414,3.3414,3.3414,3.3414,3.3414,3.3414,3.3414,3.3414,3.3534,3.3801,3.3801,3.3921,3.4162,3.1786,3.0574,3.0562,2.8006,2.6813,2.6761,2.617,2.5932,2.5881,2.542,2.5215,2.5215,2.5215,2.5215,2.5215,2.5215,2.5215,2.5215,2.5215,2.5274,2.5364,2.5364,2.5442,2.5637,2.6355,2.6649,2.6649,2.6649,2.6649,2.6649,2.6649,2.6649,2.6649,2.6649,2.6649,2.6538,2.6151,2.6451,2.6555,2.571,2.5908,2.6117,2.5593,2.5541,2.4806,2.2557,2.4026,2.3983,1.9494,2.0705,2.1353,1.9111,2.0751,2.2134,2.2134,2.0088,1.8769,1.8769,1.8644,1.9551,2.1838,2.1856,2.2855,2.5112,2.5215,2.5215,2.5215,2.5215,2.542,2.5932,2.5932,2.6137,2.67,2.9224,2.9111,3.1436,3.1557,3.1711,3.1711,3.1711,3.1597,3.1289,3.1176,3.1142,3.0849,3.0915,3.1102,3.1396,3.145,3.1597,3.2038,3.2238,3.2474,3.2768,3.3013,3.3253,3.3387,3.3414,3.3414,3.3414,3.3561,3.3654,3.3654,3.3801,3.3814,3.3668,3.3801,3.3273,3.189,3.189,3.1218,2.977,2.839,2.7699,2.7699,2.6222,2.5491,2.5438,2.398,2.3262,2.321,2.175,2.1127,2.1127,2.1127,2.1127,2.1127,2.1127,2.1127,2.1127,2.1127,2.1177,2.1252,2.1252,2.1258,2.1308,2.1186,2.3053,2.5392,2.5392,2.5392,2.5392,2.5392,2.5392,2.5392,2.5392,2.5392,2.5058,2.3697,2.2302,2.1648,2.3158,2.2336,2.1333,2.1333,2.1333,2.0914,1.9593,2.0433,2.0465,1.79,1.8604,1.9012,1.78,1.8835,1.9568,1.9401,1.822,1.7419,1.7419,1.7351,1.7892,1.9205,1.919,1.9772,2.1074,2.1127,2.1127,2.1127,2.1127,2.1855,2.3262,2.3262,2.3994,2.5454,2.6911,2.6859,3.137,3.149,3.1711,3.1711,3.1711,3.1597,3.1289,3.1276,3.1236,3.0942,3.1116,3.141,3.1704,3.1764,3.1831,3.2144,3.2393,3.2541,3.2674,3.3026,3.3347,3.34,3.3414,3.344,3.3507,3.3748,3.3908,3.3975,3.3664,3.333,3.3095,3.3239,3.2064,2.9253,2.9149,2.807,2.5791,2.5165,2.4847,2.4847,2.4215,2.3877,2.3824,2.1616,2.0594,2.0487,1.832,1.7419,1.7419,1.7419,1.7419,1.7419,1.7419,1.7419,1.7419,1.7419,1.7439,1.7412,1.7412,1.7487,1.7514,1.7514,2.039,2.3865,2.3865,2.3865,2.3865,2.3865,2.3865,2.3865,2.3865,2.3865,2.3291,2.1169,1.9038,1.8103,2.0284,1.9007,1.7514,1.7514,1.7514,1.7514,1.7514,1.7514,1.7555,1.7629,1.7649,1.7738,1.7902,1.7915,1.7772,1.7541,1.7514,1.7514,1.7514,1.7487,1.7412,1.7412,1.7439,1.7419,1.7419,1.7419,1.7419,1.7419,1.7419,1.8481,2.0594,2.0594,2.1706,2.3865,2.4548,2.4514,3.1557,3.1698,3.1711,3.1711,3.1711,3.1597,3.1289,3.1436,3.1543,3.1249,3.1423,3.1717,3.2011,3.1851,3.1898,3.246,3.2305,3.2332,3.2915,3.2986,3.312,3.3374,3.3414,3.3521,3.3814,3.3868,3.4002,3.4255,3.2095,3.0632,3.0371,3.0382,2.9183,2.6538,2.6431,2.6426,2.6404,2.3828,2.2487,2.2487,1.9681,1.8324,1.8317,1.796,1.7789,1.7735,1.7527,1.7419,1.7419,1.7419,1.7419,1.7419,1.7419,1.7419,1.7419,1.7419,1.7453,1.7575,1.7575,1.7717,1.7826,1.7826,1.8018,1.8166,1.8166,1.8166,1.8166,1.8166,1.8166,1.8166,1.8166,1.8166,1.8147,1.7969,1.7889,1.7943,1.8205,1.8033,1.7826,1.7826,1.7826,1.7826,1.7826,1.7826,1.7881,1.7846,1.7846,1.7902,1.7915,1.7915,1.7902,1.7881,1.7826,1.7826,1.7826,1.7704,1.7575,1.7575,1.7446,1.7419,1.7419,1.7419,1.7419,1.7419,1.7419,1.7527,1.7789,1.7789,1.7897,1.822,2.1024,2.0889,3.1156,3.1396,3.1711,3.1711,3.1711,3.1684,3.1517,3.1583,3.1684,3.1517,3.1583,3.1751,3.1824,3.1744,3.1791,3.2032,3.2064,3.2251,3.2714,3.2915,3.3093,3.3374,3.3414,3.3534,3.3855,3.2468,3.1002,2.9713,2.8646,2.7268,2.5419,2.696,2.6628,2.3819,2.3765,2.2996,2.1343,2.02,1.961,1.961,1.8397,1.7772,1.7772,1.7724,1.7684,1.7684,1.7684,1.7684,1.7684,1.7684,1.7684,1.7684,1.7684,1.7684,1.7684,1.7684,1.7724,1.7772,1.7772,1.7812,1.7915,1.7915,1.7827,1.7684,1.7684,1.7684,1.7684,1.7684,1.7684,1.7684,1.7684,1.7684,1.7704,1.7758,1.7826,1.7915,1.7915,1.7915,1.7915,1.7915,1.7915,1.7915,1.7915,1.7915,1.7915,1.7915,1.7915,1.7915,1.7915,1.7915,1.7915,1.7915,1.7915,1.7915,1.7915,1.7812,1.7772,1.7772,1.7724,1.7684,1.7684,1.7684,1.7684,1.7684,1.7684,1.7684,1.7684,1.7684,1.7684,1.7738,1.8984,1.8911,3.0929,3.1223,3.1557,3.1698,3.1644,3.1557,3.1698,3.1597,3.1557,3.1698,3.1711,3.1711,3.1711,3.1711,3.1711,3.1711,3.1837,3.2078,3.242,3.2714,3.2933,3.3133,3.2594,3.2299,3.2596,3.0382,2.7951,2.5428,2.5231,2.3992,2.1077,2.2857,2.302,2.1015,2.0905,1.994,1.7922,1.7915,1.7915,1.7915,1.7915,1.7915,1.7915,1.7915,1.7915,1.7915,1.7915,1.7915,1.7915,1.7915,1.7915,1.7915,1.7915,1.7915,1.7915,1.7915,1.7915,1.7915,1.7915,1.7915,1.7915,1.7915,1.7915,1.7915,1.7915,1.7915,1.7915,1.7915,1.7915,1.7915,1.7915,1.7915,1.7915,1.7915,1.7915,1.7915,1.7915,1.7915,1.7915,1.7915,1.7915,1.7915,1.7915,1.7915,1.7915,1.7915,1.7915,1.7915,1.7915,1.7915,1.7915,1.7915,1.7915,1.7915,1.7915,1.7915,1.7915,1.7915,1.7915,1.7915,1.7915,1.7915,1.7915,1.7915,1.7915,1.7915,1.7915,1.7915,1.7915,1.7915,1.7915,1.7915,3.1062,3.1176,3.1303,3.1644,3.145,3.1303,3.1597,3.1436,3.1316,3.161,3.1711,3.1711,3.1711,3.1711,3.1711,3.1711,3.1724,3.1818,3.2064,3.2407,3.2607,3.2607,3.0677,2.9413,2.9505,2.7727,2.5339,2.2475,2.2219,2.1015,1.8074,1.7977,1.7977,1.7977,1.7922,1.7922,1.7915,1.7915,1.7915,1.7915,1.7915,1.7915,1.7915,1.7915,1.7915,1.7915,1.7915,1.7915,1.7915,1.7915,1.7915,1.7915,1.7915,1.7915,1.7915,1.7915,1.7915,1.7915,1.7915,1.7915,1.7915,1.7915,1.7915,1.7915,1.7915,1.7915,1.7915,1.7915,1.7915,1.7915,1.7915,1.7915,1.7915,1.7915,1.7915,1.7915,1.7915,1.7915,1.7915,1.7915,1.7915,1.7915,1.7915,1.7915,1.7915,1.7915,1.7915,1.7915,1.7915,1.7915,1.7915,1.7915,1.7915,1.7915,1.7915,1.7915,1.7915,1.7915,1.7915,1.7915,1.7915,1.7915,1.7915,1.7915,1.7915,1.7915,1.7915,1.7915,1.7915,1.7915,1.7915,1.7915,3.0627,3.0782,3.0955,3.1049,3.0996,3.1009,3.1303,3.1289,3.1316,3.161,3.1711,3.1711,3.1711,3.1711,3.1711,3.1711,3.1711,3.177,3.2064,3.0702,2.9799,3.0033,2.8229,2.6264,2.4436,2.3854,2.2366,1.95,1.9232,1.8853,1.7977,1.7915,1.7915,1.7915,1.7915,1.7915,1.7915,1.7915,1.7915,1.7915,1.7915,1.7915,1.7915,1.7915,1.7915,1.7915,1.7915,1.7915,1.7915,1.7915,1.7915,1.7915,1.7915,1.7915,1.7915,1.7915,1.7915,1.7915,1.7915,1.7915,1.7915,1.7915,1.7915,1.7915,1.7915,1.7915,1.7915,1.7915,1.7915,1.7915,1.7915,1.7915,1.7915,1.7915,1.7915,1.7915,1.7915,1.7915,1.7915,1.7915,1.7915,1.7915,1.7915,1.7915,1.7915,1.7915,1.7915,1.7915,1.7915,1.7915,1.7915,1.7915,1.7915,1.7915,1.7915,1.7915,1.7915,1.7915,1.7915,1.7915,1.7915,1.7915,1.7915,1.7915,1.7915,1.7915,1.7915,1.7915,1.7915,1.7915,1.7915,1.7915,3.0373,3.0533,3.0662,3.0768,3.0715,3.0742,3.1129,3.1142,3.1183,3.1631,3.1711,3.1711,3.1711,3.1711,3.1711,3.1711,3.1711,3.1384,3.0584,2.9213,2.7752,2.6168,2.4867,2.307,2.0472,2.042,1.9823,1.8033,1.7915,1.7915,1.7915,1.7915,1.7915,1.7915,1.7915,1.7915,1.7915,1.7915,1.7915,1.7915,1.7915,1.7915,1.7915,1.7915,1.7915,1.7915,1.7915,1.7915,0.0,1.7915,1.7915,1.7915,1.7915,1.7915,1.7915,1.7915,1.7915,1.7915,1.7915,1.7915,1.7915,1.7915,1.7915,1.7915,1.7915,1.7915,1.7915,1.7915,1.7915,1.7915,1.7915,1.7915,1.7915,1.7915,1.7915,1.7915,1.7915,1.7915,1.7915,1.7915,1.7915,1.7915,1.7915,1.7915,1.7915,1.7915,1.7915,1.7915,1.7915,1.7915,1.7915,1.7915,1.7915,1.7915,1.7915,1.7915,1.7915,1.7915,1.7915,1.7915,1.7915,1.7915,1.7915,1.7915,1.7915,1.7915,1.7915,1.7915,1.7915,1.7915,1.7915,1.7915,0.0,3.0373,3.044,3.0662,3.0528,3.0533,3.1062,3.0982,0.0,3.1591,3.1711,3.1711,3.1711,3.1711,3.1711,3.1711,3.1521,3.0544,2.8116,2.7724,2.5929,2.1363,2.0817,1.9965,1.7847,1.7792,1.7915,1.7915,1.7915,1.7915,1.7915,1.7915,1.7915,1.7915,1.7915,1.7915,1.7915,1.7915,1.7915,1.7915,1.7915,1.7915,1.7915,1.7915,1.7915,1.7915,1.7915,1.7915,1.7915,1.7915,1.7915,1.7915,1.7915,1.7915,1.7915,1.7915,1.7915,1.7915,1.7915,1.7915,1.7915,1.7915,1.7915,1.7915,1.7915,1.7915,1.7915,1.7915,1.7915,1.7915,1.7915,1.7915,1.7915,1.7915,1.7915,1.7915,1.7915,1.7915,1.7915,1.7915,1.7915,1.7915,1.7915,1.7915,1.7915,1.7915,1.7915,1.7915,1.7915,1.7915,1.7915,1.7915,1.7915,1.7915,1.7915,1.7915,1.7915,1.7915,1.7915,1.7915,1.7915,1.7915,1.7915,1.7915,1.7915,1.7915,1.7915,1.7915,1.7915,1.7915,1.7915,1.7915,3.0007,0.0,3.0034,3.01,3.0074,3.0167,0.0,3.0849,3.0955,3.1591,3.1711,3.1711,3.1711,3.1711,3.1711,3.1711,3.0007,2.8512,2.7876,2.4618,2.1189,1.8444,1.8223,1.8122,1.7889,1.7846,1.7915,1.7915,1.7915,1.7915,1.7915,1.7915,1.7915,1.7915,1.7915,1.7915,1.7915,1.7915,1.7915,1.7915,1.7915,1.7915,1.7915,1.7915,1.7915,1.7915,1.7915,1.7915,1.7915,1.7915,1.7915,1.7915,1.7915,1.7915,1.7915,1.7915,1.7915,1.7915,1.7915,1.7915,1.7915,1.7915,1.7915,1.7915,1.7915,1.7915,1.7915,1.7915,1.7915,1.7915,1.7915,1.7915,1.7915,1.7915,1.7915,1.7915,1.7915,1.7915,1.7915,1.7915,1.7915,1.7915,1.7915,1.7915,1.7915,1.7915,1.7915,1.7915,1.7915,1.7915,1.7915,1.7915,1.7915,1.7915,1.7915,1.7915,1.7915,1.7915,1.7915,1.7915,1.7915,1.7915,1.7915,1.7915,1.7915,1.7915,1.7915,1.7915,1.7915,1.7915,1.7915,1.7915,2.9913,2.9913,2.9913,2.9913,2.9913,3.0034,3.0488,3.0702,3.0915,3.137,3.157,3.1711,3.1711,3.07,3.0306,3.1521,2.856,2.5685,2.4567,2.1168,1.844,1.7314,1.7392,1.7616,1.7846,1.7915,1.7915,1.7915,1.7915,1.7915,1.7915,1.7915,1.7915,1.7915,1.7915,1.7915,1.7915,1.7915,1.7915,1.7915,1.7915,1.7915,1.7915,1.7915,1.7915,1.7915,1.7915,1.7915,1.7915,1.7915,1.7915,1.7915,1.7915,1.7915,1.7915,1.7915,1.7915,1.7915,1.7915,1.7915,1.7915,1.7915,1.7915,1.7915,1.7915,1.7915,1.7915,1.7915,1.7915,1.7915,1.7915,1.7915,1.7915,1.7915,1.7915,1.7915,1.7915,1.7915,1.7915,1.7915,1.7915,1.7915,1.7915,1.7915,1.7915,1.7915,1.7915,1.7915,1.7915,1.7915,1.7915,1.7915,1.7915,1.7915,1.7915,1.7915,1.7915,1.7915,1.7915,1.7915,1.7915,1.7915,1.7915,1.7915,1.7915,1.7915,1.7915,1.7915,1.7915,1.7915,1.7915,1.7915,2.9913,2.9913,2.9913,2.9913,2.9913,3.0007,3.04,3.0667,3.0889,3.1223,3.149,3.1582,3.1194,2.934,2.8428,3.0277,2.6591,2.2647,2.0166,1.8166,1.7032,1.7175,1.746,1.7704,1.7902,1.7915,1.7915,1.7915,1.7915,1.7915,1.7915,1.7915,1.7915,1.7915,1.7915,1.7915,1.7915,1.7915,1.7915,1.7915,1.7915,1.7915,1.7915,1.7915,1.7915,1.7915,1.7915,1.7915,1.7915,1.7915,1.7915,1.7915,1.7915,1.7915,1.7915,1.7915,1.7915,1.7915,1.7915,1.7915,1.7915,1.7915,1.7915,1.7915,1.7915,1.7915,1.7915,1.7915,1.7915,1.7915,1.7915,1.7915,1.7915,1.7915,1.7915,1.7915,1.7915,1.7915,1.7915,1.7915,1.7915,1.7915,1.7915,1.7915,1.7915,1.7915,1.7915,1.7915,1.7915,1.7915,1.7915,1.7915,1.7915,1.7915,1.7915,1.7915,1.7915,1.7915,1.7915,1.7915,1.7915,1.7915,1.7915,1.7915,1.7915,1.7915,1.7915,1.7915,1.7915,1.7915,1.7915,1.7915,2.9913,2.9913,2.9913,2.9913,2.9913,3.006,3.0608,3.0755,3.0942,3.149,3.1684,3.1064,2.8983,2.8231,2.7413,2.5684,2.2919,2.0057,1.7472,1.7041,1.7032,1.7175,1.746,1.7704,1.7902,1.7915,1.7915,1.7915,1.7915,1.7915,1.7915,1.7915,1.7915,1.7915,1.7915,1.7915,1.7915,1.7915,1.7915,1.7915,1.7915,1.7915,1.7915,1.7915,1.7915,1.7915,1.7915,1.7915,1.7915,1.7915,1.7915,1.7915,1.7915,1.7915,1.7915,1.7915,1.7915,1.7915,1.7915,1.7915,1.7915,1.7915,1.7915,1.7915,1.7915,1.7915,1.7915,1.7915,1.7915,1.7915,1.7915,1.7915,1.7915,1.7915,1.7915,1.7915,1.7915,1.7915,1.7915,1.7915,1.7915,1.7915,1.7915,1.7915,1.7915,1.7915,1.7915,1.7915,1.7915,1.7915,1.7915,1.7915,1.7915,1.7915,1.7915,1.7915,1.7915,1.7915,1.7915,1.7915,1.7915,1.7915,1.7915,1.7915,1.7915,1.7915,1.7915,1.7915,1.7915,1.7915,1.7915,1.7915,2.9913,2.9913,2.9953,3.0114,3.0034,3.0034,3.0461,3.0675,3.0915,3.1343,3.1557,3.0921,2.8449,2.6864,2.4661,2.079,2.0383,1.9607,1.7117,1.7026,1.7243,1.7311,1.7582,1.7792,1.786,1.7915,1.7915,1.7915,1.7915,1.7915,1.7915,1.7915,1.7915,1.7915,1.7915,1.7915,1.7915,1.7915,1.7915,1.7915,1.7915,1.7915,1.7915,1.7915,1.7915,1.7915,1.7915,1.7915,1.7915,1.7915,1.7915,1.7915,1.7915,1.7915,1.7915,1.7915,1.7915,1.7915,1.7915,1.7915,1.7915,1.7915,1.7915,1.7915,1.7915,1.7915,1.7936,1.7968,1.7935,1.7915,1.7915,1.797,1.7989,1.7989,1.8057,1.8111,1.8111,1.8111,1.8111,1.8111,1.8111,1.8111,1.8111,1.8111,1.8111,1.8111,1.8036,1.7989,1.7989,1.7914,1.7915,1.7915,1.7915,1.7915,1.7915,1.7915,1.7915,1.7915,1.7915,1.7915,1.7915,1.7915,1.7915,1.7915,1.7915,1.7915,1.7915,1.7915,1.7915,1.7915,1.7915,1.7915,2.9913,2.9913,2.9967,3.0207,3.014,3.014,3.0614,3.0835,3.1102,3.1463,3.1228,3.0189,2.7686,2.4604,2.1193,1.7327,1.841,1.9091,1.7272,1.7236,1.7419,1.7419,1.7684,1.7915,1.7915,1.7915,1.7915,1.7915,1.7915,1.7915,1.7915,1.7915,1.7915,1.7915,1.7915,1.7915,1.7915,1.7915,1.7915,1.7915,1.7915,1.7915,1.7915,1.7915,1.7915,1.7915,1.7915,1.7915,1.7915,1.7915,1.7915,1.7915,1.7915,1.7915,1.7915,1.7915,1.7915,1.7915,1.7915,1.7915,1.7915,1.7915,1.7915,1.7915,1.7915,1.7936,1.799,1.8057,1.8036,1.7968,1.7968,1.8057,1.8145,1.8145,1.8233,1.8321,1.8321,1.8321,1.8321,1.8321,1.8321,1.8321,1.8321,1.8321,1.8321,1.8321,1.8213,1.8145,1.8145,1.8036,1.7968,1.7968,1.799,1.7956,1.7915,1.7915,1.7915,1.7915,1.7915,1.7915,1.7915,1.7915,1.7915,1.7915,1.7915,1.7915,1.7915,1.7915,1.7915,1.7915,1.7915,1.7915,2.9913,2.9913,2.9927,2.994,3.014,3.06,3.143,3.1644,3.1818,3.238,3.0461,2.7901,2.5475,2.0917,1.7353,1.6768,1.7026,1.7174,1.7031,1.7236,1.7419,1.7419,1.7684,1.7915,1.7915,1.7915,1.7915,1.7915,1.7915,1.7915,1.7915,1.7915,1.7915,1.7915,1.7915,1.7915,1.7915,1.7915,1.7915,1.7915,1.7915,1.7915,1.7915,1.7915,1.7915,1.7915,1.7915,1.7915,1.7915,1.7915,1.7915,1.7915,1.7915,1.7915,1.7915,1.7915,1.7915,1.7915,1.7915,1.7915,1.7915,1.7915,1.7915,1.7915,1.7915,1.7968,1.8077,1.8091,1.8179,1.8287,1.8287,1.8301,1.8301,1.8301,1.8265,1.8321,1.8321,1.8321,1.8321,1.8321,1.8321,1.8321,1.8321,1.8321,1.8321,1.8321,1.8301,1.8301,1.8301,1.8301,1.8287,1.8287,1.8158,1.8023,1.7936,1.7915,1.7915,1.7915,1.7915,1.7915,1.7915,1.7915,1.7915,1.7915,1.7915,1.7915,1.7915,1.7915,1.7915,1.7915,1.7915,1.7915,2.9913,2.8893,2.8228,2.9997,2.9451,2.8987,3.0927,3.1677,3.2051,3.2514,3.0377,2.7153,2.2946,1.9337,1.6965,1.6904,1.6944,1.7012,1.71,1.729,1.7453,1.7494,1.7738,1.7915,1.7915,1.7915,1.7915,1.7915,1.7915,1.7915,1.7915,1.7915,1.7915,1.7915,1.7915,1.7915,1.7915,1.7915,1.7915,1.7915,1.7915,1.7915,1.7915,1.7915,1.7915,1.7915,1.7915,1.7915,1.7915,1.7915,1.7915,1.7915,1.7915,1.7915,1.7915,1.7915,1.7915,1.7915,1.7915,1.7915,1.7915,1.7915,1.7915,1.7936,1.8024,1.8036,1.8124,1.8321,1.8409,1.8423,1.8335,1.8332,1.8443,1.8443,1.8531,1.8599,1.8599,1.8599,1.8599,1.8599,1.8599,1.8599,1.8599,1.8599,1.8599,1.8599,1.8511,1.8443,1.8443,1.8375,1.8321,1.8321,1.8267,1.8213,1.8145,1.8145,1.8145,1.8145,1.7968,1.7915,1.7915,1.7915,1.7915,1.7915,1.7915,1.7915,1.7915,1.7915,1.7915,1.7915,1.7915,1.7915,2.8526,2.7661,2.6837,2.8011,2.7876,2.7771,2.8736,2.9955,3.0976,3.1349,2.8571,2.4719,2.0192,1.8054,1.6965,1.6917,1.6951,1.7032,1.7175,1.7324,1.7473,1.7575,1.7772,1.7915,1.7915,1.7915,1.7915,1.7915,1.7915,1.7915,1.7915,1.7915,1.7915,1.7915,1.7915,1.7915,1.7915,1.7915,1.7915,1.7915,1.7915,1.7915,1.7915,1.7915,1.7915,1.7915,1.7915,1.7915,1.7915,1.7915,1.7915,1.7915,1.7915,1.7915,1.7915,1.7915,1.7915,1.7915,1.7915,1.7915,1.7915,1.7915,1.7956,1.8004,1.8057,1.8158,1.8267,1.8477,1.8565,1.8586,1.8477,1.8531,1.8599,1.8599,1.8694,1.882,1.882,1.882,1.882,1.882,1.882,1.882,1.882,1.882,1.882,1.882,1.8674,1.8599,1.8599,1.8511,1.8443,1.8389,1.8332,1.8375,1.8321,1.8321,1.8321,1.8321,1.8124,1.7989,1.7935,1.7936,1.7915,1.7915,1.7915,1.7915,1.7915,1.7915,1.7915,1.7915,1.7915,1.7915,2.5503,2.6383,2.6018,2.3448,2.5373,2.7255,2.4706,2.6239,2.8309,2.8752,2.4747,2.0223,1.7234,1.6876,1.6931,1.6723,1.6883,1.7032,1.7175,1.7324,1.7426,1.7575,1.7772,1.7915,1.7915,1.7915,1.7915,1.7915,1.7915,1.7915,1.7915,1.7915,1.7915,1.7915,1.7915,1.7915,1.7915,1.7915,1.7915,1.7915,1.7915,1.7915,1.7915,1.7915,1.7915,1.7915,1.7915,1.7915,1.7915,1.7915,1.7915,1.7915,1.7915,1.7915,1.7915,1.7915,1.7915,1.7915,1.7915,1.7915,1.7915,1.7915,1.7968,1.8091,1.8091,1.8301,1.8474,1.8474,1.864,1.882,1.882,1.882,1.882,1.882,1.882,1.882,1.882,1.882,1.882,1.882,1.882,1.882,1.882,1.882,1.882,1.882,1.882,1.882,1.882,1.882,1.8708,1.8494,1.8474,1.8477,1.8335,1.8321,1.8321,1.8321,1.8321,1.8247,1.8091,1.7948,1.7915,1.7915,1.7915,1.7915,1.7915,1.7915,1.7915,1.7915,1.7915,1.7915,2.3612,2.2722,2.1906,2.3115,2.2975,2.281,2.3998,2.6551,2.8127,2.62,2.3323,2.0223,1.7234,1.6876,1.6965,1.6917,1.6951,1.7066,1.7317,1.7392,1.7514,1.7772,1.7846,1.7915,1.7915,1.7915,1.7915,1.7915,1.7915,1.7915,1.7915,1.7915,1.7915,1.7915,1.7915,1.7915,1.7915,1.7915,1.7915,1.7915,1.7915,1.7915,1.7915,1.7915,1.7915,1.7915,1.7915,1.7915,1.7915,1.7915,1.7915,1.7915,1.7915,1.7915,1.7915,1.7915,1.7915,1.7915,1.7915,1.7915,1.7915,1.7915,1.7968,1.8111,1.8213,1.8332,1.8552,1.8654,1.8728,1.882,1.882,1.882,1.882,1.882,1.882,1.882,1.882,1.882,1.882,1.882,1.882,1.882,1.882,1.882,1.882,1.882,1.882,1.882,1.882,1.882,1.88,1.8694,1.8694,1.8674,1.864,1.864,1.864,1.864,1.8531,1.8409,1.8247,1.8213,1.8124,1.8023,1.8023,1.7968,1.7915,1.7915,1.7915,1.7915,1.7915,1.797,2.1058,2.0509,1.9799,2.0475,2.0479,2.0719,2.2457,2.4255,2.482,2.1983,2.0385,1.8909,1.7169,1.6917,1.6978,1.6978,1.6978,1.7087,1.7378,1.7419,1.7528,1.7881,1.7915,1.7915,1.7915,1.7915,1.7915,1.7915,1.7915,1.7915,1.7915,1.7915,1.7915,1.7915,1.7915,1.7915,1.7915,1.7915,1.7915,1.7915,1.7915,1.7915,1.7915,1.7915,1.7915,1.7915,1.7915,1.7915,1.7915,1.7915,1.7915,1.7915,1.7915,1.7915,1.7915,1.7915,1.7915,1.7915,1.7915,1.7915,1.7936,1.7935,1.8057,1.8213,1.8355,1.8511,1.864,1.8742,1.882,1.882,1.882,1.882,1.882,1.882,1.882,1.882,1.882,1.882,1.882,1.882,1.882,1.882,1.882,1.882,1.882,1.882,1.882,1.882,1.882,1.882,1.882,1.882,1.882,1.882,1.882,1.882,1.882,1.882,1.8674,1.8586,1.8498,1.8389,1.8287,1.8179,1.8179,1.8145,1.8036,1.8036,1.8036,1.8036,1.8036,1.8091,1.8191,1.9119,1.8915,1.6665,1.8134,2.013,2.0235,2.0276,1.966,1.7496,1.7019,1.6978,1.6965,1.6971,1.6978,1.6978,1.6978,1.7087,1.7378,1.7419,1.7528,1.7881,1.7915,1.7915,1.7915,1.7915,1.7915,1.7915,1.7915,1.7915,1.7915,1.7915,1.7915,1.7915,1.7915,1.7915,1.7915,1.7915,1.7915,1.7915,1.7915,1.7915,1.7915,1.7915,1.7915,1.7915,1.7915,1.7915,1.7915,1.7915,1.7915,1.7915,1.7915,1.7915,1.7915,1.7915,1.7915,1.7915,1.7915,1.7915,1.7936,1.8036,1.8199,1.8355,1.844,1.864,1.882,1.882,1.882,1.882,1.882,1.882,1.882,1.882,1.882,1.882,1.882,1.882,1.882,1.882,1.882,1.882,1.882,1.882,1.882,1.882,1.882,1.882,1.882,1.882,1.882,1.882,1.882,1.882,1.882,1.882,1.882,1.882,1.882,1.882,1.882,1.8498,1.8355,1.8335,1.8335,1.8335,1.8321,1.8321,1.8321,1.8321,1.8321,1.8321,1.6172,1.6628,1.6836,1.6513,1.7064,1.7763,1.7747,1.7754,1.8143,1.9355,1.8225,1.6944,1.677,1.6897,1.6978,1.6978,1.6978,1.7087,1.7378,1.7419,1.7528,1.7881,1.7915,1.7915,1.7915,1.7915,1.7915,1.7915,1.7915,1.7915,1.7915,1.7915,1.7915,1.7915,1.7915,1.7915,1.7915,1.7915,1.7915,1.7915,1.7915,1.7915,1.7915,1.7915,1.7915,1.7915,1.7915,1.7915,1.7915,1.7915,1.7915,1.7915,1.7915,1.7915,1.7915,1.7915,1.7915,1.7915,1.7915,1.7915,1.7936,1.8036,1.8199,1.8355,1.844,1.864,1.882,1.882,1.882,1.882,1.882,1.882,1.882,1.882,1.882,1.882,1.882,1.882,1.882,1.882,1.882,1.882,1.882,1.882,1.882,1.882,1.882,1.882,1.882,1.882,1.882,1.882,1.882,1.882,1.882,1.882,1.882,1.882,1.882,1.882,1.882,1.8708,1.8606,1.844,1.8477,1.8423,1.8321,1.8321,1.8321,1.8321,1.8321,1.8375,1.5683,1.5906,1.6171,1.6486,1.6809,1.6978,1.6978,1.6978,1.7349,1.8513,1.7846,1.6958,1.6876,1.6924,1.6978,1.6978,1.6978,1.7087,1.7378,1.7419,1.7528,1.7881,1.7915,1.7915,1.7915,1.7915,1.7915,1.7915,1.7915,1.7915,1.7915,1.7915,1.7915,1.7915,1.7915,1.7915,1.7915,1.7915,1.7915,1.7915,1.7915,1.7915,1.7915,1.7915,1.7915,1.7915,1.7915,1.7915,1.7915,1.7915,1.7915,1.7915,1.7915,1.7915,1.7915,1.7915,1.7915,1.7915,1.7915,1.7915,1.7956,1.8124,1.8247,1.8355,1.8586,1.8694,1.882,1.882,1.882,1.882,1.882,1.882,1.882,1.882,1.882,1.882,1.882,1.882,1.882,1.882,1.882,1.882,1.882,1.882,1.882,1.882,1.882,1.882,1.882,1.882,1.882,1.882,1.882,1.882,1.882,1.882,1.882,1.882,1.882,1.882,1.882,1.882,1.8728,1.864,1.864,1.8599,1.8531,1.8531,1.8531,1.8531,1.8531,1.8565,1.5786,1.603,1.6259,1.6628,1.689,1.6978,1.6978,1.6978,1.6978,1.6978,1.6978,1.6978,1.6978,1.6978,1.6978,1.6978,1.6978,1.7087,1.7378,1.7419,1.7528,1.7881,1.7915,1.7915,1.7915,1.7915,1.7915,1.7915,1.7915,1.7915,1.7915,1.7915,1.7915,1.7915,1.7915,1.7915,1.7915,1.7915,1.7915,1.7915,1.7915,1.7915,1.7915,1.7915,1.7915,1.7915,1.7915,1.7915,1.7915,1.7915,1.7915,1.7915,1.7915,1.7915,1.7915,1.7915,1.7915,1.7915,1.7915,1.7915,1.7914,1.8199,1.8301,1.8375,1.864,1.8742,1.882,1.882,1.882,1.882,1.882,1.882,1.882,1.882,1.882,1.882,1.882,1.882,1.882,1.882,1.882,1.882,1.882,1.882,1.882,1.882,1.882,1.882,1.882,1.882,1.882,1.882,1.882,1.882,1.882,1.882,1.882,1.882,1.882,1.882,1.882,1.882,1.882,1.882,1.882,1.882,1.882,1.882,1.882,1.882,1.882,1.882,1.5539,1.6006,1.6544,1.687,1.6965,1.6978,1.6978,1.6978,1.6978,1.6978,1.6978,1.6978,1.6978,1.6978,1.6978,1.6978,1.6978,1.7087,1.7378,1.7419,1.7528,1.7881,1.7915,1.7915,1.7915,1.7915,1.7915,1.7915,1.7915,1.7915,1.7915,1.7915,1.7915,1.7915,1.7915,1.7915,1.7915,1.7915,1.7915,1.7915,1.7915,1.7915,1.7915,1.7915,1.7915,1.7915,1.7915,1.7915,1.7915,1.7915,1.7915,1.7915,1.7915,1.7915,1.7915,1.7915,1.7915,1.7915,1.7915,1.7915,1.7956,1.8077,1.8213,1.8355,1.8511,1.8654,1.882,1.882,1.882,1.882,1.882,1.882,1.882,1.882,1.882,1.882,1.882,1.882,1.882,1.882,1.882,1.882,1.882,1.882,1.882,1.882,1.882,1.882,1.882,1.882,1.882,1.882,1.882,1.882,1.882,1.882,1.882,1.882,1.882,1.882,1.882,1.882,1.882,1.882,1.882,1.882,1.882,1.882,1.882,1.882,1.882,1.882,1.5784,1.6259,1.6628,1.6815,1.6917,1.6978,1.6978,1.6978,1.6978,1.6978,1.6978,1.6978,1.6978,1.6978,1.6978,1.6978,1.6978,1.7053,1.7263,1.7365,1.75,1.7717,1.7812,1.7915,1.7915,1.7915,1.7915,1.7915,1.7915,1.7915,1.7915,1.7915,1.7915,1.7915,1.7915,1.7915,1.7915,1.7915,1.7915,1.7915,1.7915,1.7915,1.7915,1.7915,1.7915,1.7915,1.7915,1.7915,1.7915,1.7915,1.7915,1.7915,1.7915,1.7915,1.7915,1.7915,1.7915,1.7915,1.7915,1.7915,1.7936,1.8036,1.8199,1.8355,1.844,1.864,1.882,1.882,1.882,1.882,1.882,1.882,1.882,1.882,1.882,1.882,1.882,1.882,1.882,1.882,1.882,1.882,1.882,1.882,1.882,1.882,1.882,1.882,1.882,1.882,1.882,1.882,1.882,1.882,1.882,1.882,1.882,1.882,1.882,1.882,1.882,1.882,1.882,1.882,1.882,1.882,1.882,1.882,1.882,1.882,1.882,1.882,1.5981,1.6354,1.6608,1.6675,1.6784,1.6931,1.6971,1.6978,1.6978,1.6978,1.6978,1.6978,1.6978,1.6978,1.6978,1.6978,1.6978,1.7032,1.7175,1.7324,1.7473,1.7575,1.7772,1.7915,1.7915,1.7915,1.7915,1.7915,1.7915,1.7915,1.7915,1.7915,1.7915,1.7915,1.7915,1.7915,1.7915,1.7915,1.7915,1.7915,1.7915,1.7915,1.7915,1.7915,1.7915,1.7915,1.7915,1.7915,1.7915,1.7915,1.7915,1.7915,1.7915,1.7915,1.7915,1.7915,1.7915,1.7915,1.7915,1.7915,1.7936,1.8002,1.8145,1.8287,1.8423,1.8586,1.8708,1.88,1.882,1.882,1.882,1.882,1.882,1.882,1.882,1.882,1.882,1.882,1.882,1.882,1.882,1.882,1.882,1.882,1.882,1.882,1.882,1.882,1.882,1.882,1.882,1.882,1.882,1.882,1.882,1.882,1.882,1.882,1.882,1.882,1.882,1.882,1.882,1.882,1.882,1.882,1.882,1.882,1.882,1.882,1.882,1.882,1.6035,1.6205,1.6402,1.6628,1.6702,1.675,1.6944,1.6978,1.6978,1.6978,1.6978,1.6978,1.6978,1.6978,1.6978,1.6978,1.6978,1.7032,1.7175,1.7324,1.7473,1.7575,1.7772,1.7915,1.7915,1.7915,1.7915,1.7915,1.7915,1.7915,1.7915,1.7915,1.7915,1.7915,1.7915,1.7915,1.7915,1.7915,1.7915,1.7915,1.7915,1.7915,1.7915,1.7915,1.7915,1.7915,1.7915,1.7915,1.7915,1.7915,1.7915,1.7915,1.7915,1.7915,1.7915,1.7915,1.7915,1.7915,1.7915,1.7915,1.7915,1.7936,1.7989,1.8124,1.8287,1.8423,1.8565,1.8728,1.882,1.882,1.882,1.882,1.882,1.882,1.882,1.882,1.882,1.882,1.882,1.882,1.882,1.882,1.882,1.882,1.882,1.882,1.882,1.882,1.882,1.882,1.882,1.882,1.882,1.882,1.882,1.882,1.882,1.882,1.882,1.882,1.882,1.882,1.882,1.882,1.882,1.882,1.882,1.882,1.882,1.882,1.882,1.882,1.6042,1.6191,1.6334,1.6442,1.6537,1.6567,1.6673,1.6761,1.6836,1.6836,1.691,1.6978,1.6978,1.6978,1.6978,1.6978,1.6978,1.6998,1.7046,1.7182,1.7331,1.7487,1.7629,1.7758,1.7902,1.7915,1.7915,1.7915,1.7915,1.7915,1.7915,1.7915,1.7915,1.7915,1.7915,1.7915,1.7915,1.7915,1.7915,1.7915,1.7915,1.7915,1.7915,1.7915,1.7915,1.7915,1.7915,1.7915,1.7915,1.7915,1.7915,1.7915,1.7915,1.7915,1.7915,1.7915,1.7915,1.7915,1.7915,1.7915,1.7915,1.7915,1.7968,1.8124,1.8267,1.8366,1.8565,1.8728,1.882,1.882,1.882,1.882,1.882,1.882,1.882,1.882,1.882,1.882,1.882,1.882,1.882,1.882,1.882,1.882,1.882,1.882,1.882,1.882,1.882,1.882,1.882,1.882,1.882,1.882,1.882,1.882,1.882,1.882,1.882,1.882,1.882,1.882,1.882,1.882,1.882,1.882,1.882,1.882,1.882,1.882,1.882,1.882,1.6105,1.6157,1.6246,1.63,1.6381,1.6463,1.651,1.6588,1.6696,1.6696,1.687,1.6978,1.6978,1.6978,1.6978,1.6978,1.6978,1.6978,1.6978,1.71,1.7229,1.7331,1.7467,1.7629,1.7772,1.7881,1.7915,1.7915,1.7915,1.7915,1.7915,1.7915,1.7915,1.7915,1.7915,1.7915,1.7915,1.7915,1.7915,1.7915,1.7915,1.7915,1.7915,1.7915,1.7915,1.7915,1.7915,1.7915,1.7915,1.7915,1.7915,1.7915,1.7915,1.7915,1.7915,1.7915,1.7915,1.7915,1.7915,1.7915,1.7915,1.7915,1.7935,1.8036,1.8199,1.8335,1.8498,1.864,1.8728,1.882,1.882,1.882,1.882,1.882,1.882,1.882,1.882,1.882,1.882,1.882,1.882,1.882,1.882,1.882,1.882,1.882,1.882,1.882,1.882,1.882,1.882,1.882,1.882,1.882,1.882,1.882,1.882,1.882,1.882,1.882,1.882,1.882,1.882,1.882,1.882,1.882,1.882,1.882,1.882,1.882,1.882,1.882,0.0,0.0,0.0,1.6266,1.63,1.6341,1.6483,1.6581,1.6689,1.6696,1.687,1.6978,1.6978,1.6978,1.6978,1.6978,1.6978,1.6978,1.6978,1.71,1.7188,1.7195,1.7453,1.7575,1.7595,1.7772,1.786,1.786,1.7915,1.7915,1.7915,1.7915,1.7915,1.7915,1.7915,1.7915,1.7915,1.7915,1.7915,1.7915,1.7915,1.7915,1.7915,1.7915,1.7915,1.7915,1.7915,1.7915,1.7915,1.7915,1.7915,1.7915,1.7915,1.7915,1.7915,1.7915,1.7915,1.7915,1.7915,1.7915,1.7915,1.7915,1.7915,1.7956,1.8036,1.8199,1.8355,1.844,1.864,1.882,1.882,1.882,1.882,1.882,1.882,1.882,1.882,1.882,1.882,1.882,1.882,1.882,1.882,1.882,1.882,1.882,1.882,1.882,1.882,1.882,1.882,1.882,1.882,1.882,1.882,1.882,1.882,1.882,1.882,1.882,1.882,1.882,1.882,1.882,1.882,1.882,1.882,1.882,1.882,1.882,1.882,1.882,1.6083,0.0,0.0,0.0,0.0,0.0,1.6334,1.6402,1.649,1.6655,1.673,1.6849,1.6958,1.6978,1.6978,1.6978,1.6978,1.6978,1.6978,1.7012,1.708,1.7182,1.727,1.7365,1.7473,1.7568,1.7704,1.7704,1.7812,1.7915,1.7915,1.7915,1.7915,1.7915,1.7915,1.7915,1.7915,1.7915,1.7915,1.7915,1.7915,1.7915,1.7915,1.7915,1.7915,1.7915,1.7915,1.7915,1.7915,1.7915,1.7915,1.7915,1.7915,1.7915,1.7915,1.7915,1.7915,1.7915,1.7915,1.7915,1.7915,1.7915,1.7915,1.7956,1.8036,1.8199,1.8355,1.844,1.864,1.882,1.882,1.882,1.882,1.882,1.882,1.882,1.882,1.882,1.882,1.882,1.882,1.882,1.882,1.882,1.882,1.882,1.882,1.882,1.882,1.882,1.882,1.882,1.882,1.882,1.882,1.882,1.882,1.882,1.882,1.882,1.882,1.882,1.882,1.882,1.882,1.882,1.882,1.882,1.882,1.882,1.882,1.882,0.0,0.0,1.6083,1.6083,0.0,0.0,1.6191,1.6266,1.6374,1.6554,1.6601,1.6648,1.6856,1.6829,1.6809,1.6876,1.6883,1.6904,1.6971,1.6978,1.7012,1.7093,1.7154,1.7229,1.7317,1.7467,1.7527,1.7595,1.7717,1.7792,1.7915,1.7915,1.7915,1.7915,1.7915,1.7915,1.7915,1.7915,1.7915,1.7915,1.7915,1.7915,1.7915,1.7915,1.7915,1.7915,1.7915,1.7915,1.7915,1.7915,1.7915,1.7915,1.7915,1.7915,1.7915,1.7915,1.7915,1.7915,1.7915,1.7915,1.7915,1.7915,1.7915,1.7936,1.7968,1.8145,1.8335,1.8366,1.8599,1.882,1.882,1.882,1.882,1.882,1.882,1.882,1.882,1.882,1.882,1.882,1.882,1.882,1.882,1.882,1.882,1.882,1.882,1.882,1.882,1.882,1.882,1.882,1.882,1.882,1.882,1.882,1.882,1.882,1.882,1.882,1.882,1.882,1.882,1.882,1.882,1.882,1.882,1.882,1.882,1.882,1.882,1.882,0.0,0.0,0.0,1.6083,1.6083,0.0,1.6103,1.6198,1.6327,1.649,1.651,1.6544,1.6648,1.656,1.6564,1.6648,1.6689,1.675,1.6958,1.6978,1.6978,1.6978,1.7093,1.7168,1.7168,1.7304,1.7453,1.7534,1.7575,1.7704,1.7881,1.786,1.7915,1.7915,1.7915,1.7915,1.7915,1.7915,1.7915,1.7915,1.7915,1.7915,1.7915,1.7915,1.7915,1.7915,1.7915,1.7915,1.7915,1.7915,1.7915,1.7915,1.7915,1.7915,1.7915,1.7915,1.7915,1.7915,1.7915,1.7915,1.7915,1.7915,1.7915,1.7915,1.7915,1.8057,1.8301,1.8335,1.8552,1.882,1.882,1.882,1.882,1.882,1.882,1.882,1.882,1.882,1.882,1.882,1.882,1.882,1.882,1.882,1.882,1.882,1.882,1.882,1.882,1.882,1.882,1.882,1.882,1.882,1.882,1.882,1.882,1.882,1.882,1.882,1.882,1.882,1.882,1.882,1.882,1.882,1.882,1.882,1.882,1.882,1.882,1.882,0.0,0.0,0.0,1.6083,1.6083,0.0,1.6239,1.6191,1.6198,1.6469,1.6429,1.6395,1.6486,1.6537,1.653,1.6513,1.6615,1.675,1.6958,1.6978,1.6978,1.6978,1.7005,1.7019,1.7019,1.7154,1.7249,1.7277,1.7453,1.7609,1.7684,1.7792,1.7915,1.7915,1.7915,1.7915,1.7915,1.7915,1.7915,1.7915,1.7915,1.7915,1.7915,1.7915,1.7915,1.7915,1.7915,1.7915,1.7915,1.7915,1.7915,1.7915,1.7915,1.7915,1.7915,1.7915,1.7915,1.7915,1.7915,1.7915,1.7915,1.7915,1.7915,1.7915,1.7915,1.7989,1.8179,1.8423,1.862,1.882,1.882,1.882,1.882,1.882,1.882,1.882,1.882,1.882,1.882,1.882,1.882,1.882,1.882,1.882,1.882,1.882,1.882,1.882,1.882,1.882,1.882,1.882,1.882,1.882,1.882,1.882,1.882,1.882,1.882,1.882,1.882,1.882,1.882,1.882,1.882,1.882,1.882,1.882,1.882,1.882,1.882,1.882,1.6083,1.6083,1.6083,1.6083,1.6083,0.0,0.0,1.6137,1.6144,1.6368,1.63,1.6239,1.6388,1.6354,1.6327,1.6402,1.6483,1.6585,1.6734,1.6883,1.6978,1.6978,1.6978,1.6978,1.6978,1.7046,1.7114,1.7188,1.7405,1.7514,1.7595,1.7717,1.7792,1.7915,1.7915,1.7915,1.7915,1.7915,1.7915,1.7915,1.7915,1.7915,1.7915,1.7915,1.7915,1.7915,1.7915,1.7915,1.7915,1.7915,1.7915,1.7915,1.7915,1.7915,1.7915,1.7915,1.7915,1.7915,1.7915,1.7915,1.7915,1.7915,1.7915,1.7915,1.7915,1.8023,1.8247,1.842,1.864,1.882,1.882,1.882,1.882,1.882,1.882,1.882,1.882,1.882,1.882,1.882,1.882,1.882,1.882,1.882,1.882,1.882,1.882,1.882,1.882,1.882,1.882,1.882,1.882,1.882,1.882,1.882,1.882,1.882,1.882,1.882,1.882,1.882,1.882,1.882,1.882,1.882,1.882,1.882,1.882,1.882,1.882,1.882,1.6083,1.6083,1.6083,1.6083,1.6083,1.6083,0.0,0.0,0.0,1.6239,1.6171,1.6123,1.6246,1.6164,1.611,1.6205,1.6273,1.6341,1.6422,1.67,1.689,1.689,1.689,1.6904,1.6931,1.6965,1.7026,1.7141,1.729,1.7433,1.75,1.7561,1.7649,1.7868,1.7902,1.7915,1.7915,1.7915,1.7915,1.7915,1.7915,1.7915,1.7915,1.7915,1.7915,1.7915,1.7915,1.7915,1.7915,1.7915,1.7915,1.7915,1.7915,1.7915,1.7915,1.7915,1.7915,1.7915,1.7915,1.7915,1.7915,1.7915,1.7915,1.7915,1.7915,1.8077,1.8335,1.8407,1.862,1.882,1.882,1.882,1.882,1.882,1.882,1.882,1.882,1.882,1.882,1.882,1.882,1.882,1.882,1.882,1.882,1.882,1.882,1.882,1.882,1.882,1.882,1.882,1.882,1.882,1.882,1.882,1.882,1.882,1.882,1.882,1.882,1.882,1.882,1.882,1.882,1.882,1.882,1.882,1.882,1.882,1.882,1.882,1.6083,1.6083,1.6083,1.6083,1.6083,1.6083,1.6083,0.0,1.609,1.6103,0.0,1.609,1.6103,0.0,0.0,1.5976,1.613,1.6266,1.6151,1.6388,1.6571,1.6571,1.6571,1.6574,1.6709,1.6904,1.6985,1.7005,1.7141,1.7222,1.7243,1.7446,1.7595,1.7615,1.7792,1.7915,1.7915,1.7915,1.7915,1.7915,1.7915,1.7915,1.7915,1.7915,1.7915,1.7915,1.7915,1.7915,1.7915,1.7915,1.7915,1.7915,1.7915,1.7915,1.7915,1.7915,1.7915,1.7915,1.7915,1.7915,1.7915,1.7915,1.7915,1.7915,1.7915,1.8077,1.8321,1.8335,1.8552,1.882,1.882,1.882,1.882,1.882,1.882,1.882,1.882,1.882,1.882,1.882,1.882,1.882,1.882,1.882,1.882,1.882,1.882,1.882,1.882,1.882,1.882,1.882,1.882,1.882,1.882,1.882,1.882,1.882,1.882,1.882,1.882,1.882,1.882,1.882,1.882,1.882,1.882,1.882,1.882,1.882,1.882,1.882,1.6191,1.6212,1.6212,1.6212,1.6212,1.6191,1.6103,1.6083,1.6083,1.6083,0.0,0.0,0.0,0.0,0.0,0.0,1.6096,1.6157,1.609,1.6191,1.6327,1.6503,1.6524,1.6527,1.6682,1.6727,1.6748,1.6842,1.6904,1.6971,1.7066,1.7351,1.75,1.7595,1.7792,1.7915,1.7915,1.7915,1.7915,1.7915,1.7915,1.7915,1.7915,1.7915,1.7915,1.7915,1.7915,1.7915,1.7915,1.7915,1.7915,1.7915,1.7915,1.7915,1.7915,1.7915,1.7915,1.7915,1.7915,1.7915,1.7915,1.7915,1.7915,1.7936,1.7968,1.8145,1.8335,1.8366,1.8599,1.882,1.882,1.882,1.882,1.882,1.882,1.882,1.882,1.882,1.882,1.882,1.882,1.882,1.882,1.882,1.882,1.882,1.882,1.882,1.882,1.882,1.882,1.882,1.882,1.882,1.882,1.882,1.882,1.882,1.882,1.882,1.882,1.882,1.882,1.882,1.882,1.882,1.882,1.882,1.882,1.882,1.882,1.882,1.6341,1.6341,1.632,1.6361,1.6307,1.6232,1.6157,1.611,1.6083,1.6083,1.6083,0.0,0.0,0.0,1.6069,1.6029,0.0,1.6069,1.6029,1.6056,1.6157,1.6374,1.6435,1.6459,1.6567,1.6564,1.6513,1.6628,1.6635,1.6702,1.691,1.7161,1.7392,1.7527,1.7717,1.7826,1.7915,1.7915,1.7915,1.7915,1.7915,1.7915,1.7915,1.7915,1.7915,1.7915,1.7915,1.7915,1.7915,1.7915,1.7915,1.7915,1.7915,1.7915,1.7915,1.7915,1.7915,1.7915,1.7915,1.7915,1.7915,1.7915,1.7915,1.7956,1.8036,1.8199,1.8355,1.844,1.864,1.882,1.882,1.882,1.882,1.882,1.882,1.882,1.882,1.882,1.882,1.882,1.882,1.882,1.882,1.882,1.882,1.882,1.882,1.882,1.882,1.882,1.882,1.882,1.882,1.882,1.882,1.882,1.882,1.882,1.882,1.882,1.882,1.882,1.882,1.882,1.882,1.882,1.882,1.882,1.882,1.882,1.882,1.882,1.651,1.6415,1.6341,1.6483,1.63,1.613,1.6273,1.6191,1.6083,1.6083,1.6083,1.6083,1.6083,1.6083,1.6085,0.0,1.6037,0.0,0.0,1.6037,1.6083,1.6096,1.6225,1.632,1.6327,1.6442,1.6524,1.653,1.653,1.6598,1.6696,1.691,1.7127,1.7419,1.7521,1.7717,1.7915,1.7915,1.7915,1.7915,1.7915,1.7915,1.7915,1.7915,1.7915,1.7915,1.7915,1.7915,1.7915,1.7915,1.7915,1.7915,1.7915,1.7915,1.7915,1.7915,1.7915,1.7915,1.7915,1.7915,1.7915,1.7915,1.7915,1.7956,1.8036,1.8199,1.8355,1.844,1.864,1.882,1.882,1.882,1.882,1.882,1.882,1.882,1.882,1.882,1.882,1.882,1.882,1.882,1.882,1.882,1.882,1.882,1.882,1.882,1.882,1.882,1.882,1.882,1.882,1.882,1.882,1.882,1.882,1.882,1.882,1.882,1.882,1.882,1.882,1.882,1.882,1.882,1.882,1.882,1.882,1.882,1.882,1.882,1.6594,1.6588,1.656,1.6608,1.6524,1.6361,1.632,1.6191,1.6083,1.6083,1.6083,1.6083,1.6083,1.6083,0.0,0.0,0.0,0.0,0.0,1.6049,1.6083,1.6083,1.613,1.6198,1.63,1.6259,1.6273,1.6374,1.6381,1.6442,1.654,1.6842,1.7066,1.7263,1.746,1.7615,1.7717,1.7812,1.7915,1.7915,1.7915,1.7915,1.7915,1.7915,1.7915,1.7915,1.7915,1.7915,1.7915,1.7915,1.7915,1.7915,1.7915,1.7915,1.7915,1.7915,1.7915,1.7915,1.7915,1.7915,1.7915,1.7915,1.7935,1.8036,1.8199,1.8335,1.8498,1.864,1.8728,1.882,1.882,1.882,1.882,1.882,1.882,1.882,1.882,1.882,1.882,1.882,1.882,1.882,1.882,1.882,1.882,1.882,1.882,1.882,1.882,1.882,1.882,1.882,1.882,1.882,1.882,1.882,1.882,1.882,1.882,1.882,1.882,1.882,1.882,1.882,1.882,1.882,1.882,1.882,1.882,1.882,1.882,1.882,1.6802,1.6743,1.6709,1.6763,1.6673,1.651,1.6476,1.6347,1.6239,1.6239,1.6198,1.6164,1.6164,0.0,0.0,0.0,0.0,0.0,0.0,1.6083,1.6083,1.6083,1.6083,1.6123,1.6218,1.6137,1.6123,1.6225,1.6232,1.6313,1.651,1.6707,1.6931,1.7182,1.7439,1.7541,1.7595,1.7792,1.7915,1.7915,1.7915,1.7915,1.7915,1.7915,1.7915,1.7915,1.7915,1.7915,1.7915,1.7915,1.7915,1.7915,1.7915,1.7915,1.7915,1.7915,1.7915,1.7915,1.7915,1.7915,1.7915,1.7915,1.7968,1.8124,1.8267,1.8366,1.8565,1.8782,1.8854,1.8841,1.883,1.8854,1.882,1.882,1.882,1.882,1.882,1.882,1.882,1.882,1.882,1.882,1.882,1.882,1.882,1.882,1.882,1.882,1.882,1.882,1.882,1.882,1.882,1.882,1.882,1.882,1.882,1.882,1.882,1.882,1.882,1.882,1.8841,1.885,1.8796,1.8796,1.885,1.8796,1.882,1.882,1.882,1.882]},{"header":{"parameterUnit":"m.s-1","parameterCategory":1,"la1":30.6,"la2":29.2853,"lo1":-89.7004,"lo2":-87.6739,"dy":0.0162,"dx":0.0183,"nx":112,"ny":82,"refTime":"2023-11-10T06:00:00:Z","depth":0,"parameterNumber":3,"parameterNumberName":"V-component_of_WINDS"},"data":[0.0,0.0,0.0,0.0,0.0,0.0,0.0,0.0,0.0,0.0,0.0,0.0,0.0,0.0,0.0,0.0,0.0,0.0,0.0,0.0,0.0,0.0,0.0,0.0,0.0,0.0,0.0,0.0,0.0,0.0,0.0,0.0,0.0,0.0,0.0,0.0,0.0,0.0,0.0,0.0,0.0,0.0,0.0,0.0,0.0,0.0,0.0,0.0,0.0,0.0,0.0,0.0,0.0,0.0,0.0,0.0,0.0,0.0,0.0,0.0,0.0,0.0,0.0,0.0,0.0,0.0,0.0,0.0,0.0,0.0,0.0,0.0,0.0,0.0,0.0,0.0,0.0,0.0,0.0,0.0,0.0,0.0,0.0,0.0,0.0,0.0,0.0,0.0,0.0,0.0,5.4076,5.3858,5.4948,5.5451,5.4833,5.5455,5.4937,5.2704,0.0,0.0,0.0,0.0,0.0,0.0,0.0,0.0,0.0,0.0,0.0,0.0,0.0,0.0,0.0,0.0,0.0,0.0,0.0,0.0,0.0,0.0,0.0,0.0,0.0,0.0,0.0,0.0,0.0,0.0,0.0,0.0,0.0,0.0,0.0,0.0,0.0,0.0,0.0,0.0,0.0,0.0,0.0,0.0,0.0,0.0,0.0,0.0,0.0,0.0,0.0,0.0,0.0,0.0,0.0,0.0,0.0,0.0,0.0,0.0,0.0,0.0,0.0,0.0,0.0,0.0,0.0,0.0,0.0,0.0,0.0,0.0,0.0,0.0,0.0,0.0,0.0,0.0,0.0,0.0,0.0,0.0,0.0,0.0,0.0,0.0,0.0,0.0,0.0,0.0,0.0,0.0,0.0,0.0,0.0,0.0,0.0,0.0,0.0,0.0,0.0,0.0,0.0,0.0,5.3408,5.5177,5.5582,5.5667,5.5552,5.6247,5.5745,5.3378,0.0,0.0,0.0,0.0,0.0,0.0,0.0,0.0,0.0,0.0,0.0,0.0,0.0,0.0,0.0,0.0,0.0,0.0,0.0,0.0,0.0,0.0,0.0,0.0,0.0,0.0,0.0,0.0,0.0,0.0,0.0,0.0,0.0,0.0,0.0,0.0,0.0,0.0,0.0,0.0,0.0,0.0,0.0,0.0,0.0,0.0,0.0,0.0,0.0,0.0,0.0,0.0,0.0,0.0,0.0,0.0,0.0,0.0,0.0,0.0,0.0,0.0,0.0,0.0,0.0,0.0,0.0,0.0,0.0,0.0,0.0,0.0,0.0,0.0,0.0,0.0,0.0,0.0,0.0,0.0,0.0,0.0,0.0,0.0,0.0,0.0,0.0,0.0,0.0,0.0,0.0,0.0,0.0,0.0,0.0,0.0,0.0,0.0,0.0,0.0,0.0,0.0,0.0,5.427,5.5122,5.7399,5.802,5.81,5.7688,5.8371,5.7824,5.5493,5.6017,0.0,0.0,0.0,0.0,0.0,0.0,0.0,0.0,0.0,0.0,0.0,0.0,0.0,0.0,0.0,0.0,0.0,0.0,0.0,0.0,0.0,0.0,0.0,0.0,0.0,0.0,0.0,0.0,0.0,0.0,0.0,0.0,0.0,0.0,0.0,0.0,0.0,0.0,0.0,0.0,0.0,0.0,0.0,0.0,0.0,0.0,0.0,0.0,0.0,0.0,0.0,0.0,0.0,0.0,0.0,0.0,0.0,0.0,0.0,0.0,0.0,0.0,0.0,0.0,0.0,0.0,0.0,0.0,0.0,0.0,0.0,0.0,0.0,0.0,0.0,0.0,0.0,0.0,0.0,0.0,0.0,0.0,0.0,0.0,0.0,0.0,0.0,0.0,0.0,0.0,0.0,0.0,0.0,0.0,0.0,0.0,0.0,0.0,0.0,0.0,0.0,0.0,5.6855,5.7572,5.9351,6.0065,6.0188,5.9587,6.0065,5.9505,5.7375,5.7726,0.0,0.0,0.0,0.0,0.0,0.0,0.0,0.0,0.0,0.0,0.0,0.0,0.0,0.0,0.0,0.0,0.0,0.0,0.0,0.0,0.0,0.0,0.0,0.0,0.0,0.0,0.0,0.0,0.0,0.0,0.0,0.0,0.0,0.0,0.0,0.0,0.0,0.0,0.0,0.0,0.0,0.0,0.0,0.0,0.0,0.0,0.0,0.0,0.0,0.0,0.0,0.0,0.0,0.0,0.0,0.0,0.0,0.0,0.0,0.0,0.0,0.0,0.0,0.0,0.0,0.0,0.0,0.0,0.0,0.0,0.0,0.0,0.0,0.0,0.0,0.0,0.0,0.0,0.0,0.0,0.0,0.0,0.0,0.0,0.0,0.0,0.0,0.0,0.0,0.0,0.0,0.0,0.0,0.0,0.0,0.0,0.0,0.0,0.0,0.0,0.0,0.0,5.881,6.0127,6.031,6.0383,6.0395,6.0322,6.0358,5.9698,5.8012,5.7973,0.0,0.0,0.0,0.0,0.0,0.0,0.0,0.0,0.0,0.0,0.0,0.0,0.0,0.0,0.0,0.0,0.0,0.0,0.0,0.0,0.0,0.0,0.0,0.0,0.0,0.0,0.0,0.0,0.0,0.0,0.0,0.0,0.0,0.0,0.0,0.0,0.0,0.0,0.0,0.0,0.0,0.0,0.0,0.0,0.0,0.0,0.0,0.0,0.0,0.0,0.0,0.0,0.0,0.0,0.0,0.0,0.0,0.0,0.0,0.0,0.0,0.0,0.0,0.0,0.0,0.0,0.0,0.0,0.0,0.0,0.0,0.0,0.0,0.0,0.0,0.0,0.0,0.0,0.0,0.0,0.0,0.0,0.0,0.0,0.0,0.0,0.0,0.0,0.0,0.0,0.0,0.0,0.0,0.0,0.0,0.0,0.0,0.0,0.0,0.0,0.0,0.0,5.9198,6.0318,6.1728,6.1912,6.1912,6.1912,6.1912,6.1215,5.9612,0.0,0.0,0.0,0.0,0.0,0.0,0.0,0.0,0.0,0.0,0.0,0.0,0.0,0.0,0.0,0.0,0.0,0.0,0.0,0.0,0.0,0.0,0.0,0.0,0.0,0.0,0.0,0.0,0.0,0.0,0.0,0.0,0.0,0.0,0.0,0.0,0.0,0.0,0.0,0.0,0.0,0.0,0.0,0.0,0.0,0.0,0.0,0.0,0.0,0.0,0.0,0.0,0.0,0.0,0.0,0.0,0.0,0.0,0.0,0.0,0.0,0.0,0.0,0.0,0.0,0.0,0.0,0.0,0.0,0.0,0.0,0.0,0.0,0.0,0.0,0.0,0.0,0.0,0.0,0.0,0.0,0.0,0.0,0.0,0.0,0.0,0.0,0.0,0.0,0.0,0.0,0.0,0.0,0.0,0.0,0.0,0.0,0.0,0.0,0.0,0.0,0.0,5.9285,6.0113,6.1082,6.2645,6.2793,6.2793,6.2793,6.2572,6.1838,6.0493,0.0,0.0,0.0,0.0,0.0,0.0,0.0,0.0,0.0,0.0,0.0,0.0,0.0,0.0,0.0,0.0,0.0,0.0,0.0,0.0,0.0,0.0,0.0,0.0,0.0,0.0,0.0,0.0,0.0,0.0,0.0,0.0,0.0,0.0,0.0,0.0,0.0,0.0,0.0,0.0,0.0,0.0,0.0,0.0,0.0,0.0,0.0,0.0,0.0,0.0,0.0,0.0,0.0,0.0,0.0,0.0,0.0,0.0,0.0,0.0,0.0,0.0,0.0,0.0,0.0,0.0,0.0,0.0,0.0,0.0,0.0,0.0,0.0,0.0,0.0,0.0,0.0,0.0,0.0,0.0,0.0,0.0,0.0,0.0,0.0,0.0,0.0,0.0,0.0,0.0,0.0,0.0,0.0,0.0,0.0,0.0,0.0,0.0,0.0,0.0,0.0,0.0,6.0297,6.1802,6.2829,6.2829,6.2829,6.2829,6.2829,6.2108,6.13,0.0,0.0,0.0,0.0,0.0,0.0,0.0,0.0,0.0,0.0,0.0,0.0,0.0,0.0,0.0,0.0,0.0,0.0,0.0,0.0,0.0,0.0,0.0,0.0,0.0,0.0,0.0,0.0,0.0,0.0,0.0,0.0,0.0,0.0,0.0,0.0,0.0,0.0,0.0,0.0,0.0,0.0,0.0,0.0,0.0,0.0,0.0,0.0,0.0,0.0,0.0,0.0,0.0,0.0,0.0,0.0,0.0,0.0,0.0,0.0,0.0,0.0,0.0,0.0,0.0,0.0,0.0,0.0,0.0,0.0,0.0,0.0,0.0,0.0,0.0,0.0,0.0,0.0,0.0,0.0,0.0,0.0,0.0,0.0,0.0,0.0,0.0,0.0,0.0,0.0,0.0,0.0,0.0,0.0,0.0,0.0,0.0,0.0,0.0,0.0,0.0,0.0,0.0,6.1153,6.2695,6.3943,6.4481,6.4554,6.4554,6.4554,6.4347,6.36,6.2169,0.0,0.0,0.0,0.0,0.0,0.0,0.0,0.0,0.0,0.0,0.0,0.0,0.0,0.0,0.0,0.0,0.0,0.0,0.0,0.0,0.0,0.0,0.0,0.0,0.0,0.0,0.0,0.0,0.0,0.0,0.0,0.0,0.0,0.0,0.0,0.0,0.0,0.0,0.0,0.0,0.0,0.0,0.0,0.0,0.0,0.0,0.0,0.0,0.0,0.0,0.0,0.0,0.0,0.0,0.0,0.0,0.0,0.0,0.0,0.0,0.0,0.0,0.0,0.0,0.0,0.0,0.0,0.0,0.0,0.0,0.0,0.0,0.0,0.0,0.0,0.0,0.0,0.0,0.0,0.0,0.0,0.0,0.0,0.0,0.0,0.0,0.0,0.0,0.0,0.0,0.0,0.0,0.0,0.0,0.0,0.0,0.0,0.0,0.0,0.0,0.0,0.0,6.2034,6.3539,6.4751,6.5251,6.5288,6.5288,6.5288,6.5288,6.4738,6.3392,0.0,0.0,0.0,0.0,0.0,0.0,0.0,0.0,0.0,0.0,0.0,0.0,0.0,0.0,0.0,0.0,0.0,0.0,0.0,0.0,0.0,0.0,0.0,0.0,0.0,0.0,0.0,0.0,0.0,0.0,0.0,0.0,0.0,0.0,0.0,0.0,0.0,0.0,0.0,0.0,0.0,0.0,0.0,0.0,0.0,0.0,0.0,0.0,0.0,0.0,0.0,0.0,0.0,0.0,0.0,0.0,0.0,0.0,0.0,0.0,0.0,0.0,0.0,0.0,0.0,0.0,0.0,0.0,0.0,0.0,0.0,0.0,0.0,0.0,0.0,0.0,0.0,0.0,0.0,0.0,0.0,0.0,0.0,0.0,0.0,0.0,0.0,0.0,0.0,0.0,0.0,0.0,0.0,0.0,0.0,0.0,0.0,0.0,0.0,0.0,0.0,0.0,6.2903,6.4371,6.5435,6.5508,6.5508,6.5508,6.5508,6.5508,6.5191,6.436,0.0,0.0,0.0,0.0,0.0,0.0,0.0,0.0,0.0,0.0,0.0,0.0,0.0,0.0,0.0,0.0,0.0,0.0,0.0,0.0,0.0,0.0,0.0,0.0,0.0,0.0,0.0,0.0,0.0,0.0,0.0,0.0,0.0,0.0,0.0,0.0,0.0,0.0,0.0,0.0,0.0,0.0,0.0,0.0,0.0,0.0,0.0,0.0,0.0,0.0,0.0,0.0,0.0,0.0,0.0,0.0,0.0,0.0,0.0,0.0,6.1377,6.0137,0.0,0.0,0.0,0.0,0.0,0.0,0.0,0.0,0.0,0.0,0.0,0.0,0.0,0.0,0.0,0.0,0.0,0.0,0.0,0.0,0.0,0.0,0.0,0.0,0.0,0.0,0.0,0.0,0.0,0.0,0.0,0.0,0.0,0.0,0.0,0.0,0.0,0.0,0.0,0.0,6.3723,6.5228,6.6476,6.71,6.7187,6.7187,6.7187,6.7187,6.6843,6.6035,6.5215,0.0,0.0,0.0,0.0,0.0,0.0,0.0,0.0,0.0,0.0,0.0,0.0,0.0,0.0,0.0,0.0,0.0,0.0,0.0,0.0,0.0,0.0,0.0,0.0,0.0,0.0,0.0,0.0,0.0,0.0,0.0,0.0,0.0,0.0,0.0,0.0,0.0,0.0,0.0,0.0,0.0,0.0,0.0,0.0,0.0,0.0,0.0,0.0,0.0,0.0,0.0,0.0,0.0,0.0,0.0,0.0,0.0,0.0,0.0,6.3613,6.2401,0.0,0.0,0.0,0.0,0.0,0.0,0.0,0.0,0.0,0.0,0.0,0.0,0.0,0.0,0.0,0.0,0.0,0.0,0.0,0.0,0.0,0.0,0.0,0.0,0.0,0.0,0.0,0.0,0.0,0.0,0.0,0.0,0.0,0.0,0.0,0.0,0.0,0.0,0.0,0.0,6.5154,6.6329,6.726,6.7664,6.77,6.77,6.77,6.77,6.7517,6.7113,6.6329,0.0,0.0,0.0,0.0,0.0,0.0,0.0,0.0,0.0,0.0,0.0,0.0,0.0,0.0,0.0,0.0,0.0,0.0,0.0,0.0,0.0,0.0,0.0,0.0,0.0,0.0,0.0,0.0,0.0,0.0,0.0,0.0,0.0,0.0,0.0,0.0,0.0,0.0,0.0,0.0,0.0,0.0,0.0,0.0,0.0,0.0,0.0,0.0,0.0,0.0,0.0,0.0,0.0,6.8104,6.8104,6.8104,6.8104,6.8104,6.7958,6.5118,6.4273,6.4824,6.3429,0.0,0.0,0.0,0.0,0.0,0.0,0.0,0.0,0.0,0.0,0.0,0.0,0.0,0.0,0.0,0.0,0.0,0.0,0.0,0.0,0.0,0.0,6.5167,6.5167,6.5632,6.5765,6.4371,0.0,0.0,0.0,0.0,0.0,0.0,0.0,0.0,0.0,0.0,0.0,6.6843,6.7627,6.8104,6.8104,6.8104,6.8104,6.8104,6.8104,6.8104,6.8104,6.7504,6.7136,0.0,0.0,0.0,0.0,0.0,0.0,0.0,0.0,0.0,0.0,0.0,0.0,0.0,0.0,0.0,0.0,0.0,0.0,0.0,0.0,0.0,0.0,0.0,0.0,0.0,0.0,0.0,0.0,0.0,0.0,0.0,0.0,6.6145,6.6966,0.0,0.0,0.0,0.0,0.0,0.0,0.0,0.0,0.0,0.0,0.0,0.0,0.0,6.7871,6.8568,6.8678,6.9082,6.9779,6.9779,6.9779,6.9779,6.9779,6.9779,6.9706,6.8605,0.0,6.8238,6.8054,0.0,0.0,0.0,0.0,0.0,0.0,0.0,0.0,0.0,0.0,0.0,0.0,0.0,0.0,0.0,0.0,0.0,0.0,0.0,0.0,0.0,0.0,6.9302,6.9302,6.9376,6.9412,6.9192,6.6953,6.5141,6.5742,6.6416,6.6636,0.0,0.0,0.0,0.0,0.0,0.0,6.8554,6.9302,6.9779,6.9779,6.9779,6.9779,6.9779,6.9779,6.9779,6.9779,6.9669,6.9633,6.9633,6.8972,0.0,0.0,0.0,0.0,0.0,0.0,0.0,0.0,0.0,0.0,0.0,0.0,0.0,0.0,0.0,0.0,0.0,0.0,0.0,0.0,0.0,0.0,0.0,0.0,0.0,0.0,0.0,0.0,0.0,6.6659,6.7467,6.8274,6.7994,6.7554,0.0,0.0,0.0,0.0,0.0,0.0,0.0,0.0,0.0,7.1041,7.1078,7.1468,7.2261,7.2261,7.2445,7.2789,7.2789,7.2789,7.2789,7.2789,7.2789,7.2789,7.2408,7.2261,7.2078,6.9839,6.8885,6.8825,0.0,0.0,0.0,0.0,6.7187,6.7223,6.759,6.8238,6.8848,6.8495,0.0,0.0,0.0,0.0,0.0,0.0,0.0,6.7811,6.8238,6.8898,6.9522,7.0,7.011,7.022,7.0697,6.9655,6.8518,6.7981,6.8128,6.8128,6.732,6.748,0.0,0.0,0.0,6.9082,6.9522,6.9889,7.011,7.011,7.011,7.011,7.011,7.011,7.011,7.011,7.011,7.011,7.011,6.9743,6.9192,0.0,0.0,0.0,0.0,0.0,0.0,0.0,0.0,0.0,0.0,0.0,0.0,0.0,0.0,0.0,0.0,0.0,0.0,0.0,0.0,0.0,0.0,0.0,0.0,0.0,0.0,0.0,0.0,6.8274,6.9229,7.0036,6.9779,6.9449,0.0,0.0,0.0,0.0,0.0,0.0,7.1821,7.1894,7.2569,7.3964,7.4001,7.4294,7.4903,7.4903,7.4903,7.4903,7.4903,7.4903,7.4903,7.4903,7.4903,7.4903,7.4903,7.4903,7.4683,7.1674,7.0426,7.0389,7.022,6.9743,6.9242,6.9242,6.9242,6.9279,6.9463,6.9926,7.0426,7.0426,7.0426,7.0389,7.0183,0.0,0.0,0.0,0.0,6.9389,6.9963,7.0293,7.0587,7.1174,7.1321,7.1505,7.2078,7.2224,7.1747,7.0132,6.9816,6.9559,6.8752,6.8788,0.0,6.9435,6.9692,7.0036,7.0624,7.0697,7.0697,7.0697,7.0697,7.0697,7.0697,7.0697,7.0697,7.0697,7.0697,7.0697,7.0697,7.0697,7.033,6.9509,0.0,0.0,0.0,0.0,0.0,0.0,0.0,0.0,0.0,0.0,0.0,0.0,0.0,0.0,0.0,0.0,0.0,0.0,0.0,0.0,0.0,0.0,0.0,0.0,0.0,0.0,0.0,0.0,0.0,7.334,7.4111,0.0,0.0,0.0,0.0,7.2312,7.2312,7.2679,7.3538,7.356,7.3964,7.4793,7.483,7.4867,7.4903,7.4903,7.4903,7.4903,7.4903,7.4903,7.4903,7.4903,7.4903,7.4903,7.4903,7.4903,7.4867,7.4683,7.461,7.45,7.3744,7.3428,7.3391,7.3391,7.3391,7.3501,7.4258,7.4573,7.461,7.461,7.461,7.4463,7.367,7.3428,0.0,0.0,7.2789,7.3428,7.3465,7.4037,7.461,7.4647,7.4647,7.4683,7.472,7.472,7.4243,7.2642,7.2312,7.2041,7.127,0.0,7.2018,7.1307,7.1821,7.2349,7.2386,7.2386,7.2386,7.2386,7.2386,7.2386,7.2386,7.2386,7.2386,7.2386,7.2386,7.2386,7.2386,7.2386,7.2004,7.1197,7.044,0.0,0.0,0.0,0.0,0.0,0.0,0.0,0.0,0.0,0.0,0.0,0.0,0.0,0.0,0.0,0.0,0.0,0.0,0.0,0.0,0.0,0.0,0.0,0.0,0.0,0.0,0.0,0.0,7.3597,7.3964,0.0,7.3722,7.3722,7.356,7.3303,7.3744,7.4404,7.5212,7.5249,7.5616,7.6408,7.6445,7.6445,7.6445,7.6445,7.6445,7.6445,7.6445,7.6445,7.6445,7.6445,7.6445,7.6445,7.6445,7.6445,7.6445,7.6445,7.5821,7.4867,7.4573,7.4478,7.4478,7.4478,7.4478,7.4515,7.4793,7.4903,7.4903,7.4903,7.4903,7.483,7.4551,7.4478,7.4404,7.4133,7.4243,7.4478,7.4478,7.4683,7.4903,7.4903,7.4903,7.4903,7.4903,7.4903,7.472,7.4169,7.4023,7.3949,7.3656,7.3839,7.3949,7.3656,7.3839,7.4023,7.4023,7.4023,7.4023,7.4023,7.4023,7.4023,7.4023,7.4023,7.4023,7.4023,7.4023,7.4023,7.4023,7.4023,7.367,7.2863,7.2569,7.1505,0.0,0.0,0.0,0.0,0.0,0.0,0.0,0.0,0.0,0.0,0.0,0.0,0.0,0.0,0.0,0.0,0.0,0.0,0.0,0.0,0.0,0.0,0.0,0.0,0.0,7.3046,7.3927,7.4441,7.4735,7.4918,7.4918,7.4918,7.4918,7.4918,7.5417,7.5931,7.6497,7.6481,7.6738,7.7289,7.7289,7.7289,7.7289,7.7289,7.7289,7.7289,7.7289,7.7289,7.7289,7.7289,7.7289,7.7289,7.7289,7.7289,7.7289,7.7289,7.6665,7.5711,7.5711,7.5711,7.5711,7.5711,7.5711,7.5711,7.5711,7.5711,7.5711,7.5711,7.5711,7.5711,7.5711,7.5711,7.5711,7.5711,7.5711,7.5711,7.5711,7.5711,7.5711,7.5711,7.5711,7.5711,7.5711,7.5711,7.5711,7.5711,7.527,7.4793,7.4551,7.4515,7.4404,7.4133,7.4096,7.4096,7.4096,7.4316,7.4515,7.4515,7.472,7.4903,7.4903,7.4647,7.461,7.4867,7.4661,7.4625,7.4903,7.4647,7.4258,7.3722,7.3413,7.2642,7.1321,0.0,0.0,0.0,0.0,0.0,0.0,0.0,0.0,0.0,0.0,0.0,0.0,0.0,0.0,0.0,0.0,0.0,0.0,0.0,0.0,0.0,0.0,0.0,7.378,7.5102,7.6093,7.613,7.6812,7.7289,7.7289,7.7289,7.7289,7.7289,7.7289,7.7289,7.7289,7.7289,7.7326,7.7362,7.7362,7.7362,7.7399,7.7399,7.7399,7.7399,7.7399,7.7399,7.7399,7.7399,7.7399,7.7399,7.7399,7.7399,7.7399,7.7399,7.7362,7.7362,7.7326,7.7289,7.7289,7.7289,7.7289,7.7289,7.7289,7.7289,7.7289,7.7289,7.7289,7.7289,7.7289,7.7289,7.7289,7.7289,7.7289,7.7289,7.7289,7.7289,7.7289,7.7289,7.7289,7.7289,7.7289,7.7289,7.7289,7.7289,7.6041,7.4735,7.3927,7.3832,7.356,7.2789,7.2642,0.0,7.2642,7.334,7.378,7.3795,7.4478,7.494,7.494,7.4258,7.4147,7.494,7.4258,7.4147,7.494,7.4221,7.378,7.3795,7.2973,7.2936,7.3722,0.0,0.0,0.0,0.0,0.0,0.0,0.0,0.0,0.0,0.0,0.0,0.0,0.0,0.0,0.0,0.0,0.0,0.0,0.0,0.0,0.0,7.5065,7.5432,7.5432,7.5836,7.6313,7.6885,7.7179,7.7289,7.7289,7.7289,7.7289,7.7289,7.7289,7.7289,7.7289,7.7289,7.7582,7.8222,7.8259,7.8516,7.9103,7.9103,7.9103,7.9103,7.9103,7.9103,7.9103,7.9103,7.9103,7.9103,7.9103,7.9103,7.9103,7.9103,7.8772,7.8185,7.7546,7.7289,7.7289,7.7289,7.7289,7.7289,7.7289,7.7289,7.7289,7.7289,7.7289,7.7289,7.7289,7.7289,7.7289,7.7289,7.7289,7.7289,7.7289,7.7289,7.7289,7.7289,7.7289,7.7289,7.7289,7.7289,7.7289,7.7289,7.6959,7.6555,7.6335,7.6298,7.6225,7.6004,7.5968,7.5968,7.5968,7.6188,7.6078,7.5506,7.6151,7.6408,7.5836,7.6078,7.6408,7.6628,7.6445,7.6408,7.6628,7.6445,7.6041,7.5432,7.4074,7.3487,0.0,0.0,0.0,0.0,0.0,0.0,0.0,0.0,0.0,0.0,0.0,0.0,0.0,0.0,0.0,0.0,0.0,0.0,0.0,0.0,0.0,0.0,7.5579,7.624,7.6555,7.6592,7.6775,7.7252,7.7289,7.7289,7.7289,7.7289,7.7289,7.7289,7.7656,7.7839,7.7839,7.8185,7.8589,7.9082,7.9433,7.9837,8.0277,8.0661,8.0807,8.0807,8.0807,8.0807,8.0807,8.0807,8.0807,8.0807,8.0461,8.0277,8.0277,7.9926,7.9522,7.9029,0.0,0.0,0.0,0.0,7.7289,7.7289,7.7289,7.7289,7.7289,7.7289,7.7289,7.7289,7.7289,7.7289,7.7399,7.7729,7.7839,7.7913,7.8243,7.8369,7.8369,7.8369,7.8369,7.8369,7.8369,7.8369,7.8369,7.8369,7.8369,0.0,7.8369,7.7472,7.6665,7.6335,7.6298,7.6298,7.6298,7.6592,7.6628,7.6166,7.6812,7.7105,7.6628,7.6702,0.0,0.0,0.0,7.6812,7.6812,7.6812,0.0,0.0,0.0,7.4368,7.4698,7.4258,0.0,0.0,7.2885,7.2165,0.0,0.0,0.0,0.0,0.0,0.0,0.0,0.0,0.0,0.0,0.0,0.0,0.0,0.0,0.0,0.0,7.5799,7.6644,7.7362,7.7509,7.7509,7.7326,7.7289,7.7362,7.7436,7.7436,7.7472,7.7582,7.8295,7.8772,7.8883,7.9543,0.0,0.0,0.0,8.1289,8.1415,8.2113,8.248,8.248,8.248,8.248,8.248,8.248,8.248,8.2443,8.1709,8.1415,8.1342,8.0645,8.0293,8.011,7.9103,7.8259,7.7582,7.7582,7.7582,7.7582,7.7582,0.0,0.0,7.7582,7.7582,7.7582,7.7582,7.7582,7.7729,7.8516,7.8736,7.8883,7.9596,7.9816,7.9816,7.9816,7.9816,7.9816,7.9816,7.9816,7.9816,7.9816,7.9816,7.9816,7.9816,7.7965,7.6276,7.5564,7.5454,7.5454,7.5454,7.6093,7.6497,7.6387,7.7105,0.0,7.7436,7.69,7.679,7.7399,7.6665,7.624,7.624,7.624,7.5909,7.5197,7.516,7.5527,7.624,7.624,7.6592,7.7252,7.4353,7.3413,0.0,0.0,0.0,0.0,0.0,0.0,0.0,0.0,0.0,0.0,0.0,0.0,0.0,0.0,0.0,7.5836,7.7121,7.8185,7.8332,7.8919,7.8809,7.7472,7.7289,7.7582,7.8295,7.8369,7.8626,7.925,7.9486,7.9837,8.0498,8.0681,8.1379,8.2663,8.283,8.3234,8.3911,8.4058,8.4132,8.4132,8.4132,0.0,8.4132,8.4132,8.4132,8.4132,8.3985,8.3911,8.3875,8.3728,8.3287,8.2463,8.0388,7.9449,7.9323,7.9323,7.9323,7.9323,7.9323,7.9323,7.9323,7.9323,7.9323,7.9323,7.9323,7.9323,0.0,7.9522,7.9559,7.9596,7.9779,7.9816,7.9816,7.9816,7.9816,7.9816,7.9816,7.9816,7.9816,7.9816,7.9816,7.9816,7.9816,7.9412,7.9045,7.8898,7.8862,7.8862,7.8862,7.9008,7.8862,7.8185,7.8846,7.9029,7.8405,7.8809,7.8862,7.8369,7.7546,7.7069,7.7069,7.7069,7.6995,7.6848,7.6848,7.6922,7.7069,7.7069,7.7142,7.7289,7.6665,7.6445,0.0,0.0,0.0,0.0,0.0,0.0,0.0,0.0,0.0,0.0,0.0,7.5601,7.6041,0.0,7.7341,7.7341,7.8369,7.9192,7.9192,7.9559,7.9486,7.8662,7.8552,7.8736,7.914,7.9543,7.9984,8.0351,8.1158,8.1782,8.217,8.259,8.3177,8.3985,8.4389,8.4792,8.5196,8.6004,8.6407,8.6407,8.6811,8.6978,8.6978,8.6978,8.6775,8.6371,8.5967,8.5563,8.5159,8.4756,8.4352,8.3875,8.2663,8.1709,8.0991,8.0991,8.0991,8.0991,8.0991,8.0991,8.0991,8.0991,8.0991,8.0991,8.0991,8.0991,8.1085,8.1489,8.1599,8.1672,8.2113,8.2186,8.2186,8.2186,8.2186,8.2186,8.2186,8.2186,8.2186,8.2186,8.2186,8.2186,8.2186,8.2186,8.1636,8.0036,7.9816,7.9816,7.9816,7.9816,7.9669,7.9229,7.9559,7.9633,7.9229,7.9559,7.9633,7.9229,7.8772,7.8552,7.8552,7.8552,7.8552,7.8552,7.8552,7.8552,7.8552,7.8552,7.8552,7.8552,7.8552,7.8332,0.0,0.0,0.0,0.0,0.0,0.0,0.0,7.5601,7.5873,7.6644,7.6827,7.7011,7.7656,7.8369,7.8809,7.8809,7.9522,8.0036,8.0036,8.0293,8.0514,8.0514,8.022,8.011,8.0257,8.0975,8.1509,8.1709,8.2904,8.3711,8.3858,8.4646,8.5159,8.5306,8.6077,8.6481,8.6481,8.7802,8.8426,8.8426,8.9069,8.94,8.94,8.94,8.9033,8.839,8.7748,8.7105,8.6444,8.582,8.5527,8.5527,8.5527,8.4756,8.3508,8.2884,8.2663,8.2663,8.2663,8.2663,8.2663,8.2663,8.2663,8.2663,8.2663,8.2663,8.281,8.3454,8.3638,8.3785,8.4425,8.4609,8.4609,8.4609,8.4609,8.4609,8.4609,8.4609,8.4609,8.4609,8.4609,8.4609,8.4609,8.4609,8.3728,8.1138,8.0734,8.0734,8.0734,8.0734,8.0734,8.0734,8.0734,8.0734,8.0734,8.0587,8.0514,8.0514,8.0367,8.0257,8.0257,8.0257,8.0257,8.0257,8.0257,8.0257,8.0257,8.0257,8.0257,8.0257,8.044,7.9984,7.4793,7.483,7.505,7.5799,7.5909,7.624,0.0,7.8185,7.8405,7.9229,7.9376,7.9412,7.9522,7.9596,7.9669,7.9669,8.0351,8.0865,8.0865,8.2096,8.2977,8.2977,8.1746,8.1158,8.1856,8.2663,8.3418,8.4132,8.4352,8.4792,8.549,8.6297,8.7068,8.7766,8.8556,8.8996,8.8996,8.9179,8.9253,8.9253,8.9363,8.94,8.94,8.94,8.9363,8.9253,8.9179,8.9069,8.8996,8.8886,8.8849,8.8849,8.8849,8.8739,8.8262,8.538,8.4315,8.4315,8.4315,8.4315,8.4315,8.4315,8.4315,8.4315,8.4315,8.4315,8.4352,8.4425,8.4462,8.4499,8.4572,8.4609,8.4609,8.4609,8.4609,8.4609,8.4609,8.4609,8.4609,8.4609,8.4609,8.4609,8.4609,8.4609,8.4499,8.4132,8.4058,8.4058,8.4058,8.4058,8.4058,8.4058,8.4058,8.4058,8.4058,8.3434,8.2977,8.2977,8.2333,8.1929,8.1929,8.1929,8.1929,8.1929,8.1929,8.1929,8.1929,8.1929,8.1929,8.1929,8.2663,8.217,7.6937,7.6665,7.6592,7.7928,7.7892,7.7855,7.9045,7.9302,7.9522,8.0314,8.0498,8.0645,8.1085,8.1211,8.1342,8.1819,8.2186,8.2537,8.303,8.3691,8.4095,8.4095,8.3911,8.3728,8.3618,8.4315,8.5123,8.593,8.6444,8.7068,8.7876,8.8189,8.8556,8.8886,8.9216,8.94,8.94,8.984,9.0097,9.0097,9.0592,9.0812,9.0812,9.0812,9.0555,9.006,8.9583,8.94,8.94,8.94,8.94,8.94,8.94,8.94,8.9253,8.7895,8.7381,8.7308,8.6848,8.6701,8.6628,8.6151,8.6004,8.6077,8.6554,8.6701,8.6811,8.7234,8.7381,8.7381,8.7381,8.7381,8.7381,8.7381,8.7381,8.7381,8.7381,8.7381,8.7381,8.7381,8.7381,8.7381,8.7381,8.7381,8.7381,8.7381,8.582,8.4609,8.4609,8.4609,8.4609,8.4609,8.4609,8.4609,8.4609,8.4278,8.4095,8.4095,8.3765,8.3581,8.3581,8.3581,8.3581,8.3581,8.3581,8.3581,8.3581,8.3581,8.3581,8.3618,8.4425,8.4682,7.8369,7.8148,7.806,7.9727,7.969,7.947,8.0293,8.0477,8.0697,8.1489,8.1656,8.1929,8.27,8.2847,8.3067,8.3638,8.3711,8.3931,8.4535,8.4792,8.4939,8.4939,8.582,8.6224,8.5637,8.6114,8.6701,8.7288,8.8096,8.8793,8.9363,8.962,8.973,8.973,8.995,9.006,9.006,9.0629,9.0922,9.0959,9.151,9.1803,9.1803,9.1803,9.1473,9.0922,9.0317,9.006,9.006,9.006,9.006,9.006,9.006,9.006,9.006,9.006,8.9767,8.9326,8.872,8.8536,8.8426,8.7858,8.7675,8.7748,8.8353,8.8536,8.8647,8.9253,8.94,8.94,8.94,8.94,8.94,8.94,8.94,8.94,8.94,8.94,8.94,8.94,8.94,8.94,8.94,8.94,8.94,8.94,8.7418,8.5913,8.5913,8.5913,8.5913,8.5913,8.5913,8.5913,8.5913,8.5913,8.5913,8.5913,8.5913,8.5913,8.5913,8.5913,8.5913,8.5913,8.5913,8.5913,8.5913,8.5913,8.5913,8.593,8.6518,8.7105,7.8369,7.8589,7.8956,8.0571,8.0938,8.1158,8.1929,8.2113,8.237,8.3161,8.3344,8.3564,8.4389,8.4535,8.4535,8.4572,8.4572,8.4572,8.4609,8.527,8.5747,8.5747,8.7142,8.8133,8.8096,8.8096,8.8133,8.8169,8.8923,8.9363,8.94,9.0134,9.0537,9.0537,9.1326,9.173,9.173,9.173,9.1767,9.1767,9.1803,9.1803,9.1803,9.1803,9.1803,9.1767,9.173,9.173,9.173,9.173,9.173,9.173,9.173,9.173,9.173,9.173,9.0739,8.94,8.9363,8.9363,8.9363,8.9326,8.9326,8.9326,8.9363,8.9363,8.9363,8.94,8.94,8.94,8.94,8.94,8.94,8.94,8.94,8.94,8.94,8.94,8.94,8.94,8.94,8.94,8.94,8.94,8.94,8.94,8.9326,8.9253,8.9253,8.9253,8.9253,8.9253,8.9253,8.9253,8.9253,8.9253,8.9253,8.9253,8.9253,8.9253,8.9253,8.9253,8.9253,8.9253,8.9253,8.9253,8.9253,8.9253,8.9253,8.9253,8.929,8.929,7.9984,8.0204,8.0461,8.1525,8.2186,8.2647,8.2904,8.3398,8.3875,8.4132,8.3748,8.3491,8.3748,8.3361,8.3361,8.4425,8.4609,8.4976,8.604,8.6885,8.7399,8.7399,8.8353,8.8996,8.8996,8.8996,8.9216,8.9748,9.0024,9.0445,9.0959,9.1253,9.14,9.14,9.1657,9.1803,9.1803,9.1803,9.1803,9.1803,9.1803,9.1803,9.1803,9.1803,9.1803,9.1803,9.1803,9.1803,9.1803,9.1803,9.1803,9.1803,9.1803,9.1803,9.1803,9.1803,9.1473,9.0922,9.0391,9.0207,9.0097,8.9583,8.94,8.951,9.0024,9.0207,9.0317,9.0849,9.0996,9.0996,9.0996,9.0996,9.0996,9.0996,9.0996,9.0996,9.0996,9.0996,9.0996,9.0996,9.0996,9.0996,9.0996,9.0996,9.0996,9.0996,9.006,8.94,8.94,8.94,8.94,8.94,8.94,8.94,8.94,8.94,8.94,8.94,8.94,8.94,8.94,8.94,8.94,8.94,8.94,8.94,8.94,8.94,8.94,8.94,8.995,9.0207,8.1122,8.1415,8.1709,8.2774,8.3434,8.3821,8.3821,8.4242,8.4609,8.4609,8.4205,8.3821,8.3821,8.3398,8.3471,8.4792,8.5013,8.56,8.7215,8.7876,8.8316,8.861,8.9326,8.984,8.984,9.0097,9.0354,9.0592,9.0886,9.1253,9.1767,9.1803,9.1803,9.1803,9.1803,9.1803,9.1803,9.1803,9.1803,9.1803,9.1803,9.1803,9.1803,9.1803,9.1803,9.1803,9.1803,9.1803,9.1803,9.1803,9.1803,9.1803,9.1803,9.1803,9.1803,9.1803,9.1803,9.173,9.1216,9.1033,9.0959,9.0445,9.0244,9.0354,9.0886,9.1033,9.1143,9.1657,9.1803,9.1803,9.1803,9.1803,9.1803,9.1803,9.1803,9.1803,9.1803,9.1803,9.1803,9.1803,9.1803,9.1803,9.1803,9.1803,9.1803,9.1803,9.0922,9.0244,9.0244,9.0244,9.0244,9.0244,9.0244,9.0244,9.0244,9.0244,9.0244,9.0244,9.0244,9.0244,9.0244,9.0244,9.0244,9.0244,9.0244,9.0244,9.0244,9.0244,9.0244,9.028,9.0812,9.1033,8.1909,8.2333,8.27,8.4205,8.4646,8.4646,8.4646,8.4646,8.4646,8.4646,8.4609,8.4535,8.4535,8.4535,8.4792,8.56,8.5764,8.6371,8.7986,8.8243,8.8573,8.9363,9.017,9.0665,9.0665,9.1363,9.1473,9.0739,9.1363,9.1803,9.1803,9.1803,9.1803,9.1803,9.1803,9.1803,9.1803,9.1803,9.1803,9.1803,9.1803,9.1803,9.1803,9.1803,9.1803,9.1803,9.1803,9.1803,9.1803,9.1803,9.1803,9.1803,9.1803,9.1803,9.1803,9.1803,9.1803,9.1803,9.1803,9.1803,9.1803,9.1803,9.1803,9.1803,9.1803,9.1803,9.1803,9.1803,9.1803,9.1803,9.1803,9.1803,9.1803,9.1803,9.1803,9.1803,9.1803,9.1803,9.1803,9.1803,9.1803,9.1822,9.1839,9.184,9.184,9.1912,9.1875,9.1858,9.1822,9.1858,9.1839,9.1839,9.1893,9.1912,9.1912,9.1912,9.1893,9.1839,9.1839,9.1821,9.1803,9.1803,9.1803,9.1803,9.1803,9.1803,9.1803,9.1803,9.1803,9.1803,9.1803,9.1803,8.3544,8.3985,8.4095,8.4499,8.5049,8.549,8.549,8.549,8.549,8.549,8.4535,8.3711,8.3711,8.3711,8.3968,8.4792,8.5416,8.6371,8.7986,8.8702,8.94,9.0207,9.0996,9.1473,9.1473,9.1693,9.1693,9.151,9.1693,9.1803,9.1803,9.1803,9.1803,9.1803,9.1803,9.1803,9.1803,9.1803,9.1803,9.1803,9.1803,9.1803,9.1803,9.1803,9.1803,9.1803,9.1803,9.1803,9.1803,9.1803,9.1803,9.1803,9.1803,9.1803,9.1803,9.1803,9.1803,9.1803,9.1803,9.1803,9.1803,9.1803,9.1803,9.1803,9.1803,9.1803,9.1803,9.1803,9.1803,9.1803,9.1803,9.1803,9.1803,9.1803,9.1803,9.1803,9.1803,9.1803,9.1803,9.1803,9.1803,9.2001,9.2582,9.2212,9.2175,9.3334,9.3045,9.2485,9.1857,9.2314,9.2699,9.2699,9.3202,9.3515,9.3515,9.3515,9.3257,9.2732,9.2699,9.2434,9.184,9.1803,9.1803,9.1803,9.1803,9.1803,9.1803,9.1803,9.1803,9.1803,9.1803,9.1803,8.4792,8.5123,8.5196,8.5563,8.6004,8.6224,8.5874,8.58,8.56,8.4903,8.4315,8.3931,8.3931,8.3931,8.4315,8.549,8.604,8.6885,8.85,8.94,9.0207,9.1033,9.1546,9.1803,9.1803,9.1803,9.1803,9.1803,9.1803,9.1803,9.1803,9.1803,9.1803,9.1803,9.1803,9.1803,9.1803,9.1803,9.1803,9.1803,9.1803,9.1803,9.1822,9.2177,9.2314,9.2348,9.2662,9.2789,9.2789,9.2789,9.2789,9.2789,9.2789,9.2789,9.2789,9.2789,9.2789,9.2789,9.2789,9.2789,9.2711,9.2,9.1803,9.1803,9.1803,9.1803,9.1803,9.1803,9.1803,9.1803,9.1803,9.1803,9.1875,9.2227,9.2036,9.2001,9.2662,9.2566,9.2397,9.2761,9.2789,9.295,9.338,9.3108,9.3236,9.4443,9.429,9.3992,9.3907,9.3644,9.3455,9.3455,9.385,9.4102,9.4102,9.4102,9.3921,9.3522,9.3455,9.3295,9.2821,9.2789,9.2789,9.2789,9.2789,9.2645,9.2314,9.2314,9.2142,9.1803,9.1803,9.1803,8.5747,8.5967,8.6114,8.6848,8.6978,8.6811,8.5967,8.58,8.538,8.3858,8.4115,8.4646,8.4756,8.4756,8.5306,8.6904,8.7178,8.7711,8.9326,9.017,9.0922,9.1693,9.1803,9.1803,9.1803,9.1803,9.1803,9.1803,9.1803,9.1803,9.1803,9.1803,9.184,9.195,9.195,9.2024,9.2134,9.2242,9.226,9.226,9.2292,9.2271,9.2289,9.29,9.3161,9.3171,9.3821,9.4102,9.4102,9.4102,9.4102,9.4102,9.4102,9.4102,9.4102,9.4102,9.4178,9.4253,9.4253,9.4342,9.417,9.2603,9.2106,9.2106,9.2106,9.2106,9.2106,9.2106,9.2106,9.2106,9.2106,9.2106,9.2316,9.3099,9.2781,9.2667,9.4137,9.3927,9.3693,9.433,9.4418,9.4445,9.454,9.4486,9.4751,9.5634,9.5669,9.5907,9.6785,9.5542,9.4592,9.4592,9.4686,9.4701,9.4701,9.4625,9.451,9.4416,9.4327,9.4211,9.4116,9.4102,9.4102,9.4102,9.4102,9.3778,9.3161,9.3161,9.2777,9.2106,9.2093,9.2184,8.6591,8.6811,8.6848,8.6978,8.6978,8.6811,8.5967,8.58,8.5527,8.4609,8.4499,8.4792,8.5453,8.56,8.6114,8.7729,8.7986,8.8536,9.017,9.0519,9.0922,9.1693,9.1803,9.1803,9.1803,9.1803,9.1803,9.1803,9.1803,9.1803,9.1803,9.1803,9.2134,9.2868,9.2868,9.3198,9.3859,9.4484,9.4801,9.4764,9.4736,9.4675,9.4689,9.4165,9.3907,9.3921,9.4047,9.4102,9.4102,9.4102,9.4102,9.4102,9.4102,9.4102,9.4102,9.4102,9.4531,9.5073,9.5073,9.5578,9.5889,9.4235,9.3706,9.3706,9.3706,9.3706,9.3706,9.3706,9.3706,9.3706,9.3706,9.3706,9.39,9.4698,9.4776,9.495,9.5951,9.606,9.6003,9.6144,9.6158,9.635,9.6981,9.6588,9.6639,9.8002,9.7673,9.7574,9.8316,9.7623,9.7079,9.7079,9.7642,9.7984,9.7984,9.7332,9.6636,9.6024,9.5379,9.4743,9.413,9.4102,9.4102,9.4102,9.4102,9.4047,9.3907,9.3907,9.385,9.3692,9.3754,9.4116,8.6371,8.6701,8.6978,8.6978,8.6978,8.6811,8.5967,8.58,8.5563,8.4756,8.4939,8.5453,8.6261,8.6407,8.6811,8.8023,8.8573,8.9069,8.9877,9.0702,9.1363,9.173,9.1803,9.1803,9.1803,9.2207,9.2464,9.2464,9.2868,9.2905,9.2501,9.2868,9.3473,9.4284,9.4284,9.4673,9.5507,9.5844,9.6006,9.6006,9.5974,9.5969,9.5983,9.5955,9.5971,9.5983,9.6365,9.6543,9.6543,9.6543,9.6543,9.6543,9.6543,9.6543,9.6543,9.6543,9.6772,9.7116,9.7116,9.7394,9.7623,9.681,9.6021,9.5389,9.5389,9.5389,9.5389,9.5389,9.5389,9.5389,9.5389,9.5389,9.5599,9.6387,9.684,9.7148,9.7161,9.7473,9.7738,9.7738,9.7738,9.7868,9.8221,9.797,9.8123,9.9298,9.9168,9.925,9.999,9.98,9.9221,9.8378,9.8604,9.8788,9.8788,9.8404,9.8029,9.7661,9.7305,9.691,9.6555,9.6543,9.6543,9.6543,9.6543,9.6341,9.5971,9.5971,9.579,9.5413,9.5418,9.5636,8.6187,8.6518,8.6978,8.6978,8.6978,8.6811,8.5967,8.593,8.582,8.5013,8.549,8.6297,8.7105,8.7124,8.7308,8.8316,8.8849,8.9253,8.962,9.0739,9.162,9.1767,9.1803,9.1877,9.206,9.2721,9.3161,9.3345,9.4246,9.4448,9.3619,9.419,9.4967,9.587,9.5902,9.6305,9.7102,9.7306,9.7388,9.7388,9.7346,9.7349,9.7362,9.7756,9.7936,9.7959,9.8546,9.8788,9.8788,9.8788,9.8788,9.8788,9.8788,9.8788,9.8788,9.8788,9.8904,9.9067,9.9067,9.9173,9.9327,9.9327,9.8298,9.707,9.707,9.707,9.707,9.707,9.707,9.707,9.707,9.707,9.7249,9.8013,9.8807,9.9182,9.8599,9.8933,9.9327,9.9327,9.9327,9.9327,9.9327,9.9327,9.9558,10.0298,10.0414,10.0596,10.1202,10.1279,10.0789,9.9481,9.9327,9.9327,9.9327,9.9173,9.9067,9.9067,9.8904,9.8788,9.8788,9.8788,9.8788,9.8788,9.8788,9.8516,9.7936,9.7936,9.7656,9.707,9.7101,9.719,8.6701,8.6941,8.6978,8.6978,8.6978,8.6811,8.5967,8.6371,8.6664,8.5857,8.6334,8.7142,8.7949,8.7509,8.7491,8.9033,8.8757,8.883,9.028,9.0629,9.0996,9.1693,9.1803,9.2097,9.2905,9.3051,9.3418,9.4116,9.5575,9.6054,9.5235,9.5273,9.6014,9.7548,9.7577,9.7983,9.8757,9.9491,9.9883,9.9883,9.9796,9.9776,9.9738,9.9009,9.8683,9.8692,9.8769,9.8788,9.8788,9.8788,9.8788,9.8788,9.8788,9.8788,9.8788,9.8788,9.9298,9.999,9.999,10.0481,10.1096,10.1096,9.9951,9.8614,9.8614,9.8614,9.8614,9.8614,9.8614,9.8614,9.8614,9.8614,9.8816,9.9682,10.049,10.1115,10.0989,10.098,10.1096,10.1096,10.1096,10.1096,10.1096,10.1096,10.1087,10.1212,10.1212,10.1202,10.1279,10.1279,10.1202,10.1087,10.1096,10.1096,10.1096,10.0404,9.999,9.999,9.9259,9.8788,9.8788,9.8788,9.8788,9.8788,9.8788,9.8769,9.8683,9.8683,9.8663,9.8604,9.8644,9.9072,8.56,8.6261,8.6978,8.6978,8.6978,8.6904,8.6591,8.6775,8.6904,8.6591,8.6775,8.7088,8.7435,8.7215,8.7198,8.7858,8.8096,8.861,8.973,9.028,9.0922,9.1693,9.1803,9.2134,9.3015,9.3962,9.5237,9.6996,9.7683,9.8117,9.8289,9.7837,9.809,9.9212,9.9225,9.9606,10.0413,10.0689,10.0885,10.0885,10.0796,10.0789,10.0789,10.0519,10.0289,10.0289,10.0289,10.0289,10.0289,10.0289,10.0289,10.0289,10.0289,10.0289,10.0289,10.0289,10.0519,10.0789,10.0789,10.1019,10.1279,10.1279,10.0779,10.0289,10.0289,10.0289,10.0289,10.0289,10.0289,10.0289,10.0289,10.0289,10.0404,10.0712,10.1096,10.1279,10.1279,10.1279,10.1279,10.1279,10.1279,10.1279,10.1279,10.1279,10.1279,10.1279,10.1279,10.1279,10.1279,10.1279,10.1279,10.1279,10.1279,10.1279,10.1279,10.1019,10.0789,10.0789,10.0519,10.0289,10.0289,10.0289,10.0289,10.0289,10.0289,10.0289,10.0289,10.0289,10.0289,10.0279,10.0289,10.0502,8.4976,8.5783,8.6701,8.6941,8.6794,8.6701,8.6941,8.6811,8.6701,8.6941,8.6978,8.6978,8.6978,8.6978,8.6978,8.6978,8.7472,8.8133,8.8923,8.973,9.0482,9.1033,9.1725,9.2491,9.3339,9.5273,9.7275,9.9215,9.9346,9.9693,10.0509,9.9999,9.9961,10.0482,10.0505,10.082,10.1317,10.1279,10.1279,10.1279,10.1279,10.1279,10.1279,10.1279,10.1279,10.1279,10.1279,10.1279,10.1279,10.1279,10.1279,10.1279,10.1279,10.1279,10.1279,10.1279,10.1279,10.1279,10.1279,10.1279,10.1279,10.1279,10.1279,10.1279,10.1279,10.1279,10.1279,10.1279,10.1279,10.1279,10.1279,10.1279,10.1279,10.1279,10.1279,10.1279,10.1279,10.1279,10.1279,10.1279,10.1279,10.1279,10.1279,10.1279,10.1279,10.1279,10.1279,10.1279,10.1279,10.1279,10.1279,10.1279,10.1279,10.1279,10.1279,10.1279,10.1279,10.1279,10.1279,10.1279,10.1279,10.1279,10.1279,10.1279,10.1279,10.1279,10.1279,10.1279,10.1279,10.1279,10.1279,10.1279,8.5343,8.58,8.6004,8.6794,8.6407,8.6004,8.6811,8.6371,8.604,8.6848,8.6978,8.6978,8.6978,8.6978,8.6978,8.6978,8.7014,8.7271,8.8096,8.8886,8.9436,8.9436,9.1519,9.3285,9.4116,9.7095,9.9318,10.0085,10.0223,10.0482,10.1211,10.1308,10.1308,10.1308,10.1317,10.1317,10.1279,10.1279,10.1279,10.1279,10.1279,10.1279,10.1279,10.1279,10.1279,10.1279,10.1279,10.1279,10.1279,10.1279,10.1279,10.1279,10.1279,10.1279,10.1279,10.1279,10.1279,10.1279,10.1279,10.1279,10.1279,10.1279,10.1279,10.1279,10.1279,10.1279,10.1279,10.1279,10.1279,10.1279,10.1279,10.1279,10.1279,10.1279,10.1279,10.1279,10.1279,10.1279,10.1279,10.1279,10.1279,10.1279,10.1279,10.1279,10.1279,10.1279,10.1279,10.1279,10.1279,10.1279,10.1279,10.1279,10.1279,10.1279,10.1279,10.1279,10.1279,10.1279,10.1279,10.1279,10.1279,10.1279,10.1279,10.1279,10.1279,10.1279,10.1279,10.1279,10.1279,10.1279,10.1279,10.1279,8.4005,8.4572,8.5049,8.5306,8.5159,8.5196,8.6004,8.5967,8.604,8.6848,8.6978,8.6978,8.6978,8.6978,8.6978,8.6978,8.6978,8.7288,8.8096,8.9324,9.037,9.091,9.3609,9.5922,9.7331,9.8882,10.011,10.0906,10.0997,10.1109,10.1308,10.1279,10.1279,10.1279,10.1279,10.1279,10.1279,10.1279,10.1279,10.1279,10.1279,10.1279,10.1279,10.1279,10.1279,10.1279,10.1279,10.1279,10.1279,10.1279,10.1279,10.1279,10.1279,10.1279,10.1279,10.1279,10.1279,10.1279,10.1279,10.1279,10.1279,10.1279,10.1279,10.1279,10.1279,10.1279,10.1279,10.1279,10.1279,10.1279,10.1279,10.1279,10.1279,10.1279,10.1279,10.1279,10.1279,10.1279,10.1279,10.1279,10.1279,10.1279,10.1279,10.1279,10.1279,10.1279,10.1279,10.1279,10.1279,10.1279,10.1279,10.1279,10.1279,10.1279,10.1279,10.1279,10.1279,10.1279,10.1279,10.1279,10.1279,10.1279,10.1279,10.1279,10.1279,10.1279,10.1279,10.1279,10.1279,10.1279,10.1279,10.1279,8.3308,8.3748,8.4242,8.4535,8.4389,8.4462,8.5527,8.5563,8.5673,8.6757,8.6978,8.6978,8.6978,8.6978,8.6978,8.6978,8.6978,8.7262,8.8042,8.9246,9.0774,9.2786,9.5083,9.7262,9.9238,10.0086,10.0804,10.1298,10.1279,10.1279,10.1279,10.1279,10.1279,10.1279,10.1279,10.1279,10.1279,10.1279,10.1279,10.1279,10.1279,10.1279,10.1279,10.1279,10.1279,10.1279,10.1279,10.1279,0.0,10.1279,10.1279,10.1279,10.1279,10.1279,10.1279,10.1279,10.1279,10.1279,10.1279,10.1279,10.1279,10.1279,10.1279,10.1279,10.1279,10.1279,10.1279,10.1279,10.1279,10.1279,10.1279,10.1279,10.1279,10.1279,10.1279,10.1279,10.1279,10.1279,10.1279,10.1279,10.1279,10.1279,10.1279,10.1279,10.1279,10.1279,10.1279,10.1279,10.1279,10.1279,10.1279,10.1279,10.1279,10.1279,10.1279,10.1279,10.1279,10.1279,10.1279,10.1279,10.1279,10.1279,10.1279,10.1279,10.1279,10.1279,10.1279,10.1279,10.1279,10.1279,10.1279,10.1279,0.0,8.3308,8.3491,8.4242,8.3875,8.3748,8.5343,8.5123,0.0,8.6647,8.6978,8.6978,8.6978,8.6978,8.6978,8.6978,8.7046,8.7311,8.8,8.8943,9.0987,9.489,9.6131,9.7588,9.9942,10.0904,10.1279,10.1279,10.1279,10.1279,10.1279,10.1279,10.1279,10.1279,10.1279,10.1279,10.1279,10.1279,10.1279,10.1279,10.1279,10.1279,10.1279,10.1279,10.1279,10.1279,10.1279,10.1279,10.1279,10.1279,10.1279,10.1279,10.1279,10.1279,10.1279,10.1279,10.1279,10.1279,10.1279,10.1279,10.1279,10.1279,10.1279,10.1279,10.1279,10.1279,10.1279,10.1279,10.1279,10.1279,10.1279,10.1279,10.1279,10.1279,10.1279,10.1279,10.1279,10.1279,10.1279,10.1279,10.1279,10.1279,10.1279,10.1279,10.1279,10.1279,10.1279,10.1279,10.1279,10.1279,10.1279,10.1279,10.1279,10.1279,10.1279,10.1279,10.1279,10.1279,10.1279,10.1279,10.1279,10.1279,10.1279,10.1279,10.1279,10.1279,10.1279,10.1279,10.1279,10.1279,10.1279,10.1279,8.2443,0.0,8.2517,8.27,8.2627,8.2884,0.0,8.4756,8.5049,8.6647,8.6978,8.6978,8.6978,8.6978,8.6978,8.6978,8.7456,8.7914,8.8076,9.0298,9.3168,9.6575,9.7729,9.898,10.0808,10.1212,10.1279,10.1279,10.1279,10.1279,10.1279,10.1279,10.1279,10.1279,10.1279,10.1279,10.1279,10.1279,10.1279,10.1279,10.1279,10.1279,10.1279,10.1279,10.1279,10.1279,10.1279,10.1279,10.1279,10.1279,10.1279,10.1279,10.1279,10.1279,10.1279,10.1279,10.1279,10.1279,10.1279,10.1279,10.1279,10.1279,10.1279,10.1279,10.1279,10.1279,10.1279,10.1279,10.1279,10.1279,10.1279,10.1279,10.1279,10.1279,10.1279,10.1279,10.1279,10.1279,10.1279,10.1279,10.1279,10.1279,10.1279,10.1279,10.1279,10.1279,10.1279,10.1279,10.1279,10.1279,10.1279,10.1279,10.1279,10.1279,10.1279,10.1279,10.1279,10.1279,10.1279,10.1279,10.1279,10.1279,10.1279,10.1279,10.1279,10.1279,10.1279,10.1279,10.1279,10.1279,10.1279,10.1279,8.2186,8.2186,8.2186,8.2186,8.2186,8.2517,8.3765,8.4352,8.4939,8.6187,8.6738,8.6978,8.6978,8.7298,8.7394,8.7046,8.8227,8.9391,9.0109,9.2611,9.5143,9.726,9.8634,9.9904,10.1212,10.1279,10.1279,10.1279,10.1279,10.1279,10.1279,10.1279,10.1279,10.1279,10.1279,10.1279,10.1279,10.1279,10.1279,10.1279,10.1279,10.1279,10.1279,10.1279,10.1279,10.1279,10.1279,10.1279,10.1279,10.1279,10.1279,10.1279,10.1279,10.1279,10.1279,10.1279,10.1279,10.1279,10.1279,10.1279,10.1279,10.1279,10.1279,10.1279,10.1279,10.1279,10.1279,10.1279,10.1279,10.1279,10.1279,10.1279,10.1279,10.1279,10.1279,10.1279,10.1279,10.1279,10.1279,10.1279,10.1279,10.1279,10.1279,10.1279,10.1279,10.1279,10.1279,10.1279,10.1279,10.1279,10.1279,10.1279,10.1279,10.1279,10.1279,10.1279,10.1279,10.1279,10.1279,10.1279,10.1279,10.1279,10.1279,10.1279,10.1279,10.1279,10.1279,10.1279,10.1279,10.1279,10.1279,10.1279,8.2186,8.2186,8.2186,8.2186,8.2186,8.2443,8.3381,8.4115,8.4866,8.5783,8.6518,8.7066,8.733,8.7847,8.8146,8.7776,8.9411,9.1255,9.2635,9.4838,9.6596,9.7403,9.9019,10.0404,10.1202,10.1279,10.1279,10.1279,10.1279,10.1279,10.1279,10.1279,10.1279,10.1279,10.1279,10.1279,10.1279,10.1279,10.1279,10.1279,10.1279,10.1279,10.1279,10.1279,10.1279,10.1279,10.1279,10.1279,10.1279,10.1279,10.1279,10.1279,10.1279,10.1279,10.1279,10.1279,10.1279,10.1279,10.1279,10.1279,10.1279,10.1279,10.1279,10.1279,10.1279,10.1279,10.1279,10.1279,10.1279,10.1279,10.1279,10.1279,10.1279,10.1279,10.1279,10.1279,10.1279,10.1279,10.1279,10.1279,10.1279,10.1279,10.1279,10.1279,10.1279,10.1279,10.1279,10.1279,10.1279,10.1279,10.1279,10.1279,10.1279,10.1279,10.1279,10.1279,10.1279,10.1279,10.1279,10.1279,10.1279,10.1279,10.1279,10.1279,10.1279,10.1279,10.1279,10.1279,10.1279,10.1279,10.1279,10.1279,8.2186,8.2186,8.2186,8.2186,8.2186,8.259,8.4095,8.4499,8.5013,8.6518,8.6904,8.7418,8.8705,8.9029,8.9489,9.0691,9.1711,9.2619,9.3419,9.5126,9.6596,9.7403,9.9019,10.0404,10.1202,10.1279,10.1279,10.1279,10.1279,10.1279,10.1279,10.1279,10.1279,10.1279,10.1279,10.1279,10.1279,10.1279,10.1279,10.1279,10.1279,10.1279,10.1279,10.1279,10.1279,10.1279,10.1279,10.1279,10.1279,10.1279,10.1279,10.1279,10.1279,10.1279,10.1279,10.1279,10.1279,10.1279,10.1279,10.1279,10.1279,10.1279,10.1279,10.1279,10.1279,10.1279,10.1279,10.1279,10.1279,10.1279,10.1279,10.1279,10.1279,10.1279,10.1279,10.1279,10.1279,10.1279,10.1279,10.1279,10.1279,10.1279,10.1279,10.1279,10.1279,10.1279,10.1279,10.1279,10.1279,10.1279,10.1279,10.1279,10.1279,10.1279,10.1279,10.1279,10.1279,10.1279,10.1279,10.1279,10.1279,10.1279,10.1279,10.1279,10.1279,10.1279,10.1279,10.1279,10.1279,10.1279,10.1279,10.1279,8.2186,8.2186,8.2296,8.2737,8.2517,8.2517,8.3691,8.4278,8.4939,8.6114,8.6701,8.7469,8.9042,8.9614,9.0651,9.3057,9.3387,9.3753,9.4954,9.6557,9.7788,9.8173,9.9712,10.0904,10.1289,10.1279,10.1279,10.1279,10.1279,10.1279,10.1279,10.1279,10.1279,10.1279,10.1279,10.1279,10.1279,10.1279,10.1279,10.1279,10.1279,10.1279,10.1279,10.1279,10.1279,10.1279,10.1279,10.1279,10.1279,10.1279,10.1279,10.1279,10.1279,10.1279,10.1279,10.1279,10.1279,10.1279,10.1279,10.1279,10.1279,10.1279,10.1279,10.1279,10.1279,10.1279,10.1394,10.1904,10.1712,10.1279,10.1279,10.1587,10.202,10.202,10.2404,10.2712,10.2712,10.2712,10.2712,10.2712,10.2712,10.2712,10.2712,10.2712,10.2712,10.2712,10.2289,10.202,10.202,10.1597,10.1279,10.1279,10.1279,10.1279,10.1279,10.1279,10.1279,10.1279,10.1279,10.1279,10.1279,10.1279,10.1279,10.1279,10.1279,10.1279,10.1279,10.1279,10.1279,10.1279,10.1279,10.1279,8.2186,8.2186,8.2333,8.2994,8.281,8.281,8.3968,8.4719,8.5453,8.6444,8.7277,8.8302,8.9855,9.103,9.2486,9.4638,9.4711,9.4895,9.6116,9.775,9.8788,9.8788,10.0289,10.1279,10.1279,10.1279,10.1279,10.1279,10.1279,10.1279,10.1279,10.1279,10.1279,10.1279,10.1279,10.1279,10.1279,10.1279,10.1279,10.1279,10.1279,10.1279,10.1279,10.1279,10.1279,10.1279,10.1279,10.1279,10.1279,10.1279,10.1279,10.1279,10.1279,10.1279,10.1279,10.1279,10.1279,10.1279,10.1279,10.1279,10.1279,10.1279,10.1279,10.1279,10.1279,10.1394,10.1702,10.2404,10.2289,10.1904,10.1904,10.2404,10.2904,10.2904,10.3405,10.3905,10.3905,10.3905,10.3905,10.3905,10.3905,10.3905,10.3905,10.3905,10.3905,10.3905,10.3289,10.2904,10.2904,10.2289,10.1904,10.1904,10.1702,10.151,10.1279,10.1279,10.1279,10.1279,10.1279,10.1279,10.1279,10.1279,10.1279,10.1279,10.1279,10.1279,10.1279,10.1279,10.1279,10.1279,10.1279,10.1279,8.2186,8.2186,8.2223,8.226,8.281,8.3931,8.6207,8.6794,8.7271,8.8812,8.9736,9.0728,9.225,9.435,9.5665,9.5095,9.5645,9.6174,9.6279,9.775,9.8788,9.8788,10.0289,10.1279,10.1279,10.1279,10.1279,10.1279,10.1279,10.1279,10.1279,10.1279,10.1279,10.1279,10.1279,10.1279,10.1279,10.1279,10.1279,10.1279,10.1279,10.1279,10.1279,10.1279,10.1279,10.1279,10.1279,10.1279,10.1279,10.1279,10.1279,10.1279,10.1279,10.1279,10.1279,10.1279,10.1279,10.1279,10.1279,10.1279,10.1279,10.1279,10.1279,10.1279,10.1279,10.1904,10.252,10.2597,10.3097,10.3712,10.3712,10.3789,10.3789,10.3789,10.3915,10.3905,10.3905,10.3905,10.3905,10.3905,10.3905,10.3905,10.3905,10.3905,10.3905,10.3905,10.3789,10.3789,10.3789,10.3789,10.3712,10.3712,10.2981,10.2212,10.1394,10.1279,10.1279,10.1279,10.1279,10.1279,10.1279,10.1279,10.1279,10.1279,10.1279,10.1279,10.1279,10.1279,10.1279,10.1279,10.1279,10.1279,8.2186,8.2882,8.3605,8.3693,8.4631,8.5699,8.6139,8.7031,8.8059,8.9179,8.9971,9.1118,9.3113,9.5045,9.6211,9.5865,9.6095,9.648,9.698,9.8057,9.8981,9.9529,10.0596,10.1279,10.1279,10.1279,10.1279,10.1279,10.1279,10.1279,10.1279,10.1279,10.1279,10.1279,10.1279,10.1279,10.1279,10.1279,10.1279,10.1279,10.1279,10.1279,10.1279,10.1279,10.1279,10.1279,10.1279,10.1279,10.1279,10.1279,10.1279,10.1279,10.1279,10.1279,10.1279,10.1279,10.1279,10.1279,10.1279,10.1279,10.1279,10.1279,10.1279,10.1394,10.1894,10.2289,10.2789,10.3905,10.4405,10.4482,10.3982,10.4299,10.4597,10.4597,10.5097,10.5482,10.5482,10.5482,10.5482,10.5482,10.5482,10.5482,10.5482,10.5482,10.5482,10.5482,10.4982,10.4597,10.4597,10.4212,10.3905,10.3905,10.3597,10.3289,10.2904,10.2904,10.2904,10.2904,10.1904,10.1279,10.1279,10.1279,10.1279,10.1279,10.1279,10.1279,10.1279,10.1279,10.1279,10.1279,10.1279,10.1279,8.2554,8.3424,8.4472,8.479,8.6272,8.7577,8.7306,8.7928,8.8857,8.9927,9.1134,9.2455,9.3988,9.5376,9.6211,9.5942,9.6134,9.6596,9.7403,9.825,9.9096,9.999,10.0789,10.1279,10.1279,10.1279,10.1279,10.1279,10.1279,10.1279,10.1279,10.1279,10.1279,10.1279,10.1279,10.1279,10.1279,10.1279,10.1279,10.1279,10.1279,10.1279,10.1279,10.1279,10.1279,10.1279,10.1279,10.1279,10.1279,10.1279,10.1279,10.1279,10.1279,10.1279,10.1279,10.1279,10.1279,10.1279,10.1279,10.1279,10.1279,10.1279,10.151,10.1779,10.2404,10.2981,10.3597,10.4789,10.529,10.5405,10.4789,10.5097,10.5482,10.5482,10.602,10.6395,10.6395,10.6395,10.6395,10.6395,10.6395,10.6395,10.6395,10.6395,10.6395,10.6395,10.5905,10.5482,10.5482,10.4982,10.4597,10.4289,10.4299,10.4212,10.3905,10.3905,10.3905,10.3905,10.2789,10.202,10.1712,10.1394,10.1279,10.1279,10.1279,10.1279,10.1279,10.1279,10.1279,10.1279,10.1279,10.1279,8.3415,8.3837,8.4605,8.5272,8.7407,8.9496,9.0233,8.984,8.9783,9.1364,9.358,9.514,9.5012,9.5711,9.6019,9.5143,9.5749,9.6596,9.7403,9.825,9.9144,9.999,10.0789,10.1279,10.1279,10.1279,10.1279,10.1279,10.1279,10.1279,10.1279,10.1279,10.1279,10.1279,10.1279,10.1279,10.1279,10.1279,10.1279,10.1279,10.1279,10.1279,10.1279,10.1279,10.1279,10.1279,10.1279,10.1279,10.1279,10.1279,10.1279,10.1279,10.1279,10.1279,10.1279,10.1279,10.1279,10.1279,10.1279,10.1279,10.1279,10.1279,10.1904,10.2597,10.2597,10.3789,10.5107,10.5107,10.5713,10.6395,10.6395,10.6395,10.6395,10.6395,10.6395,10.6395,10.6395,10.6395,10.6395,10.6395,10.6395,10.6395,10.6395,10.6395,10.6395,10.6395,10.6395,10.6395,10.6395,10.6395,10.6097,10.5223,10.5107,10.4789,10.3982,10.3905,10.3905,10.3905,10.3905,10.3482,10.2597,10.1789,10.1279,10.1279,10.1279,10.1279,10.1279,10.1279,10.1279,10.1279,10.1279,10.1279,8.4781,8.6115,8.7656,8.7991,8.944,9.0852,9.1151,9.1092,9.1109,9.1559,9.3542,9.514,9.5012,9.5711,9.6211,9.5942,9.6134,9.6788,9.8211,9.8634,9.9327,10.0789,10.1212,10.1279,10.1279,10.1279,10.1279,10.1279,10.1279,10.1279,10.1279,10.1279,10.1279,10.1279,10.1279,10.1279,10.1279,10.1279,10.1279,10.1279,10.1279,10.1279,10.1279,10.1279,10.1279,10.1279,10.1279,10.1279,10.1279,10.1279,10.1279,10.1279,10.1279,10.1279,10.1279,10.1279,10.1279,10.1279,10.1279,10.1279,10.1279,10.1279,10.1904,10.2712,10.3289,10.4299,10.5213,10.579,10.6213,10.6395,10.6395,10.6395,10.6395,10.6395,10.6395,10.6395,10.6395,10.6395,10.6395,10.6395,10.6395,10.6395,10.6395,10.6395,10.6395,10.6395,10.6395,10.6395,10.6395,10.6395,10.628,10.602,10.602,10.5905,10.5713,10.5713,10.5713,10.5713,10.5097,10.4405,10.3482,10.3289,10.2789,10.2212,10.2212,10.1904,10.1279,10.1279,10.1279,10.1279,10.1279,10.1587,8.5853,8.7311,8.9076,8.9805,9.0965,9.2032,9.2428,9.2538,9.2631,9.2903,9.4386,9.5609,9.554,9.5942,9.6288,9.6288,9.6288,9.6903,9.8557,9.8788,9.9404,10.1087,10.1279,10.1279,10.1279,10.1279,10.1279,10.1279,10.1279,10.1279,10.1279,10.1279,10.1279,10.1279,10.1279,10.1279,10.1279,10.1279,10.1279,10.1279,10.1279,10.1279,10.1279,10.1279,10.1279,10.1279,10.1279,10.1279,10.1279,10.1279,10.1279,10.1279,10.1279,10.1279,10.1279,10.1279,10.1279,10.1279,10.1279,10.1279,10.1394,10.1712,10.2404,10.3289,10.4097,10.4982,10.5713,10.629,10.6395,10.6395,10.6395,10.6395,10.6395,10.6395,10.6395,10.6395,10.6395,10.6395,10.6395,10.6395,10.6395,10.6395,10.6395,10.6395,10.6395,10.6395,10.6395,10.6395,10.6395,10.6395,10.6395,10.6395,10.6395,10.6395,10.6395,10.6395,10.6395,10.6395,10.5905,10.5405,10.4905,10.4289,10.3712,10.3097,10.3097,10.2904,10.2289,10.2289,10.2289,10.2289,10.2289,10.2597,8.6746,8.7826,8.9467,9.1026,9.2218,9.3202,9.3939,9.413,9.426,9.4686,9.5606,9.6288,9.6211,9.6249,9.6288,9.6288,9.6288,9.6903,9.8557,9.8788,9.9404,10.1087,10.1279,10.1279,10.1279,10.1279,10.1279,10.1279,10.1279,10.1279,10.1279,10.1279,10.1279,10.1279,10.1279,10.1279,10.1279,10.1279,10.1279,10.1279,10.1279,10.1279,10.1279,10.1279,10.1279,10.1279,10.1279,10.1279,10.1279,10.1279,10.1279,10.1279,10.1279,10.1279,10.1279,10.1279,10.1279,10.1279,10.1279,10.1279,10.1394,10.2289,10.3212,10.4097,10.4915,10.5713,10.6395,10.6395,10.6395,10.6395,10.6395,10.6395,10.6395,10.6395,10.6395,10.6395,10.6395,10.6395,10.6395,10.6395,10.6395,10.6395,10.6395,10.6395,10.6395,10.6395,10.6395,10.6395,10.6395,10.6395,10.6395,10.6395,10.6395,10.6395,10.6395,10.6395,10.6395,10.6395,10.6395,10.6395,10.6395,10.4905,10.4097,10.3982,10.3982,10.3982,10.3905,10.3905,10.3905,10.3905,10.3905,10.3905,8.8058,8.9444,9.1114,9.276,9.4368,9.555,9.5752,9.579,9.528,9.3566,9.4866,9.6095,9.5412,9.5826,9.6288,9.6288,9.6288,9.6903,9.8557,9.8788,9.9404,10.1087,10.1279,10.1279,10.1279,10.1279,10.1279,10.1279,10.1279,10.1279,10.1279,10.1279,10.1279,10.1279,10.1279,10.1279,10.1279,10.1279,10.1279,10.1279,10.1279,10.1279,10.1279,10.1279,10.1279,10.1279,10.1279,10.1279,10.1279,10.1279,10.1279,10.1279,10.1279,10.1279,10.1279,10.1279,10.1279,10.1279,10.1279,10.1279,10.1394,10.2289,10.3212,10.4097,10.4915,10.5713,10.6395,10.6395,10.6395,10.6395,10.6395,10.6395,10.6395,10.6395,10.6395,10.6395,10.6395,10.6395,10.6395,10.6395,10.6395,10.6395,10.6395,10.6395,10.6395,10.6395,10.6395,10.6395,10.6395,10.6395,10.6395,10.6395,10.6395,10.6395,10.6395,10.6395,10.6395,10.6395,10.6395,10.6395,10.6395,10.6097,10.552,10.4915,10.4789,10.4482,10.3905,10.3905,10.3905,10.3905,10.3905,10.4212,8.894,9.021,9.171,9.3796,9.5326,9.6288,9.6288,9.6288,9.5944,9.4691,9.5416,9.6172,9.5711,9.598,9.6288,9.6288,9.6288,9.6903,9.8557,9.8788,9.9404,10.1087,10.1279,10.1279,10.1279,10.1279,10.1279,10.1279,10.1279,10.1279,10.1279,10.1279,10.1279,10.1279,10.1279,10.1279,10.1279,10.1279,10.1279,10.1279,10.1279,10.1279,10.1279,10.1279,10.1279,10.1279,10.1279,10.1279,10.1279,10.1279,10.1279,10.1279,10.1279,10.1279,10.1279,10.1279,10.1279,10.1279,10.1279,10.1279,10.151,10.2789,10.3482,10.4097,10.5405,10.602,10.6395,10.6395,10.6395,10.6395,10.6395,10.6395,10.6395,10.6395,10.6395,10.6395,10.6395,10.6395,10.6395,10.6395,10.6395,10.6395,10.6395,10.6395,10.6395,10.6395,10.6395,10.6395,10.6395,10.6395,10.6395,10.6395,10.6395,10.6395,10.6395,10.6395,10.6395,10.6395,10.6395,10.6395,10.6395,10.6395,10.6213,10.5713,10.5713,10.5482,10.5097,10.5097,10.5097,10.5097,10.5097,10.529,8.9239,9.0624,9.221,9.4604,9.5788,9.6288,9.6288,9.6288,9.6288,9.6288,9.6288,9.6288,9.6288,9.6288,9.6288,9.6288,9.6288,9.6903,9.8557,9.8788,9.9404,10.1087,10.1279,10.1279,10.1279,10.1279,10.1279,10.1279,10.1279,10.1279,10.1279,10.1279,10.1279,10.1279,10.1279,10.1279,10.1279,10.1279,10.1279,10.1279,10.1279,10.1279,10.1279,10.1279,10.1279,10.1279,10.1279,10.1279,10.1279,10.1279,10.1279,10.1279,10.1279,10.1279,10.1279,10.1279,10.1279,10.1279,10.1279,10.1279,10.1597,10.3212,10.3789,10.4212,10.5713,10.629,10.6395,10.6395,10.6395,10.6395,10.6395,10.6395,10.6395,10.6395,10.6395,10.6395,10.6395,10.6395,10.6395,10.6395,10.6395,10.6395,10.6395,10.6395,10.6395,10.6395,10.6395,10.6395,10.6395,10.6395,10.6395,10.6395,10.6395,10.6395,10.6395,10.6395,10.6395,10.6395,10.6395,10.6395,10.6395,10.6395,10.6395,10.6395,10.6395,10.6395,10.6395,10.6395,10.6395,10.6395,10.6395,10.6395,8.841,9.1065,9.3826,9.5672,9.6211,9.6288,9.6288,9.6288,9.6288,9.6288,9.6288,9.6288,9.6288,9.6288,9.6288,9.6288,9.6288,9.6903,9.8557,9.8788,9.9404,10.1087,10.1279,10.1279,10.1279,10.1279,10.1279,10.1279,10.1279,10.1279,10.1279,10.1279,10.1279,10.1279,10.1279,10.1279,10.1279,10.1279,10.1279,10.1279,10.1279,10.1279,10.1279,10.1279,10.1279,10.1279,10.1279,10.1279,10.1279,10.1279,10.1279,10.1279,10.1279,10.1279,10.1279,10.1279,10.1279,10.1279,10.1279,10.1279,10.151,10.252,10.3289,10.4097,10.4982,10.579,10.6395,10.6395,10.6395,10.6395,10.6395,10.6395,10.6395,10.6395,10.6395,10.6395,10.6395,10.6395,10.6395,10.6395,10.6395,10.6395,10.6395,10.6395,10.6395,10.6395,10.6395,10.6395,10.6395,10.6395,10.6395,10.6395,10.6395,10.6395,10.6395,10.6395,10.6395,10.6395,10.6395,10.6395,10.6395,10.6395,10.6395,10.6395,10.6395,10.6395,10.6395,10.6395,10.6395,10.6395,10.6395,10.6395,8.9517,9.221,9.4604,9.5365,9.5942,9.6288,9.6288,9.6288,9.6288,9.6288,9.6288,9.6288,9.6288,9.6288,9.6288,9.6288,9.6288,9.6711,9.7904,9.8481,9.925,10.0481,10.1019,10.1279,10.1279,10.1279,10.1279,10.1279,10.1279,10.1279,10.1279,10.1279,10.1279,10.1279,10.1279,10.1279,10.1279,10.1279,10.1279,10.1279,10.1279,10.1279,10.1279,10.1279,10.1279,10.1279,10.1279,10.1279,10.1279,10.1279,10.1279,10.1279,10.1279,10.1279,10.1279,10.1279,10.1279,10.1279,10.1279,10.1279,10.1394,10.2289,10.3212,10.4097,10.4915,10.5713,10.6395,10.6395,10.6395,10.6395,10.6395,10.6395,10.6395,10.6395,10.6395,10.6395,10.6395,10.6395,10.6395,10.6395,10.6395,10.6395,10.6395,10.6395,10.6395,10.6395,10.6395,10.6395,10.6395,10.6395,10.6395,10.6395,10.6395,10.6395,10.6395,10.6395,10.6395,10.6395,10.6395,10.6395,10.6395,10.6395,10.6395,10.6395,10.6395,10.6395,10.6395,10.6395,10.6395,10.6395,10.6395,10.6395,9.0633,9.2749,9.4489,9.4874,9.5489,9.6019,9.6249,9.6288,9.6288,9.6288,9.6288,9.6288,9.6288,9.6288,9.6288,9.6288,9.6288,9.6596,9.7403,9.825,9.9096,9.999,10.0789,10.1279,10.1279,10.1279,10.1279,10.1279,10.1279,10.1279,10.1279,10.1279,10.1279,10.1279,10.1279,10.1279,10.1279,10.1279,10.1279,10.1279,10.1279,10.1279,10.1279,10.1279,10.1279,10.1279,10.1279,10.1279,10.1279,10.1279,10.1279,10.1279,10.1279,10.1279,10.1279,10.1279,10.1279,10.1279,10.1279,10.1279,10.1394,10.2097,10.2904,10.3712,10.4482,10.5405,10.6097,10.628,10.6395,10.6395,10.6395,10.6395,10.6395,10.6395,10.6395,10.6395,10.6395,10.6395,10.6395,10.6395,10.6395,10.6395,10.6395,10.6395,10.6395,10.6395,10.6395,10.6395,10.6395,10.6395,10.6395,10.6395,10.6395,10.6395,10.6395,10.6395,10.6395,10.6395,10.6395,10.6395,10.6395,10.6395,10.6395,10.6395,10.6395,10.6395,10.6395,10.6395,10.6395,10.6395,10.6395,10.6395,9.0941,9.1902,9.3018,9.4604,9.5027,9.5297,9.6095,9.6288,9.6288,9.6288,9.6288,9.6288,9.6288,9.6288,9.6288,9.6288,9.6288,9.6596,9.7403,9.825,9.9096,9.999,10.0789,10.1279,10.1279,10.1279,10.1279,10.1279,10.1279,10.1279,10.1279,10.1279,10.1279,10.1279,10.1279,10.1279,10.1279,10.1279,10.1279,10.1279,10.1279,10.1279,10.1279,10.1279,10.1279,10.1279,10.1279,10.1279,10.1279,10.1279,10.1279,10.1279,10.1279,10.1279,10.1279,10.1279,10.1279,10.1279,10.1279,10.1279,10.1279,10.1394,10.202,10.2789,10.3712,10.4482,10.529,10.6213,10.6395,10.6395,10.6395,10.6395,10.6395,10.6395,10.6395,10.6395,10.6395,10.6395,10.6395,10.6395,10.6395,10.6395,10.6395,10.6395,10.6395,10.6395,10.6395,10.6395,10.6395,10.6395,10.6395,10.6395,10.6395,10.6395,10.6395,10.6395,10.6395,10.6395,10.6395,10.6395,10.6395,10.6395,10.6395,10.6395,10.6395,10.6395,10.6395,10.6395,10.6395,10.6395,10.6395,10.6395,9.0979,9.1825,9.2633,9.3249,9.3787,9.4258,9.4557,9.5057,9.548,9.548,9.5903,9.6288,9.6288,9.6288,9.6288,9.6288,9.6288,9.6403,9.6673,9.7442,9.8288,9.9173,9.9981,10.0712,10.1202,10.1279,10.1279,10.1279,10.1279,10.1279,10.1279,10.1279,10.1279,10.1279,10.1279,10.1279,10.1279,10.1279,10.1279,10.1279,10.1279,10.1279,10.1279,10.1279,10.1279,10.1279,10.1279,10.1279,10.1279,10.1279,10.1279,10.1279,10.1279,10.1279,10.1279,10.1279,10.1279,10.1279,10.1279,10.1279,10.1279,10.1279,10.1904,10.2789,10.3597,10.4492,10.529,10.6213,10.6395,10.6395,10.6395,10.6395,10.6395,10.6395,10.6395,10.6395,10.6395,10.6395,10.6395,10.6395,10.6395,10.6395,10.6395,10.6395,10.6395,10.6395,10.6395,10.6395,10.6395,10.6395,10.6395,10.6395,10.6395,10.6395,10.6395,10.6395,10.6395,10.6395,10.6395,10.6395,10.6395,10.6395,10.6395,10.6395,10.6395,10.6395,10.6395,10.6395,10.6395,10.6395,10.6395,10.6395,9.1047,9.1633,9.2133,9.2441,9.2903,9.3364,9.3633,9.4373,9.4989,9.4989,9.5672,9.6288,9.6288,9.6288,9.6288,9.6288,9.6288,9.6288,9.6288,9.698,9.7711,9.8288,9.9375,10.0298,10.0789,10.1087,10.1279,10.1279,10.1279,10.1279,10.1279,10.1279,10.1279,10.1279,10.1279,10.1279,10.1279,10.1279,10.1279,10.1279,10.1279,10.1279,10.1279,10.1279,10.1279,10.1279,10.1279,10.1279,10.1279,10.1279,10.1279,10.1279,10.1279,10.1279,10.1279,10.1279,10.1279,10.1279,10.1279,10.1279,10.1279,10.1279,10.1712,10.2289,10.3212,10.3982,10.4905,10.5713,10.6213,10.6395,10.6395,10.6395,10.6395,10.6395,10.6395,10.6395,10.6395,10.6395,10.6395,10.6395,10.6395,10.6395,10.6395,10.6395,10.6395,10.6395,10.6395,10.6395,10.6395,10.6395,10.6395,10.6395,10.6395,10.6395,10.6395,10.6395,10.6395,10.6395,10.6395,10.6395,10.6395,10.6395,10.6395,10.6395,10.6395,10.6395,10.6395,10.6395,10.6395,10.6395,10.6395,10.6395,0.0,0.0,0.0,9.2249,9.2441,9.2672,9.348,9.4335,9.4951,9.4989,9.5672,9.6288,9.6288,9.6288,9.6288,9.6288,9.6288,9.6288,9.6288,9.698,9.748,9.7519,9.8981,9.999,10.0106,10.0789,10.1289,10.1289,10.1279,10.1279,10.1279,10.1279,10.1279,10.1279,10.1279,10.1279,10.1279,10.1279,10.1279,10.1279,10.1279,10.1279,10.1279,10.1279,10.1279,10.1279,10.1279,10.1279,10.1279,10.1279,10.1279,10.1279,10.1279,10.1279,10.1279,10.1279,10.1279,10.1279,10.1279,10.1279,10.1279,10.1279,10.1279,10.151,10.2289,10.3212,10.4097,10.4915,10.5713,10.6395,10.6395,10.6395,10.6395,10.6395,10.6395,10.6395,10.6395,10.6395,10.6395,10.6395,10.6395,10.6395,10.6395,10.6395,10.6395,10.6395,10.6395,10.6395,10.6395,10.6395,10.6395,10.6395,10.6395,10.6395,10.6395,10.6395,10.6395,10.6395,10.6395,10.6395,10.6395,10.6395,10.6395,10.6395,10.6395,10.6395,10.6395,10.6395,10.6395,10.6395,10.6395,10.6395,9.121,0.0,0.0,0.0,0.0,0.0,9.2633,9.3018,9.3518,9.4758,9.5181,9.5557,9.6172,9.6288,9.6288,9.6288,9.6288,9.6288,9.6288,9.648,9.6865,9.7442,9.7942,9.8481,9.9096,9.9952,10.0404,10.0404,10.1019,10.1279,10.1279,10.1279,10.1279,10.1279,10.1279,10.1279,10.1279,10.1279,10.1279,10.1279,10.1279,10.1279,10.1279,10.1279,10.1279,10.1279,10.1279,10.1279,10.1279,10.1279,10.1279,10.1279,10.1279,10.1279,10.1279,10.1279,10.1279,10.1279,10.1279,10.1279,10.1279,10.1279,10.1279,10.151,10.2289,10.3212,10.4097,10.4915,10.5713,10.6395,10.6395,10.6395,10.6395,10.6395,10.6395,10.6395,10.6395,10.6395,10.6395,10.6395,10.6395,10.6395,10.6395,10.6395,10.6395,10.6395,10.6395,10.6395,10.6395,10.6395,10.6395,10.6395,10.6395,10.6395,10.6395,10.6395,10.6395,10.6395,10.6395,10.6395,10.6395,10.6395,10.6395,10.6395,10.6395,10.6395,10.6395,10.6395,10.6395,10.6395,10.6395,10.6395,0.0,0.0,9.121,9.121,0.0,0.0,9.1825,9.2249,9.2864,9.4181,9.445,9.472,9.5595,9.5441,9.5326,9.5711,9.5749,9.5865,9.6249,9.6288,9.648,9.6942,9.7288,9.7711,9.8211,9.9058,9.9721,10.0106,10.0481,10.0904,10.1279,10.1279,10.1279,10.1279,10.1279,10.1279,10.1279,10.1279,10.1279,10.1279,10.1279,10.1279,10.1279,10.1279,10.1279,10.1279,10.1279,10.1279,10.1279,10.1279,10.1279,10.1279,10.1279,10.1279,10.1279,10.1279,10.1279,10.1279,10.1279,10.1279,10.1279,10.1279,10.1279,10.1394,10.1904,10.2904,10.3982,10.4492,10.5482,10.6395,10.6395,10.6395,10.6395,10.6395,10.6395,10.6395,10.6395,10.6395,10.6395,10.6395,10.6395,10.6395,10.6395,10.6395,10.6395,10.6395,10.6395,10.6395,10.6395,10.6395,10.6395,10.6395,10.6395,10.6395,10.6395,10.6395,10.6395,10.6395,10.6395,10.6395,10.6395,10.6395,10.6395,10.6395,10.6395,10.6395,10.6395,10.6395,10.6395,10.6395,10.6395,10.6395,0.0,0.0,0.0,9.121,9.121,0.0,9.1325,9.1864,9.2595,9.3518,9.3633,9.3826,9.472,9.422,9.3941,9.472,9.4951,9.5297,9.6172,9.6288,9.6288,9.6288,9.6942,9.7365,9.7365,9.8134,9.8981,9.976,9.999,10.0404,10.1087,10.1289,10.1279,10.1279,10.1279,10.1279,10.1279,10.1279,10.1279,10.1279,10.1279,10.1279,10.1279,10.1279,10.1279,10.1279,10.1279,10.1279,10.1279,10.1279,10.1279,10.1279,10.1279,10.1279,10.1279,10.1279,10.1279,10.1279,10.1279,10.1279,10.1279,10.1279,10.1279,10.1279,10.1279,10.2404,10.3789,10.3982,10.5213,10.6395,10.6395,10.6395,10.6395,10.6395,10.6395,10.6395,10.6395,10.6395,10.6395,10.6395,10.6395,10.6395,10.6395,10.6395,10.6395,10.6395,10.6395,10.6395,10.6395,10.6395,10.6395,10.6395,10.6395,10.6395,10.6395,10.6395,10.6395,10.6395,10.6395,10.6395,10.6395,10.6395,10.6395,10.6395,10.6395,10.6395,10.6395,10.6395,10.6395,10.6395,10.6395,10.6395,0.0,0.0,0.0,9.121,9.121,0.0,9.2095,9.1825,9.1864,9.3403,9.3172,9.2979,9.3796,9.3787,9.3749,9.395,9.4527,9.5297,9.6172,9.6288,9.6288,9.6288,9.6442,9.6519,9.6519,9.7288,9.7827,9.798,9.9298,10.0183,10.0289,10.0904,10.1279,10.1279,10.1279,10.1279,10.1279,10.1279,10.1279,10.1279,10.1279,10.1279,10.1279,10.1279,10.1279,10.1279,10.1279,10.1279,10.1279,10.1279,10.1279,10.1279,10.1279,10.1279,10.1279,10.1279,10.1279,10.1279,10.1279,10.1279,10.1279,10.1279,10.1279,10.1279,10.1279,10.202,10.3097,10.4482,10.5597,10.6395,10.6395,10.6395,10.6395,10.6395,10.6395,10.6395,10.6395,10.6395,10.6395,10.6395,10.6395,10.6395,10.6395,10.6395,10.6395,10.6395,10.6395,10.6395,10.6395,10.6395,10.6395,10.6395,10.6395,10.6395,10.6395,10.6395,10.6395,10.6395,10.6395,10.6395,10.6395,10.6395,10.6395,10.6395,10.6395,10.6395,10.6395,10.6395,10.6395,10.6395,10.6395,10.6395,9.121,9.121,9.121,9.121,9.121,0.0,0.0,9.1518,9.1556,9.2826,9.2441,9.2095,9.2941,9.2749,9.2595,9.3018,9.348,9.4057,9.4903,9.5749,9.6288,9.6288,9.6288,9.6288,9.6288,9.6673,9.7057,9.748,9.8711,9.9644,10.0106,10.0481,10.0904,10.1279,10.1279,10.1279,10.1279,10.1279,10.1279,10.1279,10.1279,10.1279,10.1279,10.1279,10.1279,10.1279,10.1279,10.1279,10.1279,10.1279,10.1279,10.1279,10.1279,10.1279,10.1279,10.1279,10.1279,10.1279,10.1279,10.1279,10.1279,10.1279,10.1279,10.1279,10.1279,10.2212,10.3482,10.48,10.5713,10.6395,10.6395,10.6395,10.6395,10.6395,10.6395,10.6395,10.6395,10.6395,10.6395,10.6395,10.6395,10.6395,10.6395,10.6395,10.6395,10.6395,10.6395,10.6395,10.6395,10.6395,10.6395,10.6395,10.6395,10.6395,10.6395,10.6395,10.6395,10.6395,10.6395,10.6395,10.6395,10.6395,10.6395,10.6395,10.6395,10.6395,10.6395,10.6395,10.6395,10.6395,10.6395,10.6395,9.121,9.121,9.121,9.121,9.121,9.121,0.0,0.0,0.0,9.2095,9.171,9.1441,9.2133,9.1672,9.1364,9.1902,9.2287,9.2672,9.3133,9.4711,9.5788,9.5788,9.5788,9.5865,9.6019,9.6211,9.6557,9.7211,9.8057,9.8865,9.9567,9.9913,10.0414,10.101,10.1202,10.1279,10.1279,10.1279,10.1279,10.1279,10.1279,10.1279,10.1279,10.1279,10.1279,10.1279,10.1279,10.1279,10.1279,10.1279,10.1279,10.1279,10.1279,10.1279,10.1279,10.1279,10.1279,10.1279,10.1279,10.1279,10.1279,10.1279,10.1279,10.1279,10.1279,10.252,10.3982,10.4723,10.5597,10.6395,10.6395,10.6395,10.6395,10.6395,10.6395,10.6395,10.6395,10.6395,10.6395,10.6395,10.6395,10.6395,10.6395,10.6395,10.6395,10.6395,10.6395,10.6395,10.6395,10.6395,10.6395,10.6395,10.6395,10.6395,10.6395,10.6395,10.6395,10.6395,10.6395,10.6395,10.6395,10.6395,10.6395,10.6395,10.6395,10.6395,10.6395,10.6395,10.6395,10.6395,10.6395,10.6395,9.121,9.121,9.121,9.121,9.121,9.121,9.121,0.0,9.1248,9.1325,0.0,9.1248,9.1325,0.0,0.0,9.0316,9.1479,9.2249,9.1595,9.2941,9.398,9.398,9.398,9.4296,9.5066,9.5865,9.6326,9.6442,9.7211,9.7673,9.7788,9.9259,10.0106,10.0221,10.0904,10.1279,10.1279,10.1279,10.1279,10.1279,10.1279,10.1279,10.1279,10.1279,10.1279,10.1279,10.1279,10.1279,10.1279,10.1279,10.1279,10.1279,10.1279,10.1279,10.1279,10.1279,10.1279,10.1279,10.1279,10.1279,10.1279,10.1279,10.1279,10.1279,10.1279,10.252,10.3905,10.3982,10.5213,10.6395,10.6395,10.6395,10.6395,10.6395,10.6395,10.6395,10.6395,10.6395,10.6395,10.6395,10.6395,10.6395,10.6395,10.6395,10.6395,10.6395,10.6395,10.6395,10.6395,10.6395,10.6395,10.6395,10.6395,10.6395,10.6395,10.6395,10.6395,10.6395,10.6395,10.6395,10.6395,10.6395,10.6395,10.6395,10.6395,10.6395,10.6395,10.6395,10.6395,10.6395,10.6395,10.6395,9.1825,9.1941,9.1941,9.1941,9.1941,9.1825,9.1325,9.121,9.121,9.121,0.0,0.0,0.0,0.0,0.0,0.0,9.1287,9.1633,9.1248,9.1825,9.2595,9.3595,9.371,9.4027,9.4912,9.4864,9.498,9.5518,9.5865,9.6249,9.6788,9.8404,9.9567,10.0106,10.0904,10.1279,10.1279,10.1279,10.1279,10.1279,10.1279,10.1279,10.1279,10.1279,10.1279,10.1279,10.1279,10.1279,10.1279,10.1279,10.1279,10.1279,10.1279,10.1279,10.1279,10.1279,10.1279,10.1279,10.1279,10.1279,10.1279,10.1279,10.1279,10.1394,10.1904,10.2904,10.3982,10.4492,10.5482,10.6395,10.6395,10.6395,10.6395,10.6395,10.6395,10.6395,10.6395,10.6395,10.6395,10.6395,10.6395,10.6395,10.6395,10.6395,10.6395,10.6395,10.6395,10.6395,10.6395,10.6395,10.6395,10.6395,10.6395,10.6395,10.6395,10.6395,10.6395,10.6395,10.6395,10.6395,10.6395,10.6395,10.6395,10.6395,10.6395,10.6395,10.6395,10.6395,10.6395,10.6395,10.6395,10.6395,9.2672,9.2672,9.2556,9.2787,9.2479,9.2056,9.1633,9.1364,9.121,9.121,9.121,0.0,0.0,0.0,9.1133,9.0902,0.0,9.1133,9.0902,9.1056,9.1633,9.2864,9.321,9.3642,9.4258,9.3941,9.395,9.4604,9.4643,9.5027,9.5903,9.7326,9.8634,9.9721,10.0481,10.1096,10.1279,10.1279,10.1279,10.1279,10.1279,10.1279,10.1279,10.1279,10.1279,10.1279,10.1279,10.1279,10.1279,10.1279,10.1279,10.1279,10.1279,10.1279,10.1279,10.1279,10.1279,10.1279,10.1279,10.1279,10.1279,10.1279,10.1279,10.151,10.2289,10.3212,10.4097,10.4915,10.5713,10.6395,10.6395,10.6395,10.6395,10.6395,10.6395,10.6395,10.6395,10.6395,10.6395,10.6395,10.6395,10.6395,10.6395,10.6395,10.6395,10.6395,10.6395,10.6395,10.6395,10.6395,10.6395,10.6395,10.6395,10.6395,10.6395,10.6395,10.6395,10.6395,10.6395,10.6395,10.6395,10.6395,10.6395,10.6395,10.6395,10.6395,10.6395,10.6395,10.6395,10.6395,10.6395,10.6395,9.3633,9.3095,9.2672,9.348,9.2441,9.1479,9.2287,9.1825,9.121,9.121,9.121,9.121,9.121,9.121,9.0932,0.0,9.0663,0.0,0.0,9.0663,9.121,9.1287,9.2018,9.2556,9.2595,9.3249,9.371,9.3749,9.3749,9.4134,9.4989,9.5903,9.7134,9.8788,9.9683,10.0481,10.1279,10.1279,10.1279,10.1279,10.1279,10.1279,10.1279,10.1279,10.1279,10.1279,10.1279,10.1279,10.1279,10.1279,10.1279,10.1279,10.1279,10.1279,10.1279,10.1279,10.1279,10.1279,10.1279,10.1279,10.1279,10.1279,10.1279,10.151,10.2289,10.3212,10.4097,10.4915,10.5713,10.6395,10.6395,10.6395,10.6395,10.6395,10.6395,10.6395,10.6395,10.6395,10.6395,10.6395,10.6395,10.6395,10.6395,10.6395,10.6395,10.6395,10.6395,10.6395,10.6395,10.6395,10.6395,10.6395,10.6395,10.6395,10.6395,10.6395,10.6395,10.6395,10.6395,10.6395,10.6395,10.6395,10.6395,10.6395,10.6395,10.6395,10.6395,10.6395,10.6395,10.6395,10.6395,10.6395,9.4412,9.4373,9.422,9.4489,9.371,9.2787,9.2556,9.1825,9.121,9.121,9.121,9.121,9.121,9.121,0.0,0.0,0.0,0.0,0.0,9.1018,9.121,9.121,9.1479,9.1864,9.2441,9.221,9.2287,9.2864,9.2903,9.3249,9.4104,9.5518,9.6788,9.7904,9.9336,10.0221,10.0481,10.1019,10.1279,10.1279,10.1279,10.1279,10.1279,10.1279,10.1279,10.1279,10.1279,10.1279,10.1279,10.1279,10.1279,10.1279,10.1279,10.1279,10.1279,10.1279,10.1279,10.1279,10.1279,10.1279,10.1279,10.1279,10.1712,10.2289,10.3212,10.3982,10.4905,10.5713,10.6213,10.6395,10.6395,10.6395,10.6395,10.6395,10.6395,10.6395,10.6395,10.6395,10.6395,10.6395,10.6395,10.6395,10.6395,10.6395,10.6395,10.6395,10.6395,10.6395,10.6395,10.6395,10.6395,10.6395,10.6395,10.6395,10.6395,10.6395,10.6395,10.6395,10.6395,10.6395,10.6395,10.6395,10.6395,10.6395,10.6395,10.6395,10.6395,10.6395,10.6395,10.6395,10.6395,10.6395,9.5288,9.5258,9.5066,9.5374,9.4557,9.3633,9.3441,9.271,9.2095,9.2095,9.1864,9.1672,9.1672,0.0,0.0,0.0,0.0,0.0,0.0,9.121,9.121,9.121,9.121,9.1441,9.1979,9.1518,9.1441,9.2018,9.2056,9.2518,9.3633,9.4749,9.6019,9.7442,9.8904,9.9798,10.0106,10.0904,10.1279,10.1279,10.1279,10.1279,10.1279,10.1279,10.1279,10.1279,10.1279,10.1279,10.1279,10.1279,10.1279,10.1279,10.1279,10.1279,10.1279,10.1279,10.1279,10.1279,10.1279,10.1279,10.1279,10.1279,10.1904,10.2789,10.3597,10.4492,10.529,10.6521,10.6587,10.651,10.679,10.6587,10.6395,10.6395,10.6395,10.6395,10.6395,10.6395,10.6395,10.6395,10.6395,10.6395,10.6395,10.6395,10.6395,10.6395,10.6395,10.6395,10.6395,10.6395,10.6395,10.6395,10.6395,10.6395,10.6395,10.6395,10.6395,10.6395,10.6395,10.6395,10.6395,10.6395,10.651,10.6905,10.6597,10.6597,10.6905,10.6597,10.6395,10.6395,10.6395,10.6395]}]]